[[{"header":{"parameterUnit":"m.s-1","parameterCategory":1,"la1":30.6,"la2":29.2853,"lo1":-89.7004,"lo2":-87.6739,"dy":0.0162,"dx":0.0183,"nx":112,"ny":82,"refTime":"2023-08-19T06:00:00:Z","depth":0,"parameterNumber":2,"parameterNumberName":"U-component_of_WINDS"},"data":[0.0,0.0,0.0,0.0,0.0,0.0,0.0,0.0,0.0,0.0,0.0,0.0,0.0,0.0,0.0,0.0,0.0,0.0,0.0,0.0,0.0,0.0,0.0,0.0,0.0,0.0,0.0,0.0,0.0,0.0,0.0,0.0,0.0,0.0,0.0,0.0,0.0,0.0,0.0,0.0,0.0,0.0,0.0,0.0,0.0,0.0,0.0,0.0,0.0,0.0,0.0,0.0,0.0,0.0,0.0,0.0,0.0,0.0,0.0,0.0,0.0,0.0,0.0,0.0,0.0,0.0,0.0,0.0,0.0,0.0,0.0,0.0,0.0,0.0,0.0,0.0,0.0,0.0,0.0,0.0,0.0,0.0,0.0,0.0,0.0,0.0,0.0,0.0,0.0,0.0,-2.2603,-2.2893,-2.4071,-2.45,-2.376,-2.1844,-1.9738,-1.7479,0.0,0.0,0.0,0.0,0.0,0.0,0.0,0.0,0.0,0.0,0.0,0.0,0.0,0.0,0.0,0.0,0.0,0.0,0.0,0.0,0.0,0.0,0.0,0.0,0.0,0.0,0.0,0.0,0.0,0.0,0.0,0.0,0.0,0.0,0.0,0.0,0.0,0.0,0.0,0.0,0.0,0.0,0.0,0.0,0.0,0.0,0.0,0.0,0.0,0.0,0.0,0.0,0.0,0.0,0.0,0.0,0.0,0.0,0.0,0.0,0.0,0.0,0.0,0.0,0.0,0.0,0.0,0.0,0.0,0.0,0.0,0.0,0.0,0.0,0.0,0.0,0.0,0.0,0.0,0.0,0.0,0.0,0.0,0.0,0.0,0.0,0.0,0.0,0.0,0.0,0.0,0.0,0.0,0.0,0.0,0.0,0.0,0.0,0.0,0.0,0.0,0.0,0.0,0.0,-2.3368,-2.4362,-2.4678,-2.4395,-2.3387,-2.1399,-1.9045,-1.6338,0.0,0.0,0.0,0.0,0.0,0.0,0.0,0.0,0.0,0.0,0.0,0.0,0.0,0.0,0.0,0.0,0.0,0.0,0.0,0.0,0.0,0.0,0.0,0.0,0.0,0.0,0.0,0.0,0.0,0.0,0.0,0.0,0.0,0.0,0.0,0.0,0.0,0.0,0.0,0.0,0.0,0.0,0.0,0.0,0.0,0.0,0.0,0.0,0.0,0.0,0.0,0.0,0.0,0.0,0.0,0.0,0.0,0.0,0.0,0.0,0.0,0.0,0.0,0.0,0.0,0.0,0.0,0.0,0.0,0.0,0.0,0.0,0.0,0.0,0.0,0.0,0.0,0.0,0.0,0.0,0.0,0.0,0.0,0.0,0.0,0.0,0.0,0.0,0.0,0.0,0.0,0.0,0.0,0.0,0.0,0.0,0.0,0.0,0.0,0.0,0.0,0.0,0.0,-2.2234,-2.3195,-2.4169,-2.4194,-2.3812,-2.2997,-2.0714,-1.8293,-1.5784,-1.2995,0.0,0.0,0.0,0.0,0.0,0.0,0.0,0.0,0.0,0.0,0.0,0.0,0.0,0.0,0.0,0.0,0.0,0.0,0.0,0.0,0.0,0.0,0.0,0.0,0.0,0.0,0.0,0.0,0.0,0.0,0.0,0.0,0.0,0.0,0.0,0.0,0.0,0.0,0.0,0.0,0.0,0.0,0.0,0.0,0.0,0.0,0.0,0.0,0.0,0.0,0.0,0.0,0.0,0.0,0.0,0.0,0.0,0.0,0.0,0.0,0.0,0.0,0.0,0.0,0.0,0.0,0.0,0.0,0.0,0.0,0.0,0.0,0.0,0.0,0.0,0.0,0.0,0.0,0.0,0.0,0.0,0.0,0.0,0.0,0.0,0.0,0.0,0.0,0.0,0.0,0.0,0.0,0.0,0.0,0.0,0.0,0.0,0.0,0.0,0.0,0.0,0.0,-2.1967,-2.2988,-2.3916,-2.377,-2.3277,-2.2507,-2.0047,-1.7509,-1.5075,-1.1923,0.0,0.0,0.0,0.0,0.0,0.0,0.0,0.0,0.0,0.0,0.0,0.0,0.0,0.0,0.0,0.0,0.0,0.0,0.0,0.0,0.0,0.0,0.0,0.0,0.0,0.0,0.0,0.0,0.0,0.0,0.0,0.0,0.0,0.0,0.0,0.0,0.0,0.0,0.0,0.0,0.0,0.0,0.0,0.0,0.0,0.0,0.0,0.0,0.0,0.0,0.0,0.0,0.0,0.0,0.0,0.0,0.0,0.0,0.0,0.0,0.0,0.0,0.0,0.0,0.0,0.0,0.0,0.0,0.0,0.0,0.0,0.0,0.0,0.0,0.0,0.0,0.0,0.0,0.0,0.0,0.0,0.0,0.0,0.0,0.0,0.0,0.0,0.0,0.0,0.0,0.0,0.0,0.0,0.0,0.0,0.0,0.0,0.0,0.0,0.0,0.0,0.0,-2.197,-2.315,-2.4579,-2.3995,-2.3005,-2.1776,-1.9457,-1.6738,-1.3631,-1.0611,0.0,0.0,0.0,0.0,0.0,0.0,0.0,0.0,0.0,0.0,0.0,0.0,0.0,0.0,0.0,0.0,0.0,0.0,0.0,0.0,0.0,0.0,0.0,0.0,0.0,0.0,0.0,0.0,0.0,0.0,0.0,0.0,0.0,0.0,0.0,0.0,0.0,0.0,0.0,0.0,0.0,0.0,0.0,0.0,0.0,0.0,0.0,0.0,0.0,0.0,0.0,0.0,0.0,0.0,0.0,0.0,0.0,0.0,0.0,0.0,0.0,0.0,0.0,0.0,0.0,0.0,0.0,0.0,0.0,0.0,0.0,0.0,0.0,0.0,0.0,0.0,0.0,0.0,0.0,0.0,0.0,0.0,0.0,0.0,0.0,0.0,0.0,0.0,0.0,0.0,0.0,0.0,0.0,0.0,0.0,0.0,0.0,0.0,0.0,0.0,0.0,0.0,-2.2102,-2.3368,-2.4437,-2.3428,-2.2405,-2.1712,-1.8897,-1.6077,-1.3447,0.0,0.0,0.0,0.0,0.0,0.0,0.0,0.0,0.0,0.0,0.0,0.0,0.0,0.0,0.0,0.0,0.0,0.0,0.0,0.0,0.0,0.0,0.0,0.0,0.0,0.0,0.0,0.0,0.0,0.0,0.0,0.0,0.0,0.0,0.0,0.0,0.0,0.0,0.0,0.0,0.0,0.0,0.0,0.0,0.0,0.0,0.0,0.0,0.0,0.0,0.0,0.0,0.0,0.0,0.0,0.0,0.0,0.0,0.0,0.0,0.0,0.0,0.0,0.0,0.0,0.0,0.0,0.0,0.0,0.0,0.0,0.0,0.0,0.0,0.0,0.0,0.0,0.0,0.0,0.0,0.0,0.0,0.0,0.0,0.0,0.0,0.0,0.0,0.0,0.0,0.0,0.0,0.0,0.0,0.0,0.0,0.0,0.0,0.0,0.0,0.0,0.0,-2.0464,-2.2184,-2.3603,-2.4445,-2.3149,-2.2049,-2.1583,-1.8534,-1.5728,-1.3582,0.0,0.0,0.0,0.0,0.0,0.0,0.0,0.0,0.0,0.0,0.0,0.0,0.0,0.0,0.0,0.0,0.0,0.0,0.0,0.0,0.0,0.0,0.0,0.0,0.0,0.0,0.0,0.0,0.0,0.0,0.0,0.0,0.0,0.0,0.0,0.0,0.0,0.0,0.0,0.0,0.0,0.0,0.0,0.0,0.0,0.0,0.0,0.0,0.0,0.0,0.0,0.0,0.0,0.0,0.0,0.0,0.0,0.0,0.0,0.0,0.0,0.0,0.0,0.0,0.0,0.0,0.0,0.0,0.0,0.0,0.0,0.0,0.0,0.0,0.0,0.0,0.0,0.0,0.0,0.0,0.0,0.0,0.0,0.0,0.0,0.0,0.0,0.0,0.0,0.0,0.0,0.0,0.0,0.0,0.0,0.0,0.0,0.0,0.0,0.0,0.0,0.0,-2.0242,-2.2227,-2.3841,-2.4708,-2.3293,-2.1997,-2.1244,-1.8306,-1.5729,0.0,0.0,0.0,0.0,0.0,0.0,0.0,0.0,0.0,0.0,0.0,0.0,0.0,0.0,0.0,0.0,0.0,0.0,0.0,0.0,0.0,0.0,0.0,0.0,0.0,0.0,0.0,0.0,0.0,0.0,0.0,0.0,0.0,0.0,0.0,0.0,0.0,0.0,0.0,0.0,0.0,0.0,0.0,0.0,0.0,0.0,0.0,0.0,0.0,0.0,0.0,0.0,0.0,0.0,0.0,0.0,0.0,0.0,0.0,0.0,0.0,0.0,0.0,0.0,0.0,0.0,0.0,0.0,0.0,0.0,0.0,0.0,0.0,0.0,0.0,0.0,0.0,0.0,0.0,0.0,0.0,0.0,0.0,0.0,0.0,0.0,0.0,0.0,0.0,0.0,0.0,0.0,0.0,0.0,0.0,0.0,0.0,0.0,0.0,0.0,0.0,0.0,0.0,-2.09,-2.2745,-2.3998,-2.4157,-2.3091,-2.1893,-2.0736,-1.8087,-1.5822,-1.4234,0.0,0.0,0.0,0.0,0.0,0.0,0.0,0.0,0.0,0.0,0.0,0.0,0.0,0.0,0.0,0.0,0.0,0.0,0.0,0.0,0.0,0.0,0.0,0.0,0.0,0.0,0.0,0.0,0.0,0.0,0.0,0.0,0.0,0.0,0.0,0.0,0.0,0.0,0.0,0.0,0.0,0.0,0.0,0.0,0.0,0.0,0.0,0.0,0.0,0.0,0.0,0.0,0.0,0.0,0.0,0.0,0.0,0.0,0.0,0.0,0.0,0.0,0.0,0.0,0.0,0.0,0.0,0.0,0.0,0.0,0.0,0.0,0.0,0.0,0.0,0.0,0.0,0.0,0.0,0.0,0.0,0.0,0.0,0.0,0.0,0.0,0.0,0.0,0.0,0.0,0.0,0.0,0.0,0.0,0.0,0.0,0.0,0.0,0.0,0.0,0.0,0.0,-2.171,-2.3309,-2.4178,-2.3848,-2.2864,-2.1594,-2.0022,-1.7666,-1.571,-1.4417,0.0,0.0,0.0,0.0,0.0,0.0,0.0,0.0,0.0,0.0,0.0,0.0,0.0,0.0,0.0,0.0,0.0,0.0,0.0,0.0,0.0,0.0,0.0,0.0,0.0,0.0,0.0,0.0,0.0,0.0,0.0,0.0,0.0,0.0,0.0,0.0,0.0,0.0,0.0,0.0,0.0,0.0,0.0,0.0,0.0,0.0,0.0,0.0,0.0,0.0,0.0,0.0,0.0,0.0,0.0,0.0,0.0,0.0,0.0,0.0,0.0,0.0,0.0,0.0,0.0,0.0,0.0,0.0,0.0,0.0,0.0,0.0,0.0,0.0,0.0,0.0,0.0,0.0,0.0,0.0,0.0,0.0,0.0,0.0,0.0,0.0,0.0,0.0,0.0,0.0,0.0,0.0,0.0,0.0,0.0,0.0,0.0,0.0,0.0,0.0,0.0,0.0,-2.2574,-2.3771,-2.4288,-2.3612,-2.2559,-2.1098,-1.9111,-1.7033,-1.5433,-1.4458,0.0,0.0,0.0,0.0,0.0,0.0,0.0,0.0,0.0,0.0,0.0,0.0,0.0,0.0,0.0,0.0,0.0,0.0,0.0,0.0,0.0,0.0,0.0,0.0,0.0,0.0,0.0,0.0,0.0,0.0,0.0,0.0,0.0,0.0,0.0,0.0,0.0,0.0,0.0,0.0,0.0,0.0,0.0,0.0,0.0,0.0,0.0,0.0,0.0,0.0,0.0,0.0,0.0,0.0,0.0,0.0,0.0,0.0,0.0,0.0,-1.917,-1.8067,0.0,0.0,0.0,0.0,0.0,0.0,0.0,0.0,0.0,0.0,0.0,0.0,0.0,0.0,0.0,0.0,0.0,0.0,0.0,0.0,0.0,0.0,0.0,0.0,0.0,0.0,0.0,0.0,0.0,0.0,0.0,0.0,0.0,0.0,0.0,0.0,0.0,0.0,0.0,0.0,-2.3036,-2.3769,-2.3718,-2.2415,-2.1551,-2.0136,-1.7862,-1.6349,-1.5152,-1.4371,-1.2551,0.0,0.0,0.0,0.0,0.0,0.0,0.0,0.0,0.0,0.0,0.0,0.0,0.0,0.0,0.0,0.0,0.0,0.0,0.0,0.0,0.0,0.0,0.0,0.0,0.0,0.0,0.0,0.0,0.0,0.0,0.0,0.0,0.0,0.0,0.0,0.0,0.0,0.0,0.0,0.0,0.0,0.0,0.0,0.0,0.0,0.0,0.0,0.0,0.0,0.0,0.0,0.0,0.0,0.0,0.0,0.0,0.0,0.0,0.0,-2.332,-2.2096,0.0,0.0,0.0,0.0,0.0,0.0,0.0,0.0,0.0,0.0,0.0,0.0,0.0,0.0,0.0,0.0,0.0,0.0,0.0,0.0,0.0,0.0,0.0,0.0,0.0,0.0,0.0,0.0,0.0,0.0,0.0,0.0,0.0,0.0,0.0,0.0,0.0,0.0,0.0,0.0,-2.3368,-2.3736,-2.3282,-2.1558,-2.0717,-1.9291,-1.688,-1.5604,-1.4575,-1.3779,-1.275,0.0,0.0,0.0,0.0,0.0,0.0,0.0,0.0,0.0,0.0,0.0,0.0,0.0,0.0,0.0,0.0,0.0,0.0,0.0,0.0,0.0,0.0,0.0,0.0,0.0,0.0,0.0,0.0,0.0,0.0,0.0,0.0,0.0,0.0,0.0,0.0,0.0,0.0,0.0,0.0,0.0,0.0,0.0,0.0,0.0,0.0,0.0,0.0,0.0,0.0,0.0,0.0,0.0,-2.4687,-2.5743,-2.6849,-2.6963,-2.7345,-2.7771,-2.6794,-2.5781,-2.4848,-2.4064,0.0,0.0,0.0,0.0,0.0,0.0,0.0,0.0,0.0,0.0,0.0,0.0,0.0,0.0,0.0,0.0,0.0,0.0,0.0,0.0,0.0,0.0,-2.2943,-2.3326,-2.3012,-2.234,-2.1392,0.0,0.0,0.0,0.0,0.0,0.0,0.0,0.0,0.0,0.0,0.0,-2.3171,-2.3296,-2.2609,-2.0519,-1.974,-1.8365,-1.5924,-1.4783,-1.3847,-1.3039,-1.2869,-1.2634,0.0,0.0,0.0,0.0,0.0,0.0,0.0,0.0,0.0,0.0,0.0,0.0,0.0,0.0,0.0,0.0,0.0,0.0,0.0,0.0,0.0,0.0,0.0,0.0,0.0,0.0,0.0,0.0,0.0,0.0,0.0,0.0,-0.099,-0.212,0.0,0.0,0.0,0.0,0.0,0.0,0.0,0.0,0.0,0.0,0.0,0.0,0.0,-1.9232,-2.0762,-2.3321,-2.4708,-2.4872,-2.6668,-2.7657,-2.782,-2.8407,-2.8705,-2.8828,-2.8622,0.0,-2.6832,-2.5688,0.0,0.0,0.0,0.0,0.0,0.0,0.0,0.0,0.0,0.0,0.0,0.0,0.0,0.0,0.0,0.0,0.0,0.0,0.0,0.0,0.0,0.0,-2.0745,-2.1332,-2.0414,-1.9486,-1.9792,-2.0602,-2.1164,-2.0698,-1.9829,-1.9469,0.0,0.0,0.0,0.0,0.0,0.0,-2.1525,-2.164,-2.0883,-1.8523,-1.8078,-1.7044,-1.4803,-1.3801,-1.3073,-1.2591,-1.2125,-1.2025,-1.2288,-1.1607,0.0,0.0,0.0,0.0,0.0,0.0,0.0,0.0,0.0,0.0,0.0,0.0,0.0,0.0,0.0,0.0,0.0,0.0,0.0,0.0,0.0,0.0,0.0,0.0,0.0,0.0,0.0,0.0,0.0,0.2847,-0.2469,-0.6585,-0.666,-0.6033,0.0,0.0,0.0,0.0,0.0,0.0,0.0,0.0,0.0,-1.9393,-2.1525,-2.3174,-2.4216,-2.6241,-2.7271,-2.7277,-2.8167,-2.8539,-2.8553,-2.8878,-2.9002,-2.8975,-2.8706,-2.7974,-2.7023,-2.6524,-2.5713,-2.4809,0.0,0.0,0.0,0.0,-2.1724,-2.1554,-2.2203,-2.419,-2.5965,-2.2783,0.0,0.0,0.0,0.0,0.0,0.0,0.0,-2.1024,-2.0852,-2.0675,-2.0656,-2.0898,-2.0217,-1.9583,-1.9823,-1.999,-2.0092,-2.0246,-2.0105,-2.0161,-2.0651,-2.0443,0.0,0.0,0.0,-2.032,-2.0137,-2.025,-1.957,-1.7599,-1.6862,-1.5769,-1.3842,-1.2867,-1.2164,-1.1689,-1.1549,-1.1446,-1.1339,-1.1087,-1.054,0.0,0.0,0.0,0.0,0.0,0.0,0.0,0.0,0.0,0.0,0.0,0.0,0.0,0.0,0.0,0.0,0.0,0.0,0.0,0.0,0.0,0.0,0.0,0.0,0.0,0.0,0.0,0.0,0.2377,-0.3652,-1.0145,-0.9452,-0.8389,0.0,0.0,0.0,0.0,0.0,0.0,-1.7577,-1.8664,-2.0031,-2.1778,-2.4615,-2.6451,-2.7,-2.8007,-2.8478,-2.8363,-2.8363,-2.822,-2.7998,-2.822,-2.7996,-2.7458,-2.7304,-2.6656,-2.5702,-2.6155,-2.5882,-2.5215,-2.4553,-2.3922,-2.3315,-2.3175,-2.3167,-2.3311,-2.4082,-2.4319,-2.3652,-1.9675,-1.9889,-2.1337,-1.9138,0.0,0.0,0.0,0.0,-2.1207,-2.0566,-2.0051,-1.9721,-1.9879,-1.929,-1.8782,-1.8884,-1.8445,-1.8331,-1.9489,-1.9987,-2.0202,-2.0156,-1.9746,0.0,-1.9045,-1.8679,-1.8419,-1.8385,-1.8507,-1.7953,-1.6212,-1.5531,-1.4529,-1.2918,-1.2056,-1.1356,-1.0809,-1.0984,-1.0837,-1.0131,-1.0222,-0.9666,-0.8462,0.0,0.0,0.0,0.0,0.0,0.0,0.0,0.0,0.0,0.0,0.0,0.0,0.0,0.0,0.0,0.0,0.0,0.0,0.0,0.0,0.0,0.0,0.0,0.0,0.0,0.0,0.0,0.0,0.0,-1.1205,-1.1963,0.0,0.0,0.0,0.0,-1.4375,-1.5299,-1.65,-1.825,-2.1317,-2.3827,-2.5624,-2.6977,-2.7491,-2.7264,-2.7611,-2.7351,-2.6658,-2.6658,-2.6151,-2.5217,-2.622,-2.5359,-2.3244,-2.4103,-2.3739,-2.2559,-2.4075,-2.455,-2.4151,-2.3187,-2.3104,-2.3464,-2.2921,-2.3066,-2.3436,-2.3232,-2.1107,-1.8498,-1.9093,-1.9891,-2.0756,-2.0973,-2.0646,0.0,0.0,-2.0429,-2.0322,-1.8888,-1.7473,-1.6576,-1.7105,-1.6052,-1.5119,-1.5597,-1.5313,-1.5773,-1.861,-1.872,-1.8315,-1.8341,0.0,-1.8071,-1.7498,-1.7383,-1.6973,-1.5847,-1.6126,-1.5674,-1.3627,-1.3799,-1.3492,-1.1988,-1.1356,-1.0809,-1.0253,-1.0498,-1.0086,-0.8867,-0.8812,-0.8462,-0.7659,-0.6284,0.0,0.0,0.0,0.0,0.0,0.0,0.0,0.0,0.0,0.0,0.0,0.0,0.0,0.0,0.0,0.0,0.0,0.0,0.0,0.0,0.0,0.0,0.0,0.0,0.0,0.0,0.0,0.0,-1.6616,-1.622,0.0,-1.5584,-1.5239,-1.586,-1.8047,-1.8984,-2.0389,-2.2535,-2.4103,-2.5481,-2.6803,-2.7549,-2.7465,-2.636,-2.6426,-2.5861,-2.4541,-2.4541,-2.4397,-2.4036,-2.4143,-2.3675,-2.2905,-2.2594,-2.2149,-2.1643,-2.1587,-2.2094,-2.288,-2.2524,-2.2147,-2.1722,-2.1549,-2.1551,-2.1553,-2.1081,-1.9629,-1.808,-1.8356,-1.8675,-1.8942,-1.9106,-1.9362,-1.9469,-1.8501,-1.8923,-1.9213,-1.7357,-1.6508,-1.6143,-1.6047,-1.5362,-1.4754,-1.4922,-1.4821,-1.5028,-1.6051,-1.6392,-1.6574,-1.6953,-1.6716,-1.6409,-1.6185,-1.5833,-1.5472,-1.5039,-1.4949,-1.4441,-1.3328,-1.2888,-1.2274,-1.1373,-1.0514,-0.9942,-0.9776,-0.9092,-0.8465,-0.799,-0.7903,-0.7408,-0.6529,-0.6296,-0.5753,0.0,0.0,0.0,0.0,0.0,0.0,0.0,0.0,0.0,0.0,0.0,0.0,0.0,0.0,0.0,0.0,0.0,0.0,0.0,0.0,0.0,0.0,0.0,0.0,0.0,-0.8943,-1.4241,-1.9945,-1.9746,-1.9188,-1.9363,-1.8848,-1.9041,-2.043,-2.1556,-2.2826,-2.4201,-2.5433,-2.6165,-2.6347,-2.6844,-2.6469,-2.53,-2.495,-2.4322,-2.3279,-2.3279,-2.3045,-2.2589,-2.2793,-2.2335,-2.1409,-2.0961,-2.0555,-2.021,-1.9391,-1.9578,-2.0398,-2.0946,-2.0815,-2.0267,-2.0267,-2.0234,-1.9989,-1.8666,-1.7656,-1.7068,-1.7207,-1.7614,-1.788,-1.7314,-1.7552,-1.7803,-1.686,-1.6638,-1.6427,-1.5071,-1.4934,-1.4997,-1.4419,-1.3924,-1.3595,-1.3443,-1.3365,-1.3402,-1.3385,-1.4547,-1.5482,-1.5515,-1.5137,-1.472,-1.4306,-1.3772,-1.3385,-1.3385,-1.3053,-1.2645,-1.2095,-1.1416,-1.0794,-1.0273,-0.9707,-0.9159,-0.8699,-0.8084,-0.7442,-0.6727,-0.6728,-0.6341,-0.5462,-0.5707,-0.5538,-0.4853,0.0,0.0,0.0,0.0,0.0,0.0,0.0,0.0,0.0,0.0,0.0,0.0,0.0,0.0,0.0,0.0,0.0,0.0,0.0,0.0,0.0,0.0,0.0,-0.9531,-1.3506,-1.7722,-2.0941,-2.2438,-2.2954,-2.2292,-2.1934,-2.167,-2.1329,-2.2663,-2.3379,-2.2965,-2.5102,-2.5822,-2.4442,-2.4763,-2.4679,-2.4175,-2.3329,-2.2857,-2.2786,-2.2786,-2.2105,-2.0776,-2.2116,-2.1257,-1.8603,-1.9173,-1.8844,-1.7891,-1.7482,-1.6977,-1.6682,-1.8529,-1.9165,-1.9146,-1.9146,-1.9146,-1.8812,-1.6024,-1.513,-1.5178,-1.5617,-1.6741,-1.7552,-1.5886,-1.5377,-1.5464,-1.5487,-1.3912,-1.2233,-1.2204,-1.2589,-1.2788,-1.2078,-1.1659,-1.1325,-1.0922,-1.0806,-1.0781,-1.0797,-1.3293,-1.5008,-1.3889,-1.3618,-1.3142,-1.1959,-1.1216,0.0,-1.0813,-1.054,-1.0231,-0.9744,-0.947,-0.9148,-0.8766,-0.8921,-0.8442,-0.7105,-0.7628,-0.7083,-0.4968,-0.5251,-0.5164,-0.4574,-0.4574,-0.4897,-0.5597,0.0,0.0,0.0,0.0,0.0,0.0,0.0,0.0,0.0,0.0,0.0,0.0,0.0,0.0,0.0,0.0,0.0,0.0,0.0,0.0,0.0,-1.2219,-1.6048,-1.635,-2.0056,-2.3884,-2.6757,-2.618,-2.5439,-2.5246,-2.4111,-2.333,-2.3238,-2.3956,-2.4128,-2.3367,-2.3927,-2.3854,-2.2852,-2.2948,-2.2599,-2.1747,-2.15,-2.1016,-2.0308,-2.0308,-2.0102,-1.9703,-1.9768,-1.897,-1.7592,-1.7436,-1.6738,-1.5591,-1.5486,-1.5271,-1.5126,-1.6724,-1.679,-1.5974,-1.5974,-1.6222,-1.6188,-1.3899,-1.3515,-1.4074,-1.4158,-1.4706,-1.5251,-1.4731,-1.463,-1.4667,-1.4888,-1.4072,-1.3081,-1.2362,-1.262,-1.2727,-1.1714,-1.1014,-1.0604,-1.0754,-1.0797,-1.0788,-1.0813,-1.1486,-1.1963,-1.1665,-1.1586,-1.1479,-1.1124,-1.0914,-1.0813,-1.0813,-1.0268,-0.9955,-1.0072,-0.953,-0.9128,-0.8986,-0.831,-0.766,-0.7183,-0.6287,-0.5558,-0.5089,-0.4846,-0.5144,-0.6,-0.5698,-0.6296,0.0,0.0,0.0,0.0,0.0,0.0,0.0,0.0,0.0,0.0,0.0,0.0,0.0,0.0,0.0,0.0,0.0,0.0,0.0,0.0,0.0,0.0,-1.7153,-2.0885,-2.3155,-2.5465,-2.7442,-2.8937,-2.7743,-2.6514,-2.5918,-2.5043,-2.4249,-2.3653,-2.3827,-2.3422,-2.2325,-2.2313,-2.1799,-2.0717,-2.1062,-2.0893,-2.0196,-2.0012,-1.9565,-1.9014,-1.8644,-1.8322,-1.8142,-1.7639,-1.6982,-1.6158,-1.5695,-1.5129,-1.4513,-1.4289,-1.3999,-1.3866,0.0,0.0,0.0,0.0,-1.4288,-1.4446,-1.2571,-1.2244,-1.2691,-1.2691,-1.3189,-1.3677,-1.3123,-1.3362,-1.3648,-1.314,-1.268,-1.2187,-1.1473,-1.1631,-1.1744,-1.0678,-1.0023,-0.9673,-0.9895,-0.9984,-0.9969,-0.9955,-0.9984,0.0,-0.9533,-0.9997,-1.0364,-1.0364,-1.0167,-0.9969,-0.9969,-0.9505,-0.9107,-0.8904,-0.8405,-0.7917,-0.7558,-0.7064,0.0,0.0,0.0,-0.5068,-0.4854,-0.4638,0.0,0.0,0.0,-0.6445,-0.7895,-0.7954,0.0,0.0,-1.1233,-1.2926,0.0,0.0,0.0,0.0,0.0,0.0,0.0,0.0,0.0,0.0,0.0,0.0,0.0,0.0,0.0,0.0,-2.0771,-2.4284,-2.8536,-2.8972,-2.894,-2.9027,-2.7996,-2.6748,-2.5461,-2.504,-2.4403,-2.3142,-2.2718,-2.1899,-2.056,-2.0462,0.0,0.0,0.0,-1.9463,-1.8909,-1.854,-1.8247,-1.8129,-1.7312,-1.6687,-1.6303,-1.5905,-1.5267,-1.4476,-1.4089,-1.3933,-1.386,-1.334,-1.2863,-1.2454,-1.3481,-1.3884,-1.3671,-1.2806,-1.2823,-1.3101,-1.1741,0.0,0.0,-1.1051,-1.1729,-1.2291,-1.1161,-1.1623,-1.2243,-1.098,-1.0511,-1.0368,-1.0146,-1.0132,-1.0027,-0.9213,-0.8802,-0.8553,-0.8618,-0.8579,-0.8553,-0.8611,-0.8632,-0.8434,-0.7717,-0.8659,-0.9555,-0.9444,-0.8942,-0.854,-0.854,-0.8339,-0.7872,-0.7108,-0.6754,0.0,-0.5478,-0.5736,-0.5591,-0.4794,-0.5155,-0.5109,-0.4515,-0.4519,-0.4519,-0.4625,-0.5218,-0.5869,-0.6588,-0.7235,-0.8671,-1.0733,-1.1888,-1.3714,0.0,0.0,0.0,0.0,0.0,0.0,0.0,0.0,0.0,0.0,0.0,0.0,0.0,0.0,0.0,-2.082,-2.32,-2.5442,-2.6851,-2.7275,-2.8227,-3.0199,-2.8741,-2.7362,-2.6601,-2.4808,-2.3446,-2.2811,-2.1985,-2.0897,-1.9649,-1.9562,-1.9085,-1.8125,-1.8262,-1.7842,-1.6733,-1.6649,-1.6111,-1.5141,-1.5172,0.0,-1.4771,-1.4865,-1.432,-1.3269,-1.314,-1.255,-1.1591,-1.0791,-0.9867,-0.9148,-1.0955,-1.1188,-1.0505,-0.9838,-1.0271,-1.1145,-1.0855,-0.9838,-0.8679,-0.8679,-0.9094,-0.9569,-0.9332,-0.9444,0.0,-1.0406,-0.9891,-0.9332,-1.0236,-0.9271,-0.8094,-0.816,-0.7549,-0.7139,-0.7561,-0.7322,-0.7133,-0.758,-0.7651,-0.7484,-0.6934,-0.7534,-0.7925,-0.7331,-0.7122,-0.702,-0.702,-0.6806,-0.6659,-0.6712,-0.6457,-0.6197,-0.6057,-0.5682,-0.5306,-0.5064,-0.4824,-0.4625,-0.4519,-0.4519,-0.4732,-0.5269,-0.5433,-0.5869,-0.6588,-0.675,-0.7798,-0.9708,-1.0775,-1.2133,0.0,0.0,0.0,0.0,0.0,0.0,0.0,0.0,0.0,0.0,0.0,-1.5292,0.0,0.0,-2.0607,-2.2541,-2.3829,-2.5072,-2.6607,-2.6769,-2.7172,-2.8064,-2.6783,-2.5667,-2.5132,-2.4026,-2.3029,-2.235,-2.1485,-2.0381,-1.8947,-1.8319,-1.7531,-1.6655,-1.6585,-1.618,-1.5434,-1.5425,-1.5033,-1.4287,-1.3937,-1.3727,-1.3568,-1.3195,-1.2412,-1.1323,-1.1323,-1.0618,-0.945,-0.9051,-0.8521,-0.8102,-0.9131,-0.9254,-0.8788,-0.8504,-0.8799,-0.9244,-0.8936,-0.7907,-0.672,-0.672,-0.7265,-0.7822,-0.727,-0.7474,-0.8166,-0.9015,-0.8084,-0.6998,-0.7772,-0.7032,-0.6156,-0.6738,-0.6196,-0.5729,-0.6495,-0.6081,-0.5783,-0.6529,-0.6284,-0.599,-0.6063,-0.6342,-0.6622,-0.6583,-0.6588,-0.6588,-0.6588,-0.6488,-0.6259,-0.6,-0.5849,-0.5589,-0.514,-0.4864,-0.4748,-0.4778,-0.4587,-0.4522,-0.4525,-0.4522,-0.468,-0.5003,-0.5324,-0.5706,-0.6036,-0.6421,-0.7187,-0.8243,-0.8777,-1.0357,0.0,0.0,0.0,0.0,0.0,0.0,0.0,0.0,-1.0419,-1.3703,-1.3911,-1.43,-1.693,-1.7863,-1.9301,-2.2751,-2.2931,-2.3396,-2.5367,-2.5307,-2.4934,-2.4458,-2.4162,-2.3678,-2.294,-2.266,-2.2157,-2.1236,-2.0389,-1.9332,-1.7938,-1.686,-1.6,-1.5234,-1.5168,-1.4882,-1.4383,-1.431,-1.403,-1.355,-1.2846,-1.238,-1.2181,-1.1445,-1.0429,-0.9374,-0.9374,-0.8723,-0.7762,-0.7762,-0.7637,-0.7507,-0.7507,-0.7507,-0.7507,-0.7767,-0.7702,-0.7437,-0.6959,-0.614,-0.5397,-0.5397,-0.6005,-0.6616,-0.5665,-0.6071,-0.6889,-0.7372,-0.6277,-0.5061,-0.5168,-0.4893,-0.4685,-0.5449,-0.5066,-0.4732,-0.5492,-0.5023,-0.4732,-0.5492,-0.5004,-0.4653,-0.5206,-0.5316,-0.5534,-0.6095,-0.6209,-0.6209,-0.6209,-0.6209,-0.5927,-0.5194,-0.5125,-0.4863,-0.4172,-0.4174,-0.4348,-0.4477,-0.4245,-0.4187,-0.4484,-0.4473,-0.4525,-0.4525,-0.5007,-0.5332,-0.5332,-0.5878,-0.6404,-0.6793,-0.6793,-0.8504,0.0556,-0.0642,-0.3338,-0.5195,-0.6798,-0.8108,0.0,0.0,-1.0551,-1.2628,-1.4607,-1.6458,-1.8064,-1.9283,-2.0181,-2.0295,-2.0314,-2.0264,-2.03,-2.0305,-2.0262,-2.0219,-2.2347,-2.3154,-2.1516,-2.0292,-1.9381,-1.8665,-1.7424,-1.6368,-1.5601,-1.5463,-1.5305,-1.5234,-1.4919,-1.4239,-1.3103,-1.2798,-1.2099,-1.1037,-1.1177,-1.0699,-0.9685,-0.9856,-0.9279,-0.8192,-0.8192,-0.7657,-0.685,-0.685,-0.64,-0.5686,-0.5686,-0.5686,-0.5818,-0.6802,-0.6539,-0.5686,-0.562,-0.5484,-0.5415,-0.5415,-0.5484,-0.555,-0.5415,-0.5484,-0.562,-0.5686,-0.5503,-0.5217,-0.4751,-0.4548,-0.4521,-0.4657,-0.4563,-0.4508,-0.4625,-0.4567,-0.4508,-0.4625,-0.4563,-0.4505,-0.4625,-0.4625,-0.4622,-0.4736,-0.4736,-0.4736,-0.4736,-0.4736,-0.4677,-0.4618,-0.4615,-0.456,-0.4443,-0.446,-0.4477,-0.4494,-0.3241,-0.3072,-0.4438,-0.4494,-0.4494,-0.4494,-0.4591,-0.4588,-0.4588,-0.4684,-0.5069,-0.5681,-0.5681,-0.6562,0.5052,0.2382,-0.125,0.0,-0.5383,-0.8538,-0.8664,-0.8947,-0.9855,-1.2297,-1.3575,-1.4573,-1.5353,-1.5878,-1.6484,0.0,-1.6874,-1.7147,-1.8551,-1.8527,-1.8041,-1.7409,-1.8395,-1.9289,-1.9687,-1.9169,-1.8411,-1.7749,-1.6773,-1.578,-1.478,-1.4308,-1.3807,-1.3312,-1.2925,-1.2473,-1.1769,-1.1643,-1.103,-0.9856,-0.9968,-0.9497,-0.8554,-0.8652,-0.8179,-0.7242,-0.6728,-0.6272,-0.5943,-0.5943,-0.5752,-0.5428,-0.5428,-0.5428,-0.5428,-0.5951,-0.5822,-0.5428,-0.5428,-0.5428,-0.5428,-0.5428,-0.5428,-0.5428,-0.5428,-0.5428,-0.5428,-0.5428,-0.5257,-0.4996,-0.462,-0.4497,-0.4482,-0.4477,-0.4519,-0.4519,-0.4519,-0.4519,-0.4519,-0.4525,-0.4522,-0.4522,-0.448,-0.4484,-0.4484,-0.4484,-0.4477,-0.4473,-0.448,-0.4484,-0.4141,-0.3239,-0.3183,-0.3183,-0.3188,-0.3188,-0.353,-0.4448,-0.3077,-0.212,-0.1899,-0.2683,-0.3188,-0.3188,-0.3183,-0.358,-0.449,-0.4484,-0.4646,-0.4916,-0.4916,-0.5214,0.7706,0.4945,0.0,0.0911,-0.2953,-0.668,-0.7112,-0.7928,-0.9283,-1.1425,-1.1773,-1.2103,-1.3151,-1.328,-1.3474,-1.4073,-1.397,-1.4542,-1.6224,-1.6177,-1.5584,-1.4772,-1.4684,-1.5263,-1.6718,-1.6603,-1.6218,-1.5573,-1.4837,-1.4019,-1.3051,-1.2469,-1.1813,-1.1095,-1.0754,-1.0523,-1.0315,-1.024,-0.9776,-0.8941,-0.8941,-0.8484,-0.7637,-0.7377,-0.692,-0.6334,-0.5686,-0.5428,-0.5428,-0.5428,-0.5428,-0.5432,-0.5432,-0.5369,-0.5372,-0.5372,-0.5369,-0.5432,-0.5369,-0.5372,-0.5372,-0.5372,-0.5372,-0.5372,-0.5372,-0.5372,-0.5428,-0.5387,-0.5222,-0.4972,-0.4699,-0.4581,-0.4521,-0.448,-0.4473,-0.4473,-0.4473,-0.4522,-0.4522,-0.448,-0.4135,-0.3852,-0.3866,-0.3872,-0.3987,-0.4445,-0.4494,-0.432,-0.3925,-0.4216,-0.4045,-0.2965,-0.2066,-0.1619,-0.1619,-0.1619,-0.2069,-0.3203,-0.2238,-0.1117,-0.0056,-0.1005,-0.1619,-0.1619,-0.1618,-0.2122,-0.3249,-0.3644,-0.3869,-0.3869,-0.3869,-0.3869,0.814,0.0,0.667,0.317,0.0812,-0.1252,-0.3293,-0.6391,-0.905,-0.9398,-0.92,-0.9866,-1.2796,-1.331,-1.2904,-1.1827,-1.2177,-1.2542,-1.2109,-1.2042,-1.2042,-1.2042,-1.2042,-1.2037,0.0,-1.1723,-1.1364,-1.1038,-1.0396,-0.9905,-0.9478,-0.9442,-0.9232,-0.892,-0.8764,-0.8587,-0.8493,-0.8209,-0.8096,-0.8027,-0.8027,-0.7567,-0.6719,-0.5881,-0.5491,-0.5428,-0.5428,-0.5428,-0.5428,-0.5428,-0.5369,-0.5379,-0.5379,-0.5386,-0.5393,-0.5393,-0.5386,-0.5379,-0.5389,-0.5393,-0.5393,-0.5393,-0.5393,-0.5393,-0.5393,-0.5393,-0.5432,-0.5413,-0.5371,-0.5304,-0.4991,-0.4724,-0.45,-0.4472,-0.4494,-0.4494,-0.4494,-0.4477,-0.4525,-0.449,-0.3299,-0.2287,-0.2287,-0.2291,-0.2802,-0.4284,-0.4514,-0.3937,-0.2456,-0.3591,-0.4458,-0.4455,-0.1794,-0.0056,-0.0056,-0.0056,-0.0112,-0.0112,-0.0112,-0.0056,-0.0,-0.0056,-0.0056,-0.0056,-0.0056,-0.0112,-0.0168,-0.1562,-0.2287,-0.2287,-0.2287,-0.2287,1.0074,0.0,0.7465,0.6339,0.5634,0.437,0.1066,-0.1499,-0.3643,-0.508,-0.5667,-0.6884,-0.9793,-0.8793,-0.7969,-0.9568,-0.9835,-0.9709,-0.9324,-0.9284,-0.9694,-1.0923,-1.1025,0.0,0.0,0.0,0.0,-1.0786,-1.0238,-0.9751,-0.9322,-0.9018,-0.8715,-0.8543,-0.8327,-0.8149,-0.8139,-0.8062,-0.7702,-0.7111,-0.6531,-0.6145,-0.5815,-0.5564,-0.5372,-0.5372,-0.5379,-0.5382,-0.5382,-0.5382,-0.5386,-0.5252,-0.4092,-0.362,-0.3758,-0.4925,-0.5403,-0.5399,-0.5396,-0.3825,-0.1804,-0.1804,-0.1804,-0.2072,-0.3215,-0.3623,-0.36,-0.3628,-0.3617,-0.3596,-0.3448,-0.318,-0.2947,-0.297,-0.3755,-0.4209,-0.3188,-0.2227,-0.2115,-0.4104,-0.2462,-0.0726,-0.0727,-0.2413,-0.3893,-0.4412,-0.2811,-0.1345,-0.0783,-0.1176,-0.1514,-0.1514,-0.0617,-0.0,-0.0,-0.0,-0.0,-0.0,-0.0,-0.0,-0.0,-0.0,-0.0,-0.0,-0.0,-0.0,-0.0,-0.0503,-0.0727,-0.0727,-0.0727,-0.1287,1.1636,1.0127,0.8796,0.8496,0.8216,0.7296,0.4957,0.3427,0.1981,-0.0211,-0.1458,-0.2576,-0.4131,-0.4336,-0.4595,-0.5654,-0.6528,-0.6962,-0.66,-0.658,-0.7009,-0.8117,-0.9053,-0.9271,0.0,0.0,0.0,-0.9635,-0.9167,-0.8666,-0.828,-0.789,-0.7624,-0.7423,-0.7225,-0.7127,-0.7055,-0.706,-0.6802,-0.6218,-0.5701,-0.5372,-0.5372,-0.5382,-0.5043,-0.4428,-0.4434,-0.4436,-0.4434,-0.4455,-0.4844,-0.5259,-0.4111,-0.3243,-0.2917,-0.4715,-0.5426,-0.5218,-0.3909,-0.1946,-0.0,-0.0,-0.0,-0.0201,-0.1408,-0.1744,-0.1734,-0.1749,-0.1712,-0.1735,-0.1721,-0.156,-0.1417,-0.14,-0.2151,-0.2634,-0.1651,-0.0675,-0.056,-0.2507,-0.1298,-0.0,-0.0,-0.1628,-0.2871,-0.2871,-0.0336,0.1233,0.0112,-0.0,-0.0,-0.0,-0.0,-0.0,-0.0,-0.0,0.0449,0.1514,0.0617,-0.0,-0.0,-0.0,0.0505,0.1569,0.0561,0.028,0.0783,0.1344,0.1344,0.0783,0.0224,-0.0504,1.2647,1.1612,1.0522,0.9548,0.8505,0.777,0.797,0.7969,0.7241,0.4719,0.3219,0.2665,0.0,0.0,-0.2414,-0.0477,-0.2408,-0.3981,-0.3818,-0.3713,-0.3665,0.0,0.0,0.0,0.0,0.0,0.0,-0.7594,-0.718,-0.6797,-0.6488,-0.6196,-0.5901,-0.5599,-0.5589,-0.5515,-0.5428,-0.5306,-0.5249,-0.5259,-0.5259,-0.5259,-0.5259,-0.5329,-0.4439,-0.2811,-0.2674,-0.2539,-0.2533,-0.2591,-0.3604,-0.5138,-0.5138,-0.4086,-0.2796,-0.45,-0.5097,-0.461,-0.1213,-0.0,-0.0,-0.0,-0.0,-0.0,-0.0,-0.0,-0.0,-0.0,-0.0,0.0064,0.018,0.0118,-0.0,-0.0,-0.0,-0.0,-0.0,-0.0,0.0057,0.0176,0.023,0.0224,0.0112,0.0112,0.0112,0.0112,0.2525,0.3373,0.0561,0.0168,0.0112,0.0112,0.0112,0.0112,0.0112,0.0112,0.1345,0.4225,0.1793,0.0168,0.0112,0.0112,0.1457,0.434,0.1625,0.0895,0.223,0.3764,0.3764,0.2287,0.0893,0.0168,1.1986,1.0663,0.9388,0.9151,0.8232,0.7312,0.7506,0.774,0.7801,0.6964,0.6443,0.6206,0.0,0.0,0.0,0.3042,0.2339,0.0,-0.0793,0.0692,0.0,-0.0787,0.0,-0.2835,-0.4829,-0.497,0.0,0.0,-0.7136,-0.6797,-0.6488,-0.6302,-0.6013,-0.5603,-0.5589,-0.5521,-0.5376,-0.4087,-0.3416,-0.3418,-0.3418,-0.3418,-0.342,-0.4785,-0.5132,-0.4579,-0.1841,-0.0717,-0.0715,-0.0694,-0.0948,-0.1356,-0.1356,-0.1098,-0.0713,-0.1202,-0.1398,-0.1245,-0.0334,-0.0,-0.0,-0.0,-0.0,-0.0,-0.0,-0.0,-0.0,-0.0,-0.0,0.0495,0.2741,0.1678,-0.0,-0.0,-0.0,-0.0,-0.0,-0.0,0.0685,0.2909,0.3338,0.2974,0.1843,0.1619,0.1619,0.1619,0.2291,0.2912,0.3317,0.235,0.1619,0.1619,0.1619,0.1619,0.1619,0.1619,0.1955,0.274,0.3137,0.2854,0.1673,0.1618,0.2011,0.2796,0.3137,0.2965,0.223,0.3758,0.4271,0.3925,0.353,0.2124,1.154,1.0062,0.85,0.8613,0.7708,0.6888,0.7041,0.7624,0.8184,0.8321,0.8555,0.0,0.8746,0.8055,0.0,0.0,0.0,0.0,0.3731,0.3826,0.3831,0.0,0.2355,0.0,-0.048,-0.0944,-0.2046,0.0,-0.6094,-0.709,-0.6781,-0.6479,-0.6208,-0.5946,-0.5661,-0.5494,-0.5426,-0.44,-0.3088,-0.1543,-0.1543,-0.1543,-0.1543,-0.2557,-0.3032,-0.2893,-0.085,-0.0,-0.0,-0.0,-0.0,-0.0,-0.0,-0.0,0.0194,0.1799,0.24,0.2241,0.147,0.1209,0.1344,0.2087,0.2357,0.2223,0.1412,0.1209,0.1205,0.1185,0.1082,0.1349,0.3079,0.2817,0.1774,0.0343,0.1225,0.2374,0.2345,0.2171,0.2061,0.2469,0.3607,0.4222,0.3377,0.322,0.3188,0.3188,0.3183,0.3522,0.4383,0.3755,0.3188,0.3188,0.3188,0.3188,0.3188,0.3188,0.3186,0.3183,0.4036,0.4095,0.3239,0.3186,0.3186,0.3183,0.4039,0.4092,0.3231,0.4086,0.4487,0.448,0.4487,0.358,1.11,0.9519,0.7862,0.7761,0.7122,0.6478,0.6614,0.7533,0.8524,0.8895,0.0,1.0497,1.0656,0.9121,0.7865,0.8059,0.0,0.8419,0.8365,0.6415,0.5797,0.769,0.5709,0.4078,0.4062,0.3458,0.2469,0.1006,-0.3507,-0.6328,-0.6595,-0.618,-0.6035,-0.6289,-0.5698,-0.5428,-0.5387,-0.4894,-0.3117,-0.0,-0.0,-0.0,-0.0,-0.0,-0.0,-0.0,-0.0,-0.0,0.0067,0.0489,0.0671,0.0576,0.0374,0.0314,0.0708,0.3916,0.5176,0.5176,0.362,0.3082,0.3284,0.4584,0.5205,0.5132,0.3556,0.3082,0.3082,0.3082,0.2838,0.2597,0.2595,0.3758,0.421,0.1354,0.3075,0.5407,0.5424,0.4935,0.3742,0.1125,0.2738,0.4558,0.449,0.4478,0.449,0.449,0.4484,0.4477,0.4477,0.4487,0.449,0.449,0.449,0.449,0.449,0.449,0.4487,0.4477,0.4487,0.4487,0.4477,0.4487,0.4487,0.4477,0.4487,0.4484,0.4519,0.4473,0.4473,0.4519,0.4473,0.4477,0.949,0.8248,0.7175,0.6725,0.6433,0.6305,0.6332,0.7453,0.0,0.0,0.9535,1.0403,1.0344,1.0058,0.9967,1.0248,1.0386,1.0478,1.0219,1.036,0.979,0.0,0.723,0.6848,0.6494,0.634,0.0,0.0,0.2993,-0.0344,-0.403,-0.408,-0.4766,-0.6245,-0.5715,-0.5409,-0.5387,-0.2401,-0.0627,-0.0,-0.0,-0.0,-0.0,-0.0,-0.0,-0.0,-0.0,-0.0,0.0259,0.322,0.4174,0.3616,0.2345,0.1974,0.2302,0.2951,0.4094,0.5359,0.5011,0.4916,0.4709,0.3556,0.4167,0.5329,0.5052,0.4916,0.4916,0.4916,0.4866,0.4801,0.4662,0.4758,0.4786,0.4342,0.4822,0.541,0.5403,0.4921,0.4397,0.4111,0.4463,0.4733,0.4539,0.4509,0.4522,0.4522,0.4522,0.4522,0.4522,0.4522,0.4522,0.4522,0.4522,0.4522,0.4522,0.4522,0.4522,0.4522,0.4522,0.4522,0.4522,0.4522,0.4522,0.4522,0.4522,0.4522,0.4519,0.4519,0.4519,0.4519,0.4519,0.4525,1.0581,0.9269,0.7824,0.7004,0.6895,0.6866,0.6779,0.0,0.0,0.0,1.0941,1.1869,1.1958,1.1573,0.0,1.1295,1.1481,1.1449,1.0957,1.1847,0.0,0.9862,0.9562,0.9404,0.9076,0.8966,0.8341,0.7031,0.5728,0.3498,0.0084,-0.1144,-0.2148,-0.3013,-0.4853,-0.4832,-0.2625,-0.0842,-0.0,-0.0,-0.0,-0.0,-0.0,-0.0,-0.0,0.0135,0.1998,0.2615,0.2445,0.351,0.4275,0.4655,0.3887,0.3721,0.3864,0.404,0.4677,0.5422,0.5422,0.5379,0.5243,0.4356,0.4697,0.5386,0.5379,0.5379,0.5379,0.5379,0.5332,0.5212,0.5142,0.5031,0.5043,0.5102,0.5234,0.536,0.5283,0.5125,0.4974,0.4904,0.4918,0.4793,0.4562,0.4505,0.4519,0.4519,0.4519,0.4519,0.4519,0.4519,0.4519,0.4519,0.4519,0.4519,0.4519,0.4519,0.4519,0.4519,0.4519,0.4519,0.4519,0.4519,0.4519,0.4519,0.4519,0.4519,0.4519,0.4519,0.4519,0.4519,0.4545,0.4582,1.2776,1.1333,0.958,0.8312,0.8084,0.807,0.7553,0.8534,0.0,0.0,1.215,1.318,1.3407,0.0,1.2212,0.0,1.2422,1.2638,1.2377,1.3397,1.3786,0.0,1.2539,0.0,1.1149,1.0911,0.0,0.7735,0.7238,0.6068,0.3914,0.1748,0.0543,0.0545,-0.261,-0.2987,-0.0,-0.0,-0.0,-0.0,-0.0,-0.0,-0.0,-0.0,-0.0,0.0135,0.2994,0.4321,0.44,0.3561,0.3824,0.49,0.4911,0.4967,0.4987,0.5222,0.5345,0.5372,0.5432,0.5342,0.5318,0.5418,0.5369,0.5372,0.5432,0.5428,0.5428,0.5428,0.5274,0.5179,0.5179,0.5179,0.5179,0.5179,0.5274,0.5328,0.5206,0.5277,0.5291,0.506,0.4954,0.49,0.4953,0.488,0.4842,0.4956,0.4791,0.4791,0.4956,0.4791,0.4787,0.4956,0.468,0.4519,0.4519,0.4519,0.4519,0.4519,0.4625,0.4736,0.4736,0.4846,0.4901,0.4736,0.4846,0.4791,0.4519,0.4625,0.4643,0.457,0.4633,0.4707,1.5339,1.4198,1.2885,1.0863,1.0376,1.0058,0.8781,0.0,0.0,1.0682,1.1795,1.2876,1.2903,1.2769,0.0,0.0,0.0,1.4786,1.614,1.7121,1.7375,1.6338,0.0,0.0,1.2322,1.1879,1.1161,0.9937,0.8607,0.7304,0.6044,0.3734,0.2421,0.2422,0.2062,0.1306,-0.0,-0.0,-0.0,-0.0,-0.0,-0.0,-0.0,-0.0,-0.0,-0.0,0.0381,0.2015,0.4528,0.464,0.4758,0.4826,0.5018,0.5068,0.5075,0.5148,0.5243,0.5428,0.5428,0.527,0.5176,0.5315,0.5428,0.5428,0.5428,0.5428,0.5428,0.5428,0.5418,0.5342,0.5342,0.5342,0.5342,0.5342,0.5418,0.5425,0.5345,0.5418,0.5418,0.5391,0.5125,0.5229,0.6245,0.5992,0.5855,0.6332,0.5828,0.5651,0.6312,0.5819,0.5651,0.6317,0.5281,0.4519,0.4519,0.4519,0.4519,0.4519,0.5058,0.5433,0.5433,0.6036,0.6091,0.5433,0.6041,0.5773,0.4519,0.5109,0.5139,0.467,0.4684,0.4765,1.953,1.7948,1.6024,1.449,1.2712,1.1384,1.1357,0.0,1.152,1.2006,1.2907,1.3492,1.2898,1.2822,1.2808,0.0,0.0,0.0,1.5397,1.727,1.8404,1.787,1.8054,0.0,0.0,0.0,1.385,1.1558,0.9601,0.8187,0.7567,0.5738,0.4577,0.4365,0.4326,0.3982,0.3268,0.214,0.1634,0.1637,0.054,-0.0,-0.0,-0.0,-0.0,-0.0,-0.0,0.1186,0.3243,0.4516,0.4897,0.476,0.5145,0.5213,0.5142,0.5237,0.5308,0.5415,0.5254,0.5243,0.5264,0.5233,0.5284,0.5428,0.5428,0.5428,0.5428,0.5428,0.5428,0.5428,0.5428,0.5428,0.5428,0.5428,0.5428,0.5428,0.5428,0.5404,0.5389,0.5389,0.529,0.5586,0.6699,0.6837,0.6754,0.6593,0.6357,0.6258,0.6588,0.6367,0.6258,0.6588,0.571,0.5277,0.5719,0.5332,0.5273,0.5714,0.6041,0.6145,0.6145,0.6421,0.6253,0.5542,0.5879,0.5772,0.5109,0.5493,0.5867,0.612,0.6236,0.6096,2.3462,2.1901,1.9895,1.8204,1.5931,1.3998,0.0,0.0,1.3009,1.3324,1.3991,1.4311,1.3643,1.3422,1.3174,0.0,0.0,1.4564,1.5104,1.7304,1.9161,0.0,0.0,2.0032,1.9137,1.7325,1.5174,1.2673,1.0545,0.9162,0.8805,0.7236,0.6193,0.583,0.5821,0.5675,0.5408,0.4134,0.3485,0.3487,0.221,0.1339,0.0803,0.0806,0.0728,0.0645,0.0772,0.1622,0.3106,0.4597,0.502,0.4857,0.522,0.5294,0.5213,0.5321,0.5332,0.5277,0.5169,0.5176,0.522,0.5152,0.5206,0.5301,0.5415,0.5428,0.5428,0.5428,0.5428,0.5428,0.5428,0.5428,0.5428,0.5428,0.5428,0.5495,0.5822,0.5906,0.6062,0.6578,0.6527,0.6698,0.7638,0.7724,0.7616,0.73,0.7058,0.702,0.7235,0.7074,0.702,0.7235,0.6578,0.6253,0.6588,0.6145,0.6036,0.6588,0.6804,0.6912,0.6912,0.7128,0.6939,0.6284,0.6656,0.6582,0.6099,0.6473,0.6866,0.7285,0.7374,0.7201,2.672,2.6094,2.4758,2.1894,2.0254,1.862,0.0,0.0,1.53,1.428,1.4668,1.5171,1.5171,1.4805,1.4335,1.3757,0.0,0.0,1.6221,1.8009,2.0183,0.0,0.0,2.2641,2.1155,1.735,1.4537,1.3359,1.1687,1.0422,0.9722,0.8148,0.7145,0.686,0.6755,0.6276,0.5379,0.5379,0.5382,0.5396,0.5329,0.4436,0.2678,0.2678,0.2505,0.2184,0.2501,0.3472,0.4819,0.522,0.5272,0.5142,0.5298,0.5425,0.5425,0.5428,0.5264,0.5131,0.5131,0.504,0.4948,0.5084,0.5131,0.5162,0.5315,0.5428,0.5428,0.5428,0.5428,0.5428,0.5428,0.5428,0.5428,0.5428,0.5428,0.569,0.6868,0.7064,0.7601,0.9303,0.9186,0.8894,0.9279,0.8812,0.8453,0.8751,0.8156,0.7937,0.8699,0.8156,0.7996,0.8699,0.8103,0.7402,0.6642,0.6588,0.6588,0.6588,0.7289,0.767,0.767,0.8374,0.8609,0.8155,0.8843,0.8632,0.7472,0.8187,0.8246,0.7675,0.7675,0.7802,2.7417,2.6504,2.5022,2.3716,2.1162,1.8874,1.857,0.0,1.5826,1.5697,1.5716,1.5549,1.5255,1.4796,1.4527,1.468,1.4579,0.0,0.0,0.0,0.0,2.2532,2.2936,2.2069,0.0,0.0,1.4888,1.3355,1.1824,1.0574,0.9736,0.9191,0.8459,0.7319,0.663,0.6104,0.5802,0.531,0.5114,0.5213,0.5188,0.499,0.4558,0.4552,0.4493,0.4382,0.4249,0.4499,0.5013,0.5287,0.5272,0.5145,0.5301,0.5428,0.5428,0.5428,0.5332,0.5274,0.5169,0.5101,0.507,0.5114,0.5131,0.5159,0.5315,0.5428,0.5491,0.6141,0.6268,0.6268,0.6268,0.6268,0.6137,0.5557,0.5428,0.569,0.6597,0.7555,0.8408,0.8994,0.9592,0.9968,0.9818,0.9174,0.8738,0.9053,0.8695,0.8533,0.8752,0.8593,0.8533,0.8752,0.8762,0.8578,0.8115,0.7616,0.7563,0.8049,0.8321,0.8511,0.8703,0.8934,0.8899,0.8485,0.8776,0.8693,0.8257,0.8597,0.8968,0.9309,0.8988,0.8798,0.0,2.7349,2.6583,2.5821,2.3248,0.0,0.0,0.0,1.7472,1.6819,1.6675,1.6412,1.5877,1.5402,1.5129,1.524,1.4858,1.499,0.0,0.0,0.0,2.2246,0.0,0.0,0.0,1.6367,1.446,1.3058,1.1694,1.0545,0.9744,0.9472,0.896,0.8153,0.7086,0.6349,0.5992,0.5279,0.4962,0.505,0.5034,0.5092,0.5203,0.5188,0.5178,0.5123,0.5038,0.5004,0.0,0.5279,0.5356,0.5226,0.5325,0.5428,0.5428,0.5428,0.5325,0.526,0.5165,0.5131,0.5131,0.5131,0.5357,0.5743,0.5847,0.5881,0.5947,0.6137,0.6461,0.6654,0.6264,0.6203,0.6075,0.5557,0.562,0.6141,0.6981,0.8137,0.9115,0.9418,1.0095,1.0478,1.0097,0.9749,0.946,0.9375,0.9269,0.9098,0.8985,0.9072,0.9098,0.8985,0.9232,0.9332,0.9152,0.8741,0.8631,0.9138,0.9138,0.9218,0.9399,0.9406,0.931,0.9176,0.9277,0.9327,0.9332,0.9439,0.9773,1.0287,0.9964,0.9786,0.0,2.8089,0.0,0.0,0.0,0.0,0.0,0.0,0.0,1.7687,1.7554,1.7595,1.6858,1.64,1.6007,1.5387,1.4998,1.4952,0.0,1.7317,0.0,0.0,2.1384,0.0,1.8305,1.5325,1.3186,1.2381,1.1067,1.0075,0.9484,0.8934,0.8764,0.9026,0.7833,0.6835,0.6075,0.5242,0.4894,0.4904,0.4951,0.4958,0.4918,0.4968,0.4889,0.4721,0.5006,0.5057,0.4955,0.5233,0.5418,0.5425,0.5415,0.5418,0.5428,0.5428,0.527,0.5145,0.5145,0.5138,0.5131,0.5191,0.5868,0.6719,0.6785,0.6719,0.6527,0.5815,0.6141,0.6527,0.5686,0.5557,0.5557,0.5491,0.6141,0.7046,0.7897,0.8748,0.953,1.0428,1.0624,1.0485,1.0199,1.0383,1.043,0.98,0.9682,0.9586,0.925,0.9512,0.9579,0.925,0.9539,0.9713,0.9713,0.9693,0.9686,0.9686,0.9686,0.9693,0.9713,0.9713,0.9853,1.014,1.0147,1.0281,1.0624,1.0624,1.0624,1.0624,1.0624,1.0624,2.1432,0.0,2.5203,2.5395,2.4451,2.3234,0.0,0.0,0.0,0.0,0.0,1.7431,1.7038,1.6968,1.6598,1.5643,1.5124,1.4889,1.4984,0.0,0.0,1.8819,1.7756,1.63,1.4617,1.2457,1.0694,0.9401,0.8693,0.8009,0.7345,0.7187,0.7155,0.7209,0.6373,0.6119,0.6466,0.5241,0.4629,0.4745,0.5186,0.5204,0.4914,0.538,0.531,0.4874,0.5053,0.5111,0.5087,0.5155,0.5254,0.5415,0.5233,0.5257,0.5428,0.5428,0.5338,0.5308,0.5308,0.523,0.5191,0.5884,0.6378,0.685,0.7502,0.7242,0.6785,0.7246,0.7046,0.6654,0.6461,0.692,0.7246,0.6527,0.7046,0.7962,0.8812,0.9139,0.953,1.0428,1.0624,1.0555,1.0485,1.0526,1.0457,1.0087,0.9853,0.9659,0.9586,0.9639,0.9659,0.9586,0.984,1.0013,1.0013,0.9813,0.9686,0.9686,0.9686,0.9786,1.0007,1.0013,1.0154,1.0448,1.0454,1.0488,1.0624,1.0624,1.0624,1.0624,1.0624,1.0624,1.7891,2.0734,2.3432,2.4381,2.3677,2.2694,0.0,0.0,0.0,0.0,0.0,1.7333,1.6345,1.6352,1.5964,1.4301,1.4657,0.0,0.0,0.0,1.202,1.2346,1.1318,1.0262,0.0,0.8013,0.6828,0.611,0.612,0.6001,0.576,0.6279,0.6493,0.6293,0.5878,0.5996,0.6588,0.5226,0.4834,0.5595,0.5538,0.5541,0.5686,0.6032,0.5988,0.5698,0.5871,0.5944,0.5953,0.5977,0.6071,0.616,0.6199,0.6256,0.6355,0.6567,0.6601,0.6535,0.6141,0.5948,0.5997,0.683,0.7481,0.7962,0.8484,0.8285,0.7897,0.7962,0.7962,0.7852,0.7551,0.7844,0.8067,0.7764,0.8251,0.8909,0.9379,0.9679,1.004,1.0498,1.0624,1.0624,1.0624,1.0573,1.0533,1.0383,1.0187,1.004,0.99,1.0,1.0033,0.99,1.0147,1.0374,1.0508,1.0254,1.0087,1.0087,1.0087,1.016,1.0314,1.0321,1.0394,1.0618,1.0624,1.0624,1.0624,1.0624,1.0624,1.0624,1.0624,1.0624,1.5164,1.8356,2.1609,2.3357,2.287,2.1956,2.1811,0.0,0.0,0.0,0.0,0.0,0.0,1.5331,0.0,0.0,0.0,0.0,0.5298,0.4472,0.4546,0.488,0.4166,0.0,0.4131,0.3045,0.2477,0.2713,0.3216,0.3669,0.3991,0.514,0.5655,0.5229,0.55,0.5896,0.6253,0.5117,0.5117,0.6263,0.5873,0.5928,0.6421,0.6642,0.6696,0.6598,0.6814,0.0,0.6919,0.6993,0.7091,0.7141,0.7379,0.7474,0.7529,0.7876,0.8027,0.7892,0.7177,0.6915,0.7046,0.7897,0.8683,0.9338,0.9466,0.953,0.9344,0.8652,0.8798,0.9049,0.8508,0.8518,0.8717,0.888,0.9457,0.991,0.9868,1.0212,1.0624,1.0624,1.0624,1.0624,1.0624,1.0624,1.0624,1.0624,1.0624,1.053,1.0214,1.0408,1.0481,1.0274,1.0474,1.0742,1.1035,1.0835,1.0675,1.0628,1.0651,1.0624,1.0624,1.0624,1.0624,1.0624,1.0624,1.0624,1.0624,1.0624,1.0624,1.0624,1.0624,1.0624,1.3445,1.48,1.6587,2.0206,2.0603,2.0143,2.022,0.0,0.0,0.0,0.0,0.0,0.0,1.4799,1.4101,0.0,0.0,-0.0,0.0,0.0,-0.0832,0.0426,0.0,-0.0723,0.0528,-0.0587,-0.1079,-0.0431,-0.0324,0.0054,0.071,0.17,0.2259,0.2158,0.3843,0.4739,0.4816,0.4618,0.4625,0.4846,0.5932,0.6145,0.5706,0.6961,0.7182,0.6598,0.6814,0.6904,0.6909,0.6939,0.7011,0.7126,0.727,0.7395,0.7529,0.7876,0.8027,0.7962,0.7832,0.7832,0.7962,0.8812,0.921,0.9466,1.0174,1.0428,1.0417,1.0523,0.9579,0.8518,0.8415,0.9116,0.9788,0.9614,1.0219,1.0725,1.0483,1.0524,1.0624,1.0624,1.0624,1.0624,1.0624,1.0624,1.0624,1.0624,1.0624,1.0611,1.0557,1.0598,1.0698,1.0835,1.0902,1.1042,1.1336,1.1316,1.1189,1.0942,1.0759,1.0624,1.0624,1.0624,1.0624,1.0624,1.0624,1.0624,1.0624,1.0624,1.0624,1.0624,1.0624,1.0624,1.1706,1.2809,1.4106,1.6275,1.7073,1.7284,1.7181,0.0,0.0,0.0,0.0,0.0,0.0,0.0,1.0872,0.5466,0.0,-0.7223,-0.9838,-0.9409,-0.8118,0.0,0.0,-0.5733,-0.3382,-0.3687,-0.365,-0.2848,-0.2902,-0.2746,-0.227,-0.1949,-0.0982,0.0611,0.3186,0.4484,0.4512,0.4522,0.4904,0.5664,0.5878,0.6253,0.6735,0.7396,0.7723,0.7783,0.0,0.7948,0.7948,0.7948,0.7964,0.8031,0.8222,0.8492,0.877,0.9235,0.9128,0.8748,0.9256,0.9069,0.8877,0.9722,0.9977,1.011,1.0498,1.0668,1.0788,1.0768,1.0333,0.9904,1.0191,1.0709,1.1102,1.1121,1.1299,1.143,1.1296,1.1142,1.1029,1.1029,1.0823,1.0574,1.0574,1.0591,1.0624,1.0624,1.0624,1.0624,1.0624,1.0759,1.0842,1.0982,1.1136,1.1343,1.1637,1.1516,1.1303,1.1009,1.0722,1.0624,1.0624,1.0624,1.0807,1.1226,1.1226,1.1476,1.1911,1.1911,1.1663,1.1288,1.1663,1.1663,1.0308,1.1282,1.2269,1.2888,0.0,1.4896,1.3389,0.0,0.0,0.0,0.0,0.0,0.0,0.8754,0.0,-0.2323,-0.8236,-1.3064,-1.6506,-1.579,-1.3987,-1.1493,-1.0982,-0.9569,-0.6553,-0.6124,-0.5595,-0.4566,-0.4669,-0.4623,-0.4311,-0.4438,-0.3273,-0.0612,0.2068,0.3591,0.3968,0.4311,0.5022,0.61,0.5706,0.6086,0.7176,0.7557,0.7996,0.854,0.8699,0.8804,0.8804,0.8804,0.8804,0.8838,0.907,0.9466,0.9846,1.0367,1.0174,0.9722,1.0364,1.0174,0.9722,1.0364,1.0624,1.0624,1.0624,1.0715,1.0875,1.0788,1.0922,1.1196,1.165,1.187,1.2011,1.2164,1.2031,1.185,1.1784,1.1583,1.1423,1.1423,1.1094,1.077,1.0633,1.067,1.0771,1.0918,1.094,1.0982,1.1115,1.1439,1.1659,1.1737,1.1817,1.1922,1.2016,1.1907,1.1771,1.1538,1.1249,1.1049,1.0973,1.1087,1.1476,1.2081,1.2081,1.2389,1.3009,1.3009,1.2696,1.2081,1.2696,1.2696,0.9629,0.9961,1.0159,1.0855,0.0,0.0,0.9059,0.4599,0.0,0.0,0.0,0.0,0.0,0.1265,-0.1407,-0.5951,-1.3353,-1.8039,-1.6621,0.0,-1.59,-1.299,-1.2247,-1.0832,-0.7842,-0.7568,-0.695,-0.5525,-0.5416,-0.5148,-0.4501,-0.447,-0.3747,-0.2119,-0.0502,0.1004,0.2343,0.3799,0.4529,0.468,0.5218,0.5542,0.5701,0.7069,0.7723,0.783,0.848,0.8804,0.8804,0.8804,0.8804,0.8838,0.907,0.9528,1.0127,1.0441,1.0561,1.0498,1.0561,1.0561,1.0498,1.0561,1.0624,1.0624,1.0624,1.0638,1.0701,1.1216,1.1376,1.1403,1.145,1.1857,1.2204,1.1957,1.1884,1.1797,1.1516,1.1443,1.1423,1.1423,1.1334,1.116,1.0672,1.0819,1.1206,1.194,1.1839,1.1966,1.2757,1.3198,1.3541,1.3811,1.3431,1.2933,1.2318,1.2849,1.3145,1.3123,1.2757,1.2432,1.2106,1.2554,1.2826,1.2887,1.2887,1.2948,1.3009,1.3009,1.2948,1.2948,1.2948,1.2948,0.9335,0.9664,0.9858,1.0069,0.0,0.0,0.0,0.0,0.0,0.0,0.0,0.0,0.0,0.0,-0.7583,-0.9042,-1.4659,-1.8422,-1.7523,-1.7075,-1.5853,-1.3113,-1.2167,-1.0501,-0.7317,-0.702,-0.6421,-0.5003,-0.4897,-0.4791,-0.4529,-0.4487,-0.4212,-0.3649,-0.1287,0.0727,0.2174,0.3749,0.448,0.4519,0.4732,0.5332,0.6199,0.6745,0.7509,0.8374,0.8699,0.8804,0.8804,0.8804,0.8911,0.907,0.9599,0.9813,0.9907,1.0381,1.0624,1.0624,1.0624,1.0624,1.0624,1.0624,1.0624,1.0624,1.0624,1.0815,1.1109,1.1142,1.155,1.1971,1.1971,1.2131,1.2271,1.2164,1.2138,1.2104,1.1997,1.1971,1.1971,1.1971,1.1824,1.1663,1.1467,1.1903,1.2334,1.2595,1.3484,1.4022,1.3824,1.4085,1.4303,1.443,1.4466,1.4387,1.4148,1.4332,1.4473,1.4473,1.4006,1.3533,1.31,1.3556,1.3777,1.3734,1.4031,1.4275,1.451,1.4768,1.4644,1.4215,1.4969,1.5024,0.9673,0.9845,0.9629,0.0,0.0,0.0,0.0,0.0,0.0,0.0,-1.3883,0.0,0.0,0.0,0.0,0.0,-1.5089,-1.7755,-1.6942,-1.6296,-1.4943,-1.2386,-1.157,-0.9982,-0.6874,-0.6588,-0.5991,-0.4625,-0.4522,-0.4525,-0.448,-0.4494,-0.4045,-0.3084,-0.0168,0.1902,0.2903,0.3978,0.448,0.4519,0.4736,0.5332,0.6258,0.648,0.7289,0.848,0.8699,0.8804,0.8804,0.8804,0.8925,0.9097,0.9646,0.9719,0.9613,1.0207,1.0421,1.0434,1.0591,1.0624,1.0624,1.0624,1.0624,1.0624,1.0624,1.0902,1.1269,1.1156,1.163,1.2184,1.2278,1.2305,1.2305,1.2305,1.2305,1.2305,1.2305,1.2305,1.2372,1.2666,1.2573,1.2536,1.2783,1.321,1.3597,1.3696,1.4759,1.5393,1.5112,1.5377,1.5485,1.5342,1.5497,1.5528,1.5234,1.5438,1.5658,1.5658,1.5521,1.5125,1.4345,1.4798,1.5015,1.4976,1.5306,1.5562,1.583,1.6123,1.6023,1.5517,1.6331,1.6392,1.0615,1.0312,0.9238,0.0,0.0,0.0,0.0,0.0,0.0,0.0,0.0,-1.2338,-1.1291,0.0,0.0,-1.2577,-1.5018,-1.6337,-1.4463,-1.4182,-1.3287,-1.0763,-1.047,-0.9458,-0.6874,-0.6588,-0.5987,-0.4629,-0.4473,-0.448,-0.448,-0.4501,-0.3084,-0.0056,0.2968,0.4501,0.448,0.448,0.4529,0.4515,0.5164,0.5487,0.5542,0.6258,0.702,0.7723,0.848,0.8804,0.8804,0.8811,0.8811,0.8838,0.907,0.919,0.9263,0.99,1.012,1.016,1.0517,1.0624,1.0624,1.0624,1.0624,1.0624,1.0624,1.0768,1.1062,1.1349,1.1643,1.2009,1.2225,1.2305,1.2305,1.2298,1.2298,1.2298,1.2305,1.2305,1.2592,1.3528,1.3745,1.392,1.4616,1.4687,1.4926,1.5419,1.551,1.5799,1.6612,1.7086,1.7212,1.6705,1.6597,1.6249,1.5296,1.6079,1.6627,1.6627,1.7501,1.7388,1.5981,1.6419,1.6738,1.6665,1.6675,1.6675,1.6665,1.6675,1.6738,1.6738,1.6685,1.6685,1.1342,1.0238,0.0,0.0,0.0,0.0,0.0,0.0,0.0,0.0,0.0,-1.4014,-1.1995,0.0,0.0,-1.2669,-1.392,-1.4669,-1.3565,-1.2806,-1.1839,-1.064,-0.9763,-0.8519,-0.675,-0.6145,-0.5441,-0.4584,-0.4477,-0.4487,-0.4504,-0.2514,0.0056,0.3084,0.4045,0.4494,0.448,0.448,0.4746,0.5218,0.5378,0.576,0.6312,0.7015,0.7777,0.848,0.8699,0.8804,0.8824,0.9025,0.8991,0.8858,0.9359,0.9552,0.9657,1.0607,1.1073,1.1399,1.2058,1.1903,1.1469,1.1469,1.1192,1.0862,1.0862,1.1671,1.2655,1.2742,1.3482,1.4245,1.4347,1.4307,1.4163,1.3455,1.331,1.3455,1.4163,1.4307,1.445,1.4665,1.4736,1.4846,1.5023,1.5627,1.6102,1.6273,1.6831,1.7341,1.756,1.7969,1.8173,1.7992,1.8002,1.791,1.7608,1.7571,1.7579,1.7579,1.7872,1.7678,1.6968,1.7397,1.7353,1.6685,1.7031,1.7041,1.6665,1.7041,1.7187,1.7197,1.749,1.7627,1.2832,1.1193,0.0,0.4466,-0.0872,-0.6771,-1.287,0.0,0.0,0.0,0.0,-1.4631,-1.2918,-1.3254,0.0,-1.2373,-1.2709,-1.2786,-1.1927,-1.0958,-1.0136,-0.9456,-0.8485,-0.7422,-0.6253,-0.5882,-0.5344,-0.4532,-0.4487,-0.3981,-0.2798,0.0167,0.2627,0.4442,0.4494,0.4484,0.4473,0.4743,0.5117,0.5487,0.6086,0.6632,0.7074,0.7509,0.8103,0.8804,0.8804,0.8804,0.8824,0.8991,0.9119,0.926,0.9805,1.0165,1.0546,1.1465,1.1944,1.2208,1.2777,1.2696,1.2266,1.2266,1.2185,1.2014,1.2014,1.2863,1.387,1.387,1.4541,1.5234,1.5234,1.5234,1.5021,1.445,1.4314,1.445,1.5092,1.5234,1.5305,1.5649,1.5919,1.6102,1.6528,1.7158,1.7638,1.7399,1.7856,1.8261,1.8261,1.8592,1.8776,1.865,1.8566,1.8527,1.8375,1.8319,1.8241,1.8262,1.8418,1.8398,1.8154,1.8057,1.7764,1.7246,1.75,1.75,1.7236,1.75,1.7637,1.7637,1.7891,1.8008,1.4815,0.0,0.0,0.4599,-0.132,0.0,-1.5097,-1.7289,-1.7587,-1.694,0.0,-1.4318,-1.3663,-1.2886,-1.2162,-1.1669,-1.1396,-1.0878,-0.974,-0.8954,-0.8271,-0.7664,-0.6966,-0.6258,-0.5601,-0.5677,-0.5415,-0.4536,-0.4271,-0.28,0.0223,0.3026,0.4501,0.448,0.4477,0.4525,0.457,0.5218,0.5592,0.5706,0.7069,0.7723,0.7777,0.7777,0.8156,0.8804,0.8804,0.8804,0.8811,0.8857,0.9256,0.9844,1.0386,1.0963,1.1606,1.2436,1.273,1.2806,1.3134,1.3183,1.313,1.313,1.331,1.36,1.36,1.4172,1.4823,1.4823,1.5083,1.5446,1.5446,1.5446,1.5446,1.5446,1.5376,1.5376,1.5446,1.5471,1.578,1.6621,1.7097,1.7666,1.8431,1.8965,1.9092,1.8691,1.8589,1.8595,1.8634,1.9068,1.9165,1.873,1.872,1.8548,1.8203,1.8434,1.8695,1.8647,1.9029,1.9287,1.9287,1.8535,1.8105,1.8066,1.8066,1.8047,1.8008,1.8008,1.8008,1.8008,1.8076,1.8144,0.0,1.4576,0.0,0.0,-0.1056,-0.8072,-1.2451,-1.3236,-1.3313,-1.4147,-1.3725,-1.287,-1.1648,-1.1285,-1.0947,-1.0265,-0.9658,-0.9008,-0.8199,-0.7469,-0.7009,-0.6858,-0.6199,-0.5769,-0.5791,-0.5191,-0.4709,-0.4504,-0.2289,0.0334,0.3368,0.415,0.4484,0.448,0.4525,0.4736,0.5273,0.5433,0.6086,0.723,0.7557,0.7996,0.8586,0.8586,0.8646,0.8804,0.8804,0.8804,0.8857,0.9361,0.9666,0.9895,1.091,1.1477,1.1947,1.3099,1.3709,1.3978,1.466,1.4451,1.3965,1.3965,1.3742,1.341,1.341,1.4499,1.5627,1.5627,1.6474,1.7373,1.7373,1.7373,1.7373,1.7373,1.6862,1.6498,1.7226,1.7618,1.7915,1.8126,1.8552,1.8817,1.8621,1.8711,1.874,1.8652,1.8592,1.8728,1.9068,1.9531,1.9746,1.9603,1.9642,1.958,1.9531,1.9315,1.9165,1.9117,1.9216,1.9287,1.9287,1.9111,1.8848,1.8506,1.8496,1.834,1.8008,1.8008,1.8008,1.8008,1.8721,1.9044,0.0,0.0,0.0,0.7563,0.0,0.0,-0.6771,-0.8401,-0.9301,-0.9195,-1.0573,-1.1379,-1.0038,-0.9489,-0.912,-0.875,-0.814,-0.7581,-0.7149,-0.6637,-0.6277,-0.6277,-0.5513,-0.5081,-0.5203,-0.3456,-0.2341,-0.2348,-0.0223,0.2063,0.4383,0.4487,0.4639,0.4959,0.5007,0.5332,0.6036,0.6362,0.6956,0.7723,0.8049,0.8427,0.8804,0.8804,0.8804,0.8804,0.8804,0.8956,0.9323,0.988,1.0366,1.0887,1.2092,1.2723,1.3086,1.4147,1.4627,1.4805,1.5225,1.5118,1.4746,1.4746,1.4726,1.4711,1.4908,1.578,1.6599,1.6599,1.7322,1.7969,1.7764,1.7861,1.8008,1.8008,1.7647,1.7432,1.7872,1.8184,1.833,1.833,1.8682,1.8965,1.8955,1.9111,1.9248,1.9248,1.9248,1.9326,1.9561,1.9961,2.0146,1.9932,1.9897,1.9817,1.964,1.959,1.9572,1.9564,1.979,1.9893,1.9893,1.9893,1.9502,1.8652,1.9324,1.9413,1.9046,1.9432,1.9634,1.9624,1.9856,1.9944,0.0,0.0,1.6214,0.9691,0.5291,0.0,0.0094,-0.2788,-0.4653,-0.3294,-0.6921,-0.9964,-0.858,-0.7811,-0.7405,-0.7416,-0.6961,-0.6495,-0.6273,-0.59,-0.5462,-0.4944,-0.4187,-0.3749,-0.3749,-0.1447,0.0222,0.0723,0.1895,0.3128,0.4421,0.4588,0.4904,0.5487,0.5597,0.6036,0.6804,0.7396,0.7777,0.7889,0.8633,0.8956,0.8956,0.9106,0.9008,0.8804,0.9061,0.9413,0.9844,1.0539,1.1297,1.204,1.3461,1.4053,1.4336,1.5127,1.5459,1.5527,1.5527,1.5527,1.5537,1.5615,1.583,1.6213,1.6602,1.7041,1.7383,1.7383,1.7686,1.793,1.7578,1.7744,1.8027,1.8105,1.8115,1.8115,1.8115,1.8115,1.8144,1.8223,1.8447,1.8799,1.9307,1.9561,1.9746,1.9893,1.9912,1.9941,2.0019,2.0342,2.043,2.0068,2.0033,1.9965,1.975,2.0066,2.034,2.0521,2.0685,2.0934,2.1088,2.0934,2.0387,1.9364,2.0398,2.0649,2.0244,2.1029,2.1385,2.1374,2.102,2.0846,0.0,0.0,1.7919,0.0,1.2044,0.9165,0.0,0.0,0.2295,0.0,-0.3835,-0.8519,-0.7139,-0.6815,-0.6727,-0.6713,-0.6673,-0.617,-0.4934,-0.4712,-0.3744,-0.1108,-0.0665,-0.061,-0.061,-0.0222,0.1111,0.3697,0.4089,0.4307,0.448,0.5066,0.5382,0.5487,0.6145,0.6799,0.7563,0.767,0.8049,0.8646,0.9361,0.9666,0.9666,1.0269,0.9917,0.8857,1.0012,1.0261,0.9947,1.1548,1.2314,1.2559,1.4086,1.469,1.4756,1.5234,1.5654,1.6037,1.6037,1.6037,1.6035,1.6426,1.6328,1.6213,1.6602,1.7041,1.7383,1.7383,1.7686,1.7998,1.7939,1.7969,1.8105,1.8467,1.8555,1.8555,1.8555,1.8555,1.8662,1.9043,1.8857,1.8896,1.9697,1.9258,1.9062,1.9805,1.9912,2.0049,2.043,2.0527,2.0547,2.0478,2.0518,2.0799,2.1584,2.1711,2.205,2.2963,2.2285,2.2178,2.3073,2.2253,2.1977,2.2335,2.1664,2.1123,2.073,2.1195,2.1385,2.1374,2.1597,2.1753,2.1121,2.1855,2.1314,0.0,1.7591,1.5408,1.327,0.0,0.9612,0.8024,0.534,0.2254,-0.1075,-0.1683,-0.1796,-0.2193,-0.2305,-0.2201,-0.1995,-0.2,-0.1499,-0.0166,0.1499,0.2508,0.2508,0.2504,0.3063,0.4428,0.4857,0.5066,0.5066,0.5714,0.6308,0.674,0.7069,0.7563,0.8315,0.8672,0.9235,0.9917,1.0218,1.0364,1.0364,1.1065,1.0813,0.9961,1.0517,1.0864,1.1006,1.2299,1.2917,1.319,1.4596,1.499,1.4834,1.5254,1.5537,1.5693,1.5693,1.5859,1.6154,1.6289,1.6396,1.6523,1.6963,1.7227,1.7383,1.7383,1.7686,1.7959,1.7715,1.7832,1.8057,1.8242,1.8467,1.8562,1.8562,1.8562,1.8691,1.8887,1.8965,1.9199,1.9814,1.9805,1.9844,2.0225,2.0283,2.0352,2.0537,2.1078,2.1375,2.1375,2.1897,2.2379,2.2843,2.2863,2.3051,2.3498,2.3117,2.3014,2.3514,2.3073,2.2974,2.3212,2.3356,2.3044,2.2332,2.2999,2.3143,2.2843,2.2627,2.2567,0.0,0.0,2.3986,2.3236,2.1861,2.0368,0.0,0.0,1.5556,0.0,1.3346,1.1883,0.641,0.4879,0.4211,0.3638,0.2938,0.2291,0.1753,0.1652,0.1712,0.1876,0.3892,0.5207,0.5037,0.503,0.5022,0.5022,0.55,0.576,0.576,0.6475,0.7128,0.767,0.8037,0.8514,0.9061,0.971,1.032,1.0813,1.0965,1.1065,1.1065,1.1774,1.1823,1.1325,1.1325,1.1586,1.2031,1.2956,1.3525,1.3936,1.5,1.5215,1.498,1.5293,1.5557,1.5742,1.5742,1.6035,1.6478,1.6523,1.6709,1.6982,1.7412,1.7539,1.7539,1.7539,1.7773,1.7939,1.7627,1.7773,1.8066,1.8281,1.8496,1.8562,1.8562,1.8562,1.8562,1.8562,1.8896,1.9287,1.9824,2.0404,2.0804,2.0914,2.1155,2.1308,2.1308,2.1973,2.2403,2.2403,2.3073,2.3568,2.3841,2.391,2.4024,2.4243,2.4015,2.3987,2.4241,2.4036,2.4036,2.4253,2.5004,2.4843,2.3704,2.4402,2.4544,2.3979,2.3401,2.3078,0.0,2.3356,0.0,2.4972,0.0,0.0,0.0,0.0,1.8998,1.8034,1.6775,1.5488,1.4448,1.212,1.0324,1.0308,0.8078,0.6289,0.6289,0.6234,0.644,0.6949,0.7177,0.7063,0.6539,0.648,0.648,0.648,0.6534,0.6534,0.6534,0.7235,0.767,0.7723,0.8981,0.971,0.9762,1.0415,1.0771,1.0813,1.1466,1.1765,1.1765,1.2501,1.2822,1.2774,1.2774,1.2688,1.2559,1.3628,1.4311,1.4766,1.5234,1.54,1.5381,1.54,1.5947,1.6597,1.6597,1.6953,1.7383,1.7783,1.7656,1.7432,1.7852,1.7978,1.7978,1.7978,1.7988,1.8008,1.7978,1.7988,1.8213,1.9023,1.8926,1.8562,1.8562,1.8562,1.8562,1.8562,1.8652,1.8936,1.9766,2.0724,2.1471,2.1899,2.2776,2.3368,2.3368,2.3368,2.3441,2.3441,2.3441,2.3875,2.4823,2.4884,2.5325,2.6264,2.5436,2.5343,2.6289,2.5441,2.537,2.6314,2.6383,2.5672,2.4184,2.46,2.4544,2.3979,2.3401,2.3078,0.0,0.0,0.0,2.4869,2.5004,2.4699,2.4277,2.3145,2.196,2.1133,2.0169,1.9121,1.7954,1.509,1.2698,1.1944,1.0348,0.9088,0.8604,0.8195,0.8035,0.8199,0.8258,0.8146,0.7964,0.7964,0.7964,0.7964,0.8338,0.8606,0.8606,0.9304,0.9688,0.9688,1.0202,1.0669,1.1065,1.1316,1.1674,1.2157,1.2403,1.2501,1.2501,1.2774,1.2881,1.29,1.3164,1.3208,1.3176,1.3859,1.4394,1.4824,1.5244,1.541,1.541,1.541,1.5791,1.6299,1.6299,1.6777,1.7402,1.7559,1.7686,1.7812,1.7969,1.8008,1.8008,1.8008,1.8008,1.8008,1.8008,1.8008,1.8281,1.9403,2.0038,2.0465,2.0754,1.9645,1.8852,1.9828,2.0021,2.0441,2.1924,2.2527,2.2802,2.2977,2.3294,2.3514,2.3514,2.4036,2.448,2.448,2.5063,2.5681,2.6429,2.6478,2.6599,2.7008,2.6677,2.6462,2.6465,2.6164,2.6094,2.6465,2.6101,2.5503,2.457,2.4713,2.4343,2.3439,2.3226,2.3365,1.6292,0.0,0.0,0.0,0.0,2.4915,2.508,0.0,2.4022,2.339,2.2809,2.2019,2.0777,1.8391,1.6007,1.4214,1.2799,1.181,1.1319,1.0524,0.9977,0.9745,0.9694,0.965,0.9416,0.9416,0.9416,0.9416,0.9841,1.0054,1.0054,1.0543,1.0914,1.1116,1.1166,1.1466,1.2187,1.2187,1.2403,1.2881,1.3104,1.3113,1.2929,1.3344,1.3382,1.321,1.3687,1.3842,1.375,1.418,1.4609,1.5076,1.5591,1.5642,1.541,1.569,1.6019,1.6289,1.6289,1.7046,1.8041,1.8041,1.842,1.8854,1.8854,1.8854,1.8854,1.8854,1.9024,1.9106,1.8885,1.8957,1.9307,2.0439,2.116,2.1722,2.198,2.0909,2.0097,2.1113,2.1366,2.1882,2.3095,2.3704,2.4036,2.4036,2.4325,2.448,2.448,2.5075,2.5511,2.5511,2.6255,2.6904,2.7272,2.7476,2.7503,2.7331,2.7282,2.7076,2.649,2.6533,2.6533,2.6533,2.6088,2.5624,2.5084,2.472,2.4054,2.3078,2.3078,2.3531,0.0,0.0,0.0,0.0,0.0,0.0,2.5178,0.0,2.5154,2.4887,2.4629,2.4166,2.3229,2.2275,2.0638,1.757,1.5666,1.462,1.462,1.3569,1.257,1.1889,1.1791,1.1563,1.0956,1.0914,1.0914,1.0914,1.0914,1.0914,1.0914,1.0914,1.1216,1.1864,1.1864,1.2227,1.2929,1.2929,1.2978,1.2978,1.3552,1.3505,1.2968,1.4165,1.4376,1.3862,1.4433,1.4499,1.4194,1.4625,1.5057,1.5507,1.6234,1.6083,1.5526,1.6255,1.6616,1.6792,1.6782,1.7904,1.9365,1.9354,1.9868,2.059,2.059,2.059,2.059,2.059,2.1014,2.1284,2.0736,2.096,2.1419,2.2037,2.2161,2.2115,2.2264,2.2286,2.2298,2.2286,2.2612,2.295,2.2962,2.4166,2.5004,2.5004,2.5873,2.6533,2.6533,2.6533,2.6533,2.6546,2.6967,2.7293,2.7331,2.7802,2.7927,2.7394,2.7331,2.7108,2.654,2.6546,2.6521,2.6521,2.6508,2.6219,2.5652,2.4531,2.3715,2.3103,2.3138,2.359,0.7865,0.0,0.0,0.0,0.0,0.0,0.0,0.0,2.5936,2.547,2.5587,2.5457,2.4417,2.3474,2.2398,2.1089,1.8628,1.6888,1.6888,1.5971,1.5077,1.4507,1.4461,1.4209,1.3669,1.3632,1.3632,0.0,1.3215,1.2976,1.2976,1.2976,1.3082,1.3236,1.3653,1.3805,1.3552,1.3967,1.4201,1.4201,1.4387,1.4376,1.4201,1.4571,1.4606,1.449,1.4926,1.5081,1.4999,1.5128,1.5665,1.6461,1.6623,1.683,1.7024,1.7191,1.7802,1.8408,1.8013,1.892,2.0149,1.9712,2.0034,2.059,2.059,2.059,2.059,2.059,2.1014,2.1363,2.1228,2.1755,2.2256,2.2034,2.3018,2.4054,2.4054,2.4731,2.501,2.3904,2.379,2.4234,2.529,2.5844,2.6094,2.6094,2.6314,2.6533,2.6533,2.6533,2.6615,2.7017,2.7193,2.7607,2.8398,2.86,2.8587,2.8461,2.8089,2.7615,2.7073,2.6734,2.6786,2.738,2.7013,2.7037,2.7471,2.5537,2.4305,2.3753,2.4477,2.5175,0.0,0.0,0.0,0.0,0.0,0.0,2.2639,2.4135,2.4883,2.5434,2.5781,2.5746,2.5,2.4328,2.3711,2.3155,2.1306,1.9605,1.8693,1.786,1.7046,1.6303,1.623,1.5972,1.5428,1.5184,1.5028,1.5028,1.4492,1.419,1.419,1.419,1.419,1.419,1.4514,1.4514,1.419,1.4514,1.4698,1.4698,1.4971,1.4926,1.4709,1.5197,1.5287,1.5119,1.559,1.5822,1.5822,1.5822,1.621,1.6841,1.7156,1.741,1.7633,1.7961,1.8351,1.8706,1.8427,1.9392,2.0722,2.0362,2.0862,2.1667,2.1667,2.1667,2.1667,2.1667,2.1891,2.2221,2.2669,2.2855,2.2882,2.3091,2.3776,2.4607,2.5046,2.5649,2.5915,2.5326,2.5232,2.548,2.6321,2.6533,2.6533,2.6533,2.6533,2.6533,2.6533,2.6533,2.6747,2.7218,2.7494,2.7984,2.885,2.9151,2.9101,2.8599,2.8619,2.8278,2.75,2.7501,2.7749,2.8228,2.7926,2.7919,2.8227,2.6583,2.552,2.503,2.5562,2.6068,0.0,0.0,0.0,0.0,1.1288,0.0,2.2195,2.2926,2.2799,2.4836,2.5422,2.5492,2.5181,2.4904,2.4598,2.4152,2.3482,2.2289,2.0175,1.9439,1.8674,1.7612,1.7491,1.7221,1.6561,1.6077,1.5799,1.5799,1.5332,1.5074,1.5074,1.5074,1.5085,1.4994,1.4994,1.4926,1.4789,1.4926,1.5005,1.5005,1.5576,1.5576,1.5005,1.6095,1.6269,1.572,1.6281,1.6522,1.6522,1.6522,1.669,1.7024,1.7706,1.7891,1.7895,1.8555,1.8721,1.8544,1.8487,1.9611,2.1117,2.1057,2.2005,2.3078,2.3078,2.3078,2.309,2.3153,2.3226,2.3403,2.4469,2.3979,2.3464,2.4406,2.4356,2.4356,2.531,2.5598,2.585,2.6433,2.6533,2.6533,2.6533,2.6533,2.6546,2.6609,2.6571,2.6546,2.6609,2.6622,2.6766,2.7318,2.7871,2.8423,2.8976,2.9504,2.9404,2.8394,2.9035,2.8976,2.7987,2.8648,2.9038,2.9122,2.9223,2.9031,2.8568,2.7736,2.7037,2.651,2.6529,2.6563,0.0,0.0,0.0,0.1233,0.3669,0.0,1.4553,1.8757,2.1613,2.3378,2.5024,2.5977,2.5434,2.5107,2.4847,2.4542,2.4099,2.3285,2.1814,2.1252,2.0525,1.9273,1.9141,1.8769,1.7853,1.7652,1.7572,1.7572,1.7571,1.7506,1.7506,1.7506,1.7301,1.6896,1.6832,1.6361,1.541,1.6318,1.6786,1.6786,1.7354,1.7313,1.6786,1.7063,1.6824,1.6324,1.6466,1.6522,1.6522,1.6522,1.7057,1.7958,1.8102,1.8635,1.9371,1.9527,1.9887,2.0133,1.9679,2.0649,2.1989,2.1555,2.2193,2.3078,2.3078,2.3078,2.3226,2.3703,2.3828,2.3891,2.4104,2.3991,2.3766,2.3466,2.4079,2.472,2.4921,2.5674,2.6395,2.6508,2.6533,2.6533,2.6533,2.6533,2.6684,2.7055,2.6753,2.6684,2.7067,2.7118,2.7331,2.7883,2.8436,2.9001,2.9578,2.9931,3.0051,2.9816,2.9764,2.9599,2.9412,2.9118,2.935,3.0016,3.0661,3.0969,3.0837,2.8389,2.7225,2.7267,2.6745,2.6826,-0.1847,-0.3362,-0.4139,-0.2636,0.0219,0.0,0.0,1.4212,1.8127,2.0803,2.2715,2.3908,2.3897,2.4335,2.4604,2.4325,2.4279,2.4057,2.3569,2.2504,2.1612,2.1163,2.0955,2.0691,2.0286,1.973,1.9155,1.8628,1.8919,1.9176,1.9176,1.9176,1.9033,1.8742,1.8407,1.7918,1.7342,1.7583,1.7706,1.7706,1.7987,1.7947,1.7706,1.7706,1.7544,1.7312,1.7312,1.7312,1.7312,1.7312,1.7784,1.8524,1.8312,1.8857,1.9798,1.9798,1.9987,2.0188,1.9899,2.0539,2.1493,2.1493,2.2046,2.2774,2.299,2.3078,2.3128,2.3489,2.3565,2.3565,2.3565,2.3565,2.3565,2.3565,2.4004,2.4556,2.5096,2.5636,2.6113,2.6471,2.6533,2.6533,2.6533,2.6691,2.6866,2.6866,2.7105,2.718,2.6904,2.7105,2.7582,2.8248,2.8518,2.9132,3.0079,3.0344,3.0317,3.0021,3.0297,3.0312,3.0043,3.0201,3.0422,3.0893,3.1289,3.1482,3.1482,2.9725,2.8913,2.8998,2.8311,2.8231,0.0407,-0.137,-0.3225,-0.3143,-0.0232,0.3575,0.0,0.0,0.0,1.7546,1.9565,2.0812,2.1455,0.0,0.0,2.3581,0.0,0.0,0.0,2.3794,0.0,2.3053,2.2698,2.2474,2.2654,2.1889,2.0986,1.9958,2.0554,2.087,2.0741,2.0642,2.0556,2.0427,1.981,1.9335,1.9086,1.8681,1.8375,1.8263,1.838,1.8341,1.8263,1.8263,1.8224,1.8106,1.8106,1.8106,1.8106,1.8106,1.8425,1.8905,1.8617,1.906,1.9813,1.9965,1.9901,1.9798,1.9798,2.025,2.0932,2.1217,2.1782,2.2422,2.2915,2.3078,2.3078,2.3078,2.3078,2.3078,2.3078,2.3078,2.3215,2.3866,2.4079,2.4482,2.5582,2.594,2.6209,2.6883,2.6973,2.6905,2.6589,2.6829,2.7042,2.6816,2.7444,2.7708,2.7017,2.7531,2.8087,2.8602,2.8955,2.951,3.05,3.0634,3.0491,3.0058,3.0763,3.0985,3.0539,3.1161,3.1482,3.1482,3.1482,3.1482,3.1482,3.0971,3.0627,3.0492,2.9864,2.9579,0.1922,0.1723,0.1529,0.1818,0.3056,0.5047,0.8195,0.0,0.8936,1.3654,0.0,1.7674,1.844,0.0,0.0,0.0,2.3077,2.4247,2.529,2.5542,2.5419,2.4798,2.4061,2.3619,2.3637,2.3786,2.3562,2.2798,2.353,2.3717,2.3038,2.2626,2.2199,2.1701,2.1038,2.0172,1.9127,1.9506,1.9391,1.8817,1.9281,1.9281,1.8817,1.8817,1.8535,1.8106,1.8106,1.8106,1.8106,1.8106,1.8425,1.8934,1.9494,1.9758,1.9869,2.0463,2.0295,1.9798,1.9798,2.0501,2.133,2.0957,2.1468,2.2422,2.2915,2.3078,2.3078,2.3078,2.3078,2.3078,2.3078,2.3078,2.3215,2.3866,2.4368,2.5076,2.6491,2.7144,2.7709,2.8542,2.8748,2.8247,2.6782,2.6584,2.6866,2.7783,2.7607,2.7682,2.8536,2.9486,2.9895,2.9342,3.0497,3.1089,3.0637,3.0839,3.1025,3.0954,3.1262,3.1425,3.1351,3.1467,3.1482,3.1482,3.1482,3.1482,3.1482,3.1392,3.1106,3.0492,2.9864,2.9579,0.4763,0.4158,0.3624,0.392,0.4216,0.509,0.7395,0.6726,0.6701,1.0466,0.0,0.0,0.0,0.0,0.0,0.0,2.1213,2.2668,0.0,0.0,2.5758,2.6213,2.6251,0.0,2.5867,2.5812,2.5317,2.4225,2.5013,2.5211,2.446,2.4249,2.4051,2.3819,2.3156,2.2348,2.1417,2.1024,2.0436,1.9707,1.9696,1.9566,1.9369,1.9369,1.9244,1.9043,1.9043,1.9043,1.9043,1.9043,1.9165,1.9431,2.0081,2.0344,2.0421,2.0725,2.0818,2.0841,2.0484,2.0897,2.1714,2.2245,2.2884,2.3543,2.3761,2.4105,2.4323,2.3943,2.4105,2.4518,2.4909,2.4989,2.5242,2.6222,2.6321,2.6569,2.7859,2.7981,2.8085,2.887,2.9002,2.8812,2.8051,2.8545,2.9038,2.9198,2.9877,3.0304,3.0104,3.0737,3.1006,3.0488,3.1007,3.1311,3.1166,3.1258,3.1307,3.1307,3.1441,3.136,3.0956,3.0896,3.0791,3.0398,3.072,3.0929,3.0908,3.1304,3.139,3.1091,3.0836,3.0492,0.6384,0.5579,0.4801,0.4841,0.4765,0.4847,0.5716,0.5365,0.5451,0.7542,0.8971,0.0,0.0,0.0,0.0,0.0,0.0,2.1075,0.0,2.5154,2.6083,2.7371,2.8076,2.8431,0.0,2.8247,2.7637,2.642,2.7025,2.7142,2.6418,2.5924,2.5691,2.5691,2.4879,2.4131,2.3407,2.2438,2.1553,2.0782,2.0285,2.005,2.005,1.9909,1.9874,1.9874,1.9747,1.969,1.969,1.969,1.969,1.9735,2.0243,2.0586,2.0795,2.0999,2.1306,2.1663,2.121,2.1342,2.1931,2.3368,2.4003,2.4202,2.4496,2.4951,2.5287,2.4738,2.5007,2.5494,2.5993,2.6228,2.6687,2.7668,2.7709,2.7792,2.9094,2.8968,2.8848,2.9543,2.969,2.969,2.969,3.0043,3.0273,3.0228,3.1335,3.1847,3.1279,3.1706,3.1914,3.1243,3.1424,3.1571,3.1526,3.1482,3.1482,3.1482,3.1482,3.13,3.0806,3.0754,3.0584,3.0103,3.0563,3.078,3.0776,3.1275,3.1582,3.1796,3.1796,3.1321,0.5923,0.5496,0.5365,0.4906,0.4874,0.4541,0.3124,0.3921,0.4876,0.4907,0.6002,0.7096,0.7694,0.0,0.0,0.0,0.0,0.0,0.0,2.5396,2.7075,2.8234,2.907,2.9969,0.0,3.1211,3.0942,3.0176,3.0324,3.0143,2.9412,2.7838,2.6945,2.6945,2.5799,2.4836,2.4184,2.3423,2.2703,2.205,2.1311,2.0975,2.0926,2.0483,2.028,2.0246,1.9874,1.969,1.969,1.969,1.969,1.969,1.9705,2.0117,2.0763,2.1439,2.1671,2.1697,2.1697,2.1697,2.2,2.3771,2.4006,2.3851,2.4984,2.5398,2.5398,2.5342,2.5398,2.5398,2.5425,2.591,2.6519,2.7083,2.7723,2.8549,2.9943,3.0254,3.0435,3.1278,3.1409,3.1409,3.1409,3.0115,2.9444,3.0604,3.0825,3.106,3.153,3.2475,3.2565,3.1209,3.1926,3.2184,3.1526,3.1482,3.1482,3.1482,3.1482,3.1467,3.1437,3.1449,3.1439,3.1459,3.1438,3.1452,3.1452,3.1467,3.1853,3.2532,3.2532,3.1848,0.7919,0.6956,0.6215,0.6209,0.5009,0.3904,0.4204,0.4565,0.4856,0.4857,0.5461,0.6193,0.7107,0.0,0.0,0.0,0.0,0.0,0.0,2.489,2.7397,2.8061,2.9232,3.0424,3.1529,3.0774,3.0335,3.0679,2.9976,2.966,3.0017,2.8998,2.8404,2.8404,2.7212,2.5998,2.4794,2.4001,2.2998,2.1742,2.1263,2.0991,2.0991,2.0829,2.0748,2.0764,2.0632,2.0565,2.0548,2.0227,2.0089,2.0054,1.9803,2.0378,2.1371,2.1602,2.1982,2.244,2.2834,2.2711,2.268,2.4568,2.5077,2.5087,2.5897,2.6496,2.6759,2.6283,2.6496,2.6966,2.7404,2.8002,2.863,2.9258,2.9564,2.9958,3.0881,3.0733,3.0613,3.1377,3.1482,3.1482,3.1482,3.1029,3.0935,3.1795,3.2703,3.3317,3.3471,3.3789,3.3672,3.2786,3.2586,3.2243,3.1541,3.1482,3.1482,3.1482,3.1482,3.133,3.0866,3.0844,3.0674,3.0273,3.1132,3.1571,3.1555,3.2477,3.3013,3.3287,3.3735,3.3198,0.9086,0.8078,0.7214,0.667,0.537,0.4351,0.4884,0.509,0.5188,0.5244,0.5385,0.58,0.6774,0.0,0.0,0.0,0.0,0.0,0.0,2.4011,2.6455,2.7124,2.9071,3.0635,3.1418,3.0993,3.0902,3.1474,3.1093,3.1102,3.1655,3.0549,2.9872,2.9872,2.8335,2.7058,2.6107,2.4996,2.3917,2.2836,2.2006,2.1549,2.1462,2.1291,2.1213,2.1213,2.1055,2.0991,2.0959,2.0682,2.055,2.0516,2.007,2.0591,2.1568,2.1669,2.2248,2.3056,2.346,2.3334,2.3318,2.5027,2.5615,2.5759,2.6652,2.7203,2.7509,2.7034,2.7255,2.7724,2.8427,2.9086,2.9744,3.0357,3.0687,3.0986,3.1377,3.118,3.1001,3.145,3.1482,3.1482,3.1482,3.1482,3.1764,3.2422,3.3245,3.3858,3.4098,3.4128,3.3873,3.3215,3.2766,3.2243,3.1541,3.1482,3.1482,3.1482,3.1482,3.1345,3.0881,3.0866,3.0949,3.1082,3.1662,3.2191,3.2678,3.3303,3.3702,3.3968,3.4415,3.4149]},{"header":{"parameterUnit":"m.s-1","parameterCategory":1,"la1":30.6,"la2":29.2853,"lo1":-89.7004,"lo2":-87.6739,"dy":0.0162,"dx":0.0183,"nx":112,"ny":82,"refTime":"2023-08-19T06:00:00:Z","depth":0,"parameterNumber":3,"parameterNumberName":"V-component_of_WINDS"},"data":[0.0,0.0,0.0,0.0,0.0,0.0,0.0,0.0,0.0,0.0,0.0,0.0,0.0,0.0,0.0,0.0,0.0,0.0,0.0,0.0,0.0,0.0,0.0,0.0,0.0,0.0,0.0,0.0,0.0,0.0,0.0,0.0,0.0,0.0,0.0,0.0,0.0,0.0,0.0,0.0,0.0,0.0,0.0,0.0,0.0,0.0,0.0,0.0,0.0,0.0,0.0,0.0,0.0,0.0,0.0,0.0,0.0,0.0,0.0,0.0,0.0,0.0,0.0,0.0,0.0,0.0,0.0,0.0,0.0,0.0,0.0,0.0,0.0,0.0,0.0,0.0,0.0,0.0,0.0,0.0,0.0,0.0,0.0,0.0,0.0,0.0,0.0,0.0,0.0,0.0,1.1393,1.0981,0.6225,0.123,-0.3551,-0.7468,-1.186,-1.7101,0.0,0.0,0.0,0.0,0.0,0.0,0.0,0.0,0.0,0.0,0.0,0.0,0.0,0.0,0.0,0.0,0.0,0.0,0.0,0.0,0.0,0.0,0.0,0.0,0.0,0.0,0.0,0.0,0.0,0.0,0.0,0.0,0.0,0.0,0.0,0.0,0.0,0.0,0.0,0.0,0.0,0.0,0.0,0.0,0.0,0.0,0.0,0.0,0.0,0.0,0.0,0.0,0.0,0.0,0.0,0.0,0.0,0.0,0.0,0.0,0.0,0.0,0.0,0.0,0.0,0.0,0.0,0.0,0.0,0.0,0.0,0.0,0.0,0.0,0.0,0.0,0.0,0.0,0.0,0.0,0.0,0.0,0.0,0.0,0.0,0.0,0.0,0.0,0.0,0.0,0.0,0.0,0.0,0.0,0.0,0.0,0.0,0.0,0.0,0.0,0.0,0.0,0.0,0.0,0.998,0.7623,0.4351,0.0958,-0.2458,-0.7736,-1.2486,-1.6338,0.0,0.0,0.0,0.0,0.0,0.0,0.0,0.0,0.0,0.0,0.0,0.0,0.0,0.0,0.0,0.0,0.0,0.0,0.0,0.0,0.0,0.0,0.0,0.0,0.0,0.0,0.0,0.0,0.0,0.0,0.0,0.0,0.0,0.0,0.0,0.0,0.0,0.0,0.0,0.0,0.0,0.0,0.0,0.0,0.0,0.0,0.0,0.0,0.0,0.0,0.0,0.0,0.0,0.0,0.0,0.0,0.0,0.0,0.0,0.0,0.0,0.0,0.0,0.0,0.0,0.0,0.0,0.0,0.0,0.0,0.0,0.0,0.0,0.0,0.0,0.0,0.0,0.0,0.0,0.0,0.0,0.0,0.0,0.0,0.0,0.0,0.0,0.0,0.0,0.0,0.0,0.0,0.0,0.0,0.0,0.0,0.0,0.0,0.0,0.0,0.0,0.0,0.0,1.2261,1.0327,0.797,0.4812,0.13,-0.2773,-0.7031,-1.1598,-1.6633,-1.882,0.0,0.0,0.0,0.0,0.0,0.0,0.0,0.0,0.0,0.0,0.0,0.0,0.0,0.0,0.0,0.0,0.0,0.0,0.0,0.0,0.0,0.0,0.0,0.0,0.0,0.0,0.0,0.0,0.0,0.0,0.0,0.0,0.0,0.0,0.0,0.0,0.0,0.0,0.0,0.0,0.0,0.0,0.0,0.0,0.0,0.0,0.0,0.0,0.0,0.0,0.0,0.0,0.0,0.0,0.0,0.0,0.0,0.0,0.0,0.0,0.0,0.0,0.0,0.0,0.0,0.0,0.0,0.0,0.0,0.0,0.0,0.0,0.0,0.0,0.0,0.0,0.0,0.0,0.0,0.0,0.0,0.0,0.0,0.0,0.0,0.0,0.0,0.0,0.0,0.0,0.0,0.0,0.0,0.0,0.0,0.0,0.0,0.0,0.0,0.0,0.0,0.0,1.2811,1.0781,0.8469,0.5215,0.1424,-0.3063,-0.6562,-1.1047,-1.6965,-1.8897,0.0,0.0,0.0,0.0,0.0,0.0,0.0,0.0,0.0,0.0,0.0,0.0,0.0,0.0,0.0,0.0,0.0,0.0,0.0,0.0,0.0,0.0,0.0,0.0,0.0,0.0,0.0,0.0,0.0,0.0,0.0,0.0,0.0,0.0,0.0,0.0,0.0,0.0,0.0,0.0,0.0,0.0,0.0,0.0,0.0,0.0,0.0,0.0,0.0,0.0,0.0,0.0,0.0,0.0,0.0,0.0,0.0,0.0,0.0,0.0,0.0,0.0,0.0,0.0,0.0,0.0,0.0,0.0,0.0,0.0,0.0,0.0,0.0,0.0,0.0,0.0,0.0,0.0,0.0,0.0,0.0,0.0,0.0,0.0,0.0,0.0,0.0,0.0,0.0,0.0,0.0,0.0,0.0,0.0,0.0,0.0,0.0,0.0,0.0,0.0,0.0,0.0,1.2493,1.0428,0.7106,0.4177,0.1004,-0.2626,-0.713,-1.1884,-1.6908,-1.9241,0.0,0.0,0.0,0.0,0.0,0.0,0.0,0.0,0.0,0.0,0.0,0.0,0.0,0.0,0.0,0.0,0.0,0.0,0.0,0.0,0.0,0.0,0.0,0.0,0.0,0.0,0.0,0.0,0.0,0.0,0.0,0.0,0.0,0.0,0.0,0.0,0.0,0.0,0.0,0.0,0.0,0.0,0.0,0.0,0.0,0.0,0.0,0.0,0.0,0.0,0.0,0.0,0.0,0.0,0.0,0.0,0.0,0.0,0.0,0.0,0.0,0.0,0.0,0.0,0.0,0.0,0.0,0.0,0.0,0.0,0.0,0.0,0.0,0.0,0.0,0.0,0.0,0.0,0.0,0.0,0.0,0.0,0.0,0.0,0.0,0.0,0.0,0.0,0.0,0.0,0.0,0.0,0.0,0.0,0.0,0.0,0.0,0.0,0.0,0.0,0.0,0.0,1.2378,0.998,0.6892,0.4131,0.088,-0.3245,-0.7396,-1.1896,-1.6906,0.0,0.0,0.0,0.0,0.0,0.0,0.0,0.0,0.0,0.0,0.0,0.0,0.0,0.0,0.0,0.0,0.0,0.0,0.0,0.0,0.0,0.0,0.0,0.0,0.0,0.0,0.0,0.0,0.0,0.0,0.0,0.0,0.0,0.0,0.0,0.0,0.0,0.0,0.0,0.0,0.0,0.0,0.0,0.0,0.0,0.0,0.0,0.0,0.0,0.0,0.0,0.0,0.0,0.0,0.0,0.0,0.0,0.0,0.0,0.0,0.0,0.0,0.0,0.0,0.0,0.0,0.0,0.0,0.0,0.0,0.0,0.0,0.0,0.0,0.0,0.0,0.0,0.0,0.0,0.0,0.0,0.0,0.0,0.0,0.0,0.0,0.0,0.0,0.0,0.0,0.0,0.0,0.0,0.0,0.0,0.0,0.0,0.0,0.0,0.0,0.0,0.0,1.4597,1.2108,0.9357,0.6493,0.3666,0.0289,-0.3903,-0.7772,-1.2068,-1.6998,0.0,0.0,0.0,0.0,0.0,0.0,0.0,0.0,0.0,0.0,0.0,0.0,0.0,0.0,0.0,0.0,0.0,0.0,0.0,0.0,0.0,0.0,0.0,0.0,0.0,0.0,0.0,0.0,0.0,0.0,0.0,0.0,0.0,0.0,0.0,0.0,0.0,0.0,0.0,0.0,0.0,0.0,0.0,0.0,0.0,0.0,0.0,0.0,0.0,0.0,0.0,0.0,0.0,0.0,0.0,0.0,0.0,0.0,0.0,0.0,0.0,0.0,0.0,0.0,0.0,0.0,0.0,0.0,0.0,0.0,0.0,0.0,0.0,0.0,0.0,0.0,0.0,0.0,0.0,0.0,0.0,0.0,0.0,0.0,0.0,0.0,0.0,0.0,0.0,0.0,0.0,0.0,0.0,0.0,0.0,0.0,0.0,0.0,0.0,0.0,0.0,0.0,1.4505,1.1571,0.8619,0.5761,0.2602,-0.0816,-0.4516,-0.8294,-1.2511,0.0,0.0,0.0,0.0,0.0,0.0,0.0,0.0,0.0,0.0,0.0,0.0,0.0,0.0,0.0,0.0,0.0,0.0,0.0,0.0,0.0,0.0,0.0,0.0,0.0,0.0,0.0,0.0,0.0,0.0,0.0,0.0,0.0,0.0,0.0,0.0,0.0,0.0,0.0,0.0,0.0,0.0,0.0,0.0,0.0,0.0,0.0,0.0,0.0,0.0,0.0,0.0,0.0,0.0,0.0,0.0,0.0,0.0,0.0,0.0,0.0,0.0,0.0,0.0,0.0,0.0,0.0,0.0,0.0,0.0,0.0,0.0,0.0,0.0,0.0,0.0,0.0,0.0,0.0,0.0,0.0,0.0,0.0,0.0,0.0,0.0,0.0,0.0,0.0,0.0,0.0,0.0,0.0,0.0,0.0,0.0,0.0,0.0,0.0,0.0,0.0,0.0,0.0,1.325,1.0186,0.6938,0.3664,0.1261,-0.1627,-0.5314,-0.8627,-1.2361,-1.6739,0.0,0.0,0.0,0.0,0.0,0.0,0.0,0.0,0.0,0.0,0.0,0.0,0.0,0.0,0.0,0.0,0.0,0.0,0.0,0.0,0.0,0.0,0.0,0.0,0.0,0.0,0.0,0.0,0.0,0.0,0.0,0.0,0.0,0.0,0.0,0.0,0.0,0.0,0.0,0.0,0.0,0.0,0.0,0.0,0.0,0.0,0.0,0.0,0.0,0.0,0.0,0.0,0.0,0.0,0.0,0.0,0.0,0.0,0.0,0.0,0.0,0.0,0.0,0.0,0.0,0.0,0.0,0.0,0.0,0.0,0.0,0.0,0.0,0.0,0.0,0.0,0.0,0.0,0.0,0.0,0.0,0.0,0.0,0.0,0.0,0.0,0.0,0.0,0.0,0.0,0.0,0.0,0.0,0.0,0.0,0.0,0.0,0.0,0.0,0.0,0.0,0.0,1.1422,0.8311,0.5084,0.1929,-0.0549,-0.3372,-0.6699,-0.9542,-1.2722,-1.6296,0.0,0.0,0.0,0.0,0.0,0.0,0.0,0.0,0.0,0.0,0.0,0.0,0.0,0.0,0.0,0.0,0.0,0.0,0.0,0.0,0.0,0.0,0.0,0.0,0.0,0.0,0.0,0.0,0.0,0.0,0.0,0.0,0.0,0.0,0.0,0.0,0.0,0.0,0.0,0.0,0.0,0.0,0.0,0.0,0.0,0.0,0.0,0.0,0.0,0.0,0.0,0.0,0.0,0.0,0.0,0.0,0.0,0.0,0.0,0.0,0.0,0.0,0.0,0.0,0.0,0.0,0.0,0.0,0.0,0.0,0.0,0.0,0.0,0.0,0.0,0.0,0.0,0.0,0.0,0.0,0.0,0.0,0.0,0.0,0.0,0.0,0.0,0.0,0.0,0.0,0.0,0.0,0.0,0.0,0.0,0.0,0.0,0.0,0.0,0.0,0.0,0.0,0.8665,0.5652,0.266,0.0206,-0.282,-0.5703,-0.831,-1.0851,-1.3357,-1.5918,0.0,0.0,0.0,0.0,0.0,0.0,0.0,0.0,0.0,0.0,0.0,0.0,0.0,0.0,0.0,0.0,0.0,0.0,0.0,0.0,0.0,0.0,0.0,0.0,0.0,0.0,0.0,0.0,0.0,0.0,0.0,0.0,0.0,0.0,0.0,0.0,0.0,0.0,0.0,0.0,0.0,0.0,0.0,0.0,0.0,0.0,0.0,0.0,0.0,0.0,0.0,0.0,0.0,0.0,0.0,0.0,0.0,0.0,0.0,0.0,-2.2745,-2.2112,0.0,0.0,0.0,0.0,0.0,0.0,0.0,0.0,0.0,0.0,0.0,0.0,0.0,0.0,0.0,0.0,0.0,0.0,0.0,0.0,0.0,0.0,0.0,0.0,0.0,0.0,0.0,0.0,0.0,0.0,0.0,0.0,0.0,0.0,0.0,0.0,0.0,0.0,0.0,0.0,0.2777,0.0156,-0.2075,-0.33,-0.5825,-0.8034,-0.9548,-1.1554,-1.3703,-1.5891,-1.7677,0.0,0.0,0.0,0.0,0.0,0.0,0.0,0.0,0.0,0.0,0.0,0.0,0.0,0.0,0.0,0.0,0.0,0.0,0.0,0.0,0.0,0.0,0.0,0.0,0.0,0.0,0.0,0.0,0.0,0.0,0.0,0.0,0.0,0.0,0.0,0.0,0.0,0.0,0.0,0.0,0.0,0.0,0.0,0.0,0.0,0.0,0.0,0.0,0.0,0.0,0.0,0.0,0.0,0.0,0.0,0.0,0.0,0.0,0.0,-2.2916,-2.3082,0.0,0.0,0.0,0.0,0.0,0.0,0.0,0.0,0.0,0.0,0.0,0.0,0.0,0.0,0.0,0.0,0.0,0.0,0.0,0.0,0.0,0.0,0.0,0.0,0.0,0.0,0.0,0.0,0.0,0.0,0.0,0.0,0.0,0.0,0.0,0.0,0.0,0.0,0.0,0.0,-0.1532,-0.3442,-0.5162,-0.6233,-0.8213,-0.9935,-1.1015,-1.2636,-1.426,-1.5712,-1.763,0.0,0.0,0.0,0.0,0.0,0.0,0.0,0.0,0.0,0.0,0.0,0.0,0.0,0.0,0.0,0.0,0.0,0.0,0.0,0.0,0.0,0.0,0.0,0.0,0.0,0.0,0.0,0.0,0.0,0.0,0.0,0.0,0.0,0.0,0.0,0.0,0.0,0.0,0.0,0.0,0.0,0.0,0.0,0.0,0.0,0.0,0.0,0.0,0.0,0.0,0.0,0.0,0.0,-2.6358,-2.5743,-2.4819,-2.4925,-2.4622,-2.4141,-2.4125,-2.4896,-2.6071,-2.5469,0.0,0.0,0.0,0.0,0.0,0.0,0.0,0.0,0.0,0.0,0.0,0.0,0.0,0.0,0.0,0.0,0.0,0.0,0.0,0.0,0.0,0.0,-1.5548,-1.5076,-1.5304,-1.5426,-1.4633,0.0,0.0,0.0,0.0,0.0,0.0,0.0,0.0,0.0,0.0,0.0,-0.5885,-0.6901,-0.8062,-0.9136,-1.0551,-1.1813,-1.261,-1.3845,-1.4914,-1.5677,-1.7713,-1.9088,0.0,0.0,0.0,0.0,0.0,0.0,0.0,0.0,0.0,0.0,0.0,0.0,0.0,0.0,0.0,0.0,0.0,0.0,0.0,0.0,0.0,0.0,0.0,0.0,0.0,0.0,0.0,0.0,0.0,0.0,0.0,0.0,-3.0238,-3.0317,0.0,0.0,0.0,0.0,0.0,0.0,0.0,0.0,0.0,0.0,0.0,0.0,0.0,-2.8114,-2.8709,-2.7548,-2.7083,-2.7382,-2.7736,-2.7778,-2.7699,-2.8161,-2.8332,-2.8206,-2.8249,0.0,-2.5351,-2.5244,0.0,0.0,0.0,0.0,0.0,0.0,0.0,0.0,0.0,0.0,0.0,0.0,0.0,0.0,0.0,0.0,0.0,0.0,0.0,0.0,0.0,0.0,-1.7177,-1.7663,-1.7359,-1.7089,-1.751,-1.6983,-1.691,-1.8636,-1.817,-1.784,0.0,0.0,0.0,0.0,0.0,0.0,-1.2365,-1.2557,-1.2797,-1.291,-1.3623,-1.4113,-1.4109,-1.493,-1.5649,-1.6188,-1.7641,-1.8785,-1.9475,-2.0832,0.0,0.0,0.0,0.0,0.0,0.0,0.0,0.0,0.0,0.0,0.0,0.0,0.0,0.0,0.0,0.0,0.0,0.0,0.0,0.0,0.0,0.0,0.0,0.0,0.0,0.0,0.0,0.0,0.0,-3.0257,-3.0525,-3.0328,-3.0672,-3.0682,0.0,0.0,0.0,0.0,0.0,0.0,0.0,0.0,0.0,-3.0441,-2.9627,-2.9134,-2.9117,-2.8512,-2.824,-2.8369,-2.8538,-2.8664,-2.8678,-2.8878,-2.9002,-2.8975,-2.8581,-2.8097,-2.7499,-2.7467,-2.8307,-2.9436,0.0,0.0,0.0,0.0,-3.0038,-3.0782,-3.0559,-3.0547,-3.0401,-2.9292,0.0,0.0,0.0,0.0,0.0,0.0,0.0,-2.2349,-2.1405,-2.0229,-1.9346,-1.9659,-1.9185,-1.8746,-1.906,-1.8398,-1.817,-1.9297,-1.9415,-1.9469,-2.003,-1.9315,0.0,0.0,0.0,-1.5804,-1.5175,-1.5122,-1.5017,-1.4637,-1.5249,-1.5497,-1.5106,-1.5818,-1.6438,-1.685,-1.8393,-1.9529,-2.0042,-2.1642,-2.2863,0.0,0.0,0.0,0.0,0.0,0.0,0.0,0.0,0.0,0.0,0.0,0.0,0.0,0.0,0.0,0.0,0.0,0.0,0.0,0.0,0.0,0.0,0.0,0.0,0.0,0.0,0.0,0.0,-3.02,-3.0288,-2.9887,-3.0441,-3.0508,0.0,0.0,0.0,0.0,0.0,0.0,-3.2372,-3.2165,-3.1748,-3.1102,-3.0532,-3.0162,-3.0119,-2.9643,-2.949,-2.9628,-2.9628,-2.9737,-2.9893,-2.9737,-2.9761,-2.9834,-2.9152,-2.9218,-2.9829,-2.9433,-2.9906,-3.0724,-3.0456,-3.0757,-3.1365,-3.1177,-3.1887,-3.2985,-3.3298,-3.3319,-3.3006,-3.2107,-3.0773,-2.9233,-2.7846,0.0,0.0,0.0,0.0,-2.4395,-2.3555,-2.2367,-2.1427,-2.16,-2.0868,-2.0141,-2.0339,-1.9867,-1.9572,-2.0006,-2.0339,-2.0648,-2.0964,-2.0627,0.0,-1.8879,-1.8276,-1.7787,-1.737,-1.7183,-1.6889,-1.6354,-1.6655,-1.664,-1.5953,-1.6517,-1.7076,-1.7382,-1.9121,-2.0274,-2.0657,-2.2429,-2.3627,-2.4063,0.0,0.0,0.0,0.0,0.0,0.0,0.0,0.0,0.0,0.0,0.0,0.0,0.0,0.0,0.0,0.0,0.0,0.0,0.0,0.0,0.0,0.0,0.0,0.0,0.0,0.0,0.0,0.0,0.0,-2.8628,-2.906,0.0,0.0,0.0,0.0,-3.1912,-3.1718,-3.2036,-3.3094,-3.236,-3.2348,-3.3243,-3.1309,-3.0937,-3.2348,-3.0935,-3.0644,-3.1351,-3.1351,-3.1724,-3.2422,-3.1667,-3.1738,-3.2289,-3.1554,-3.1218,-3.1193,-2.9863,-3.0182,-3.1616,-3.2209,-3.2844,-3.3355,-3.2734,-3.2942,-3.347,-3.2873,-3.2194,-3.1719,-3.2253,-3.1073,-2.9505,-3.0092,-2.9486,0.0,0.0,-2.711,-2.6725,-2.5409,-2.4049,-2.3131,-2.3761,-2.2401,-2.1099,-2.1766,-2.1369,-2.0836,-2.0669,-2.0251,-2.0251,-2.1193,0.0,-2.1065,-2.0218,-2.0085,-2.005,-2.0012,-1.9562,-1.9099,-1.8756,-1.8312,-1.7663,-1.6807,-1.7076,-1.7382,-1.767,-1.9436,-2.0679,-2.1146,-2.2957,-2.4063,-2.429,-2.4742,0.0,0.0,0.0,0.0,0.0,0.0,0.0,0.0,0.0,0.0,0.0,0.0,0.0,0.0,0.0,0.0,0.0,0.0,0.0,0.0,0.0,0.0,0.0,0.0,0.0,0.0,0.0,0.0,-2.8068,-2.8523,0.0,-2.7828,-2.9588,-3.0959,-3.1258,-3.2068,-3.263,-3.2788,-3.2872,-3.2909,-3.2806,-3.2542,-3.2587,-3.3138,-3.2634,-3.2512,-3.2864,-3.2864,-3.2971,-3.3235,-3.2478,-3.2289,-3.241,-3.1241,-3.0767,-3.0767,-3.0687,-3.0974,-3.1492,-3.1723,-3.2225,-3.2818,-3.2557,-3.3186,-3.4159,-3.3902,-3.3659,-3.3299,-3.261,-3.1547,-3.0609,-3.0875,-3.0392,-2.9554,-2.8763,-2.7923,-2.6936,-2.5492,-2.4132,-2.3055,-2.2812,-2.1837,-2.1071,-2.1311,-2.1167,-2.0972,-2.0918,-2.1075,-2.1502,-2.2294,-2.2082,-2.1677,-2.1381,-2.1011,-2.072,-2.0699,-2.0111,-1.9515,-1.8946,-1.8491,-1.7942,-1.7183,-1.7585,-1.7936,-1.8005,-2.0067,-2.1352,-2.1513,-2.345,-2.4613,-2.4799,-2.5021,-2.5171,0.0,0.0,0.0,0.0,0.0,0.0,0.0,0.0,0.0,0.0,0.0,0.0,0.0,0.0,0.0,0.0,0.0,0.0,0.0,0.0,0.0,0.0,0.0,0.0,0.0,-2.88,-2.8101,-2.7202,-2.7683,-2.7788,-2.7021,-2.8747,-3.0179,-3.0721,-3.1659,-3.2299,-3.2557,-3.2699,-3.2894,-3.3123,-3.315,-3.3426,-3.3881,-3.3412,-3.3171,-3.3246,-3.3246,-3.3219,-3.3177,-3.2704,-3.2498,-3.2346,-3.093,-3.0474,-3.068,-3.0882,-3.1179,-3.156,-3.1949,-3.236,-3.2752,-3.2752,-3.3345,-3.4105,-3.4024,-3.4098,-3.4047,-3.3055,-3.2107,-3.1443,-3.1559,-3.1023,-3.0224,-2.935,-2.853,-2.7612,-2.6368,-2.4977,-2.377,-2.3302,-2.2391,-2.1652,-2.1724,-2.1703,-2.1657,-2.1736,-2.1874,-2.2111,-2.2469,-2.2442,-2.2345,-2.2241,-2.1933,-2.1736,-2.1736,-2.1093,-2.0334,-1.9641,-1.9094,-1.8508,-1.7794,-1.8353,-1.8676,-1.855,-2.0788,-2.208,-2.2002,-2.3855,-2.4969,-2.5156,-2.5222,-2.5239,-2.5261,0.0,0.0,0.0,0.0,0.0,0.0,0.0,0.0,0.0,0.0,0.0,0.0,0.0,0.0,0.0,0.0,0.0,0.0,0.0,0.0,0.0,0.0,0.0,-2.8693,-2.8159,-2.7289,-2.6093,-2.6504,-2.6757,-2.6449,-2.7575,-2.8889,-3.032,-3.0488,-3.1025,-3.2344,-3.1842,-3.2318,-3.4266,-3.3161,-3.3199,-3.4526,-3.3163,-3.2492,-3.2542,-3.2542,-3.2466,-3.2455,-3.2482,-3.2422,-3.2222,-3.0833,-3.0601,-3.1145,-3.0434,-3.0785,-3.1875,-3.2917,-3.3363,-3.333,-3.333,-3.333,-3.325,-3.3038,-3.3199,-3.3499,-3.3491,-3.268,-3.1829,-3.2214,-3.1528,-3.035,-2.9281,-2.9004,-2.882,-2.8067,-2.6692,-2.5509,-2.5464,-2.4171,-2.2965,-2.3159,-2.3041,-2.2988,-2.3153,-2.2567,-2.194,-2.1697,-2.2441,-2.2994,-2.273,-2.2996,0.0,-2.3189,-2.2475,-2.1693,-2.1015,-2.0194,-1.9396,-1.8691,-1.9351,-1.965,-1.9259,-2.1541,-2.2812,-2.2645,-2.4183,-2.5099,-2.5293,-2.5293,-2.5192,-2.4986,0.0,0.0,0.0,0.0,0.0,0.0,0.0,0.0,0.0,0.0,0.0,0.0,0.0,0.0,0.0,0.0,0.0,0.0,0.0,0.0,0.0,-3.0242,-2.9868,-2.8898,-2.7604,-2.6643,-2.6524,-2.641,-2.6343,-2.6258,-2.7615,-2.8682,-2.9083,-2.9583,-3.0197,-3.1009,-3.0902,-3.1228,-3.2185,-3.1876,-3.2125,-3.3012,-3.2637,-3.2672,-3.314,-3.314,-3.3128,-3.3117,-3.2577,-3.2529,-3.2741,-3.1781,-3.1315,-3.127,-3.106,-3.0797,-3.0672,-3.1787,-3.2083,-3.1865,-3.1865,-3.1498,-3.1097,-3.1589,-3.1458,-3.1062,-3.1067,-3.0832,-3.0589,-3.0712,-3.0501,-3.0071,-2.9219,-2.9013,-2.8703,-2.7442,-2.631,-2.5387,-2.4837,-2.3892,-2.3135,-2.3194,-2.3153,-2.3136,-2.3189,-2.3038,-2.2859,-2.2772,-2.2987,-2.315,-2.3063,-2.3141,-2.3189,-2.3189,-2.202,-2.1348,-2.1724,-2.0554,-1.9686,-1.9493,-1.9939,-2.0219,-2.0144,-2.1746,-2.293,-2.3438,-2.4645,-2.5283,-2.5234,-2.5184,-2.5021,0.0,0.0,0.0,0.0,0.0,0.0,0.0,0.0,0.0,0.0,0.0,0.0,0.0,0.0,0.0,0.0,0.0,0.0,0.0,0.0,0.0,0.0,-3.1757,-3.1404,-3.0313,-2.8531,-2.7442,-2.7701,-2.7026,-2.663,-2.6722,-2.757,-2.8142,-2.8188,-2.9033,-2.971,-3.0033,-3.0017,-3.0561,-3.1749,-3.1521,-3.1867,-3.2796,-3.2497,-3.2562,-3.2933,-3.3121,-3.3054,-3.273,-3.2827,-3.2622,-3.2231,-3.148,-3.1019,-3.0773,-3.0468,-3.0366,-3.0427,0.0,0.0,0.0,0.0,-3.0641,-3.0459,-3.0921,-3.0884,-3.064,-3.064,-3.0514,-3.0362,-3.0181,-3.0011,-2.9775,-2.9169,-2.8989,-2.8712,-2.7529,-2.6591,-2.577,-2.5003,-2.4198,-2.3645,-2.3743,-2.3664,-2.3628,-2.3739,-2.3664,0.0,-2.3744,-2.3552,-2.3414,-2.3414,-2.3522,-2.3628,-2.3628,-2.253,-2.185,-2.2039,-2.0934,-2.0098,-1.9819,-2.0662,0.0,0.0,0.0,-2.3842,-2.4405,-2.5023,0.0,0.0,0.0,-2.4922,-2.4666,-2.5036,0.0,0.0,-2.6146,-2.6356,0.0,0.0,0.0,0.0,0.0,0.0,0.0,0.0,0.0,0.0,0.0,0.0,0.0,0.0,0.0,0.0,-3.3566,-3.3272,-3.2827,-3.0934,-2.9449,-2.9281,-2.8241,-2.7577,-2.7664,-2.781,-2.7827,-2.7825,-2.8947,-2.9595,-2.9499,-2.9496,0.0,0.0,0.0,-3.1917,-3.3083,-3.2439,-3.2089,-3.2043,-3.2559,-3.24,-3.1654,-3.2792,-3.2555,-3.1221,-3.0561,-3.0224,-3.0064,-2.9443,-2.9761,-3.0631,-3.0279,-3.0118,-3.0172,-3.0168,-3.0394,-3.0679,-3.0786,0.0,0.0,-3.1207,-3.0958,-3.0613,-3.0253,-2.989,-2.9557,-2.9174,-2.9076,-2.8879,-2.8066,-2.7281,-2.6465,-2.5662,-2.4855,-2.4321,-2.4505,-2.4395,-2.4321,-2.4487,-2.4376,-2.4321,-2.4476,-2.4118,-2.3798,-2.3821,-2.4077,-2.4284,-2.4284,-2.3548,-2.2862,-2.2374,-2.1585,0.0,-2.0269,-2.1595,-2.2217,-2.1623,-2.3744,-2.5111,-2.5284,-2.5303,-2.5303,-2.5264,-2.5088,-2.4924,-2.4804,-2.4623,-2.5004,-2.5912,-2.6391,-2.6484,0.0,0.0,0.0,0.0,0.0,0.0,0.0,0.0,0.0,0.0,0.0,0.0,0.0,0.0,0.0,-3.5701,-3.5725,-3.5999,-3.6621,-3.5226,-3.3196,-3.0731,-3.0023,-2.9471,-2.903,-2.9564,-2.9741,-2.9196,-2.9847,-3.0264,-3.0113,-3.0123,-3.0543,-3.1393,-3.1314,-3.1218,-3.1141,-3.0986,-3.0785,-3.0534,-3.128,0.0,-3.0454,-3.1341,-3.1422,-3.0884,-3.0769,-3.0487,-3.0195,-3.0262,-3.0145,-2.9922,-3.0099,-3.0326,-3.0508,-3.0504,-3.0257,-3.0009,-3.0654,-3.0504,-3.002,-3.002,-2.9979,-2.9893,-2.9824,-2.9727,0.0,-2.9591,-2.9561,-2.9373,-2.8511,-2.7709,-2.6894,-2.6077,-2.5284,-2.4692,-2.4729,-2.472,-2.4673,-2.4601,-2.464,-2.4671,-2.4588,-2.4452,-2.4389,-2.4554,-2.4636,-2.4685,-2.4685,-2.3934,-2.361,-2.4204,-2.3484,-2.2927,-2.2803,-2.3221,-2.345,-2.3324,-2.453,-2.5264,-2.5303,-2.5303,-2.5224,-2.5057,-2.5022,-2.4924,-2.4804,-2.476,-2.4922,-2.529,-2.5852,-2.6623,0.0,0.0,0.0,0.0,0.0,0.0,0.0,0.0,0.0,0.0,0.0,-3.7848,0.0,0.0,-3.9586,-3.924,-3.8885,-3.8608,-3.8354,-3.7356,-3.5895,-3.4045,-3.3074,-3.2267,-3.1595,-3.1883,-3.1697,-3.0621,-3.1115,-3.1385,-3.1224,-3.1099,-3.1304,-3.1823,-3.186,-3.1585,-3.0956,-3.0938,-3.0653,-3.0123,-3.0759,-3.0832,-3.0475,-3.1085,-3.1111,-3.0693,-3.0693,-3.0406,-2.9971,-3.0074,-2.9964,-2.9716,-2.9866,-3.0032,-3.0151,-3.0152,-2.9945,-2.977,-3.0169,-3.0031,-2.9698,-2.9698,-2.969,-2.971,-2.9709,-2.9699,-2.9698,-2.9717,-2.9397,-2.8871,-2.8024,-2.7191,-2.6401,-2.5593,-2.5086,-2.4816,-2.4889,-2.4853,-2.4803,-2.4799,-2.4742,-2.4714,-2.4777,-2.4747,-2.4714,-2.4785,-2.4804,-2.4804,-2.4804,-2.4426,-2.4204,-2.4289,-2.3904,-2.3505,-2.3187,-2.3645,-2.4147,-2.4579,-2.5052,-2.5322,-2.5341,-2.5322,-2.5253,-2.5152,-2.5046,-2.4962,-2.4904,-2.4828,-2.5064,-2.5559,-2.5856,-2.6463,0.0,0.0,0.0,0.0,0.0,0.0,0.0,0.0,-3.9226,-3.9797,-4.0117,-4.0664,-4.1904,-4.2598,-4.2846,-4.2341,-4.1799,-4.0934,-3.9627,-3.8969,-3.8395,-3.7843,-3.6332,-3.5104,-3.4494,-3.4398,-3.3794,-3.239,-3.263,-3.2656,-3.2195,-3.2046,-3.2092,-3.2484,-3.2343,-3.1915,-3.12,-3.104,-3.0609,-2.9905,-3.0448,-3.064,-3.0531,-3.1023,-3.0946,-3.0424,-3.0424,-3.0171,-2.9746,-2.9746,-2.9799,-2.9832,-2.9832,-2.9832,-2.9832,-2.9765,-2.9782,-2.9829,-2.9844,-2.9844,-2.9848,-2.9848,-2.9851,-2.9842,-2.9838,-2.9838,-2.984,-2.9845,-2.9216,-2.8341,-2.7547,-2.6724,-2.5908,-2.5099,-2.49,-2.4926,-2.503,-2.4968,-2.4926,-2.503,-2.4873,-2.4802,-2.5031,-2.5008,-2.496,-2.491,-2.4902,-2.4902,-2.4902,-2.4902,-2.4689,-2.4175,-2.411,-2.3905,-2.3361,-2.3975,-2.4659,-2.539,-2.537,-2.536,-2.5428,-2.537,-2.5341,-2.5341,-2.5171,-2.5084,-2.5084,-2.4962,-2.5215,-2.58,-2.58,-2.6173,-4.2457,-4.2026,-4.2408,-4.3893,-4.3535,-4.3747,0.0,0.0,-4.481,-4.6722,-4.5978,-4.4912,-4.4711,-4.4348,-4.3775,-4.3032,-4.2829,-4.2485,-4.1622,-4.1402,-4.1314,-4.1227,-3.8901,-3.7235,-3.7081,-3.6987,-3.6259,-3.4737,-3.4568,-3.3934,-3.2526,-3.2419,-3.2451,-3.2484,-3.1812,-3.1244,-3.0869,-3.015,-2.9574,-2.9132,-2.9893,-3.0005,-2.9588,-3.0333,-3.0351,-2.9793,-2.9793,-2.9874,-2.9969,-2.9969,-3.0109,-3.0311,-3.0311,-3.0311,-3.0286,-3.006,-3.0118,-3.0311,-3.0323,-3.0328,-3.0321,-3.0321,-3.0328,-3.0316,-3.0321,-3.0328,-3.0323,-3.0311,-2.969,-2.8848,-2.8018,-2.7181,-2.6314,-2.5437,-2.5235,-2.5245,-2.5264,-2.5254,-2.5245,-2.5264,-2.5235,-2.5226,-2.5264,-2.5264,-2.5244,-2.5243,-2.5243,-2.5243,-2.5243,-2.5243,-2.5234,-2.5225,-2.5206,-2.5216,-2.5197,-2.5293,-2.539,-2.5486,-2.5478,-2.5479,-2.5495,-2.5486,-2.5486,-2.5486,-2.5389,-2.537,-2.537,-2.5273,-2.5198,-2.5107,-2.5107,-2.584,-4.3497,-4.3626,-4.4064,0.0,-4.5483,-4.5515,-4.7914,-4.7127,-4.6366,-4.798,-4.7736,-4.7298,-4.7605,-4.7453,-4.6873,0.0,-4.5132,-4.4381,-4.292,-4.2356,-4.2246,-4.2553,-4.156,-4.044,-3.9485,-3.887,-3.7958,-3.6391,-3.5364,-3.4427,-3.3591,-3.2711,-3.2331,-3.2538,-3.1789,-3.1066,-3.0462,-3.0134,-2.9698,-2.9243,-2.9576,-2.9669,-2.9589,-2.9927,-2.9999,-2.9877,-3.0037,-3.0155,-3.0222,-3.0222,-3.0299,-3.0398,-3.0398,-3.0398,-3.0398,-3.026,-3.0305,-3.0398,-3.0398,-3.0398,-3.0398,-3.0398,-3.0398,-3.0398,-3.0398,-3.0398,-3.0398,-3.0398,-2.9437,-2.8332,-2.7981,-2.6872,-2.5746,-2.539,-2.5303,-2.5303,-2.5303,-2.5303,-2.5303,-2.5341,-2.5322,-2.5322,-2.5409,-2.5428,-2.5428,-2.5428,-2.539,-2.537,-2.5409,-2.5428,-2.5427,-2.5459,-2.5466,-2.5466,-2.5505,-2.5505,-2.5519,-2.5553,-2.5518,-2.5517,-2.5554,-2.5523,-2.5505,-2.5505,-2.5466,-2.5472,-2.5466,-2.5428,-2.5379,-2.5288,-2.5288,-2.5627,-4.3701,-4.4256,0.0,-4.6397,-4.6606,-4.6791,-4.8307,-4.8022,-4.7758,-4.8998,-4.9036,-4.8996,-4.9514,-4.956,-4.9001,-4.751,-4.6787,-4.5773,-4.3978,-4.3266,-4.3109,-4.3518,-4.3569,-4.31,-4.1905,-4.0836,-3.9643,-3.8303,-3.6494,-3.5139,-3.4447,-3.3351,-3.2676,-3.2453,-3.1908,-3.1224,-3.0387,-3.0165,-2.9866,-2.9474,-2.9474,-2.9589,-2.9799,-2.9864,-2.9973,-3.0122,-3.0311,-3.0398,-3.0398,-3.0398,-3.0398,-3.0417,-3.0417,-3.0448,-3.0467,-3.0467,-3.0448,-3.0417,-3.0448,-3.0467,-3.0467,-3.0467,-3.0467,-3.0467,-3.0467,-3.0467,-3.0398,-3.0167,-2.9244,-2.8198,-2.771,-2.666,-2.564,-2.5409,-2.537,-2.537,-2.537,-2.5322,-2.5322,-2.5409,-2.5388,-2.5393,-2.549,-2.5528,-2.553,-2.5534,-2.5486,-2.5476,-2.55,-2.5533,-2.5541,-2.5531,-2.5541,-2.5554,-2.5554,-2.5554,-2.558,-2.5621,-2.5586,-2.5581,-2.5625,-2.5586,-2.5554,-2.5554,-2.5535,-2.5537,-2.5536,-2.5522,-2.5509,-2.5509,-2.5509,-2.5509,-4.237,0.0,-4.3337,-4.5338,-4.6516,-4.7816,-5.0244,-5.024,-5.0048,-5.1334,-5.0874,-5.0172,-4.9929,-4.9673,-4.9013,-4.7434,-4.7084,-4.6401,-4.4799,-4.4553,-4.4553,-4.4553,-4.4553,-4.4535,0.0,-4.3001,-4.1682,-4.0839,-3.8463,-3.633,-3.4766,-3.4634,-3.3862,-3.2165,-3.2147,-3.177,-3.0885,-3.0112,-2.9697,-2.9696,-2.9696,-2.9796,-2.9999,-3.0254,-3.0367,-3.0398,-3.0398,-3.0398,-3.0398,-3.0398,-3.0448,-3.0506,-3.0506,-3.0544,-3.0583,-3.0583,-3.0544,-3.0506,-3.0564,-3.0583,-3.0583,-3.0583,-3.0583,-3.0583,-3.0583,-3.0583,-3.0417,-2.9567,-2.9337,-2.8972,-2.7262,-2.6794,-2.6535,-2.5688,-2.5486,-2.5486,-2.5486,-2.539,-2.5341,-2.5466,-2.549,-2.5503,-2.5503,-2.5542,-2.5589,-2.5601,-2.5601,-2.5578,-2.5507,-2.555,-2.5611,-2.5592,-2.566,-2.5683,-2.5683,-2.5683,-2.5683,-2.5703,-2.5703,-2.5683,-2.5703,-2.5703,-2.5683,-2.5683,-2.5625,-2.5605,-2.5605,-2.5538,-2.5503,-2.5503,-2.5503,-2.5503,-4.1168,0.0,-4.402,-4.5833,-4.6732,-4.7553,-4.8875,-4.9059,-4.9025,-4.9368,-4.8793,-4.8222,-4.8135,-4.803,-4.7619,-4.6506,-4.677,-4.6677,-4.532,-4.5129,-4.5123,-4.5062,-4.5057,0.0,0.0,0.0,0.0,-4.0967,-3.8546,-3.6392,-3.4788,-3.3656,-3.2524,-3.1337,-3.0808,-3.0411,-3.0111,-2.9828,-2.9782,-2.9908,-3.008,-3.0202,-3.0267,-3.0393,-3.0467,-3.0467,-3.0506,-3.0525,-3.0525,-3.0525,-3.0544,-3.0568,-3.0567,-3.0587,-3.061,-3.0662,-3.0641,-3.0621,-3.0602,-3.0602,-3.0591,-3.0591,-3.0591,-3.0594,-3.0593,-3.0607,-3.0413,-2.9544,-2.8935,-2.8268,-2.7106,-2.6371,-2.5868,-2.557,-2.5506,-2.5495,-2.5505,-2.545,-2.5459,-2.5551,-2.5565,-2.5576,-2.5634,-2.5648,-2.5663,-2.5678,-2.5667,-2.5668,-2.5633,-2.5657,-2.5678,-2.5678,-2.5696,-2.5703,-2.5703,-2.5703,-2.5703,-2.5703,-2.5703,-2.5703,-2.5703,-2.5703,-2.5703,-2.5703,-2.5684,-2.5664,-2.5664,-2.564,-2.5634,-2.5634,-2.5634,-2.5632,-4.0246,-4.1778,-4.3235,-4.4747,-4.5435,-4.6066,-4.7162,-4.7513,-4.7752,-4.8261,-4.7732,-4.7176,-4.7222,-4.7184,-4.6649,-4.5234,-4.5728,-4.5901,-4.4829,-4.4694,-4.4886,-4.5453,-4.5514,-4.557,0.0,0.0,0.0,-4.1734,-3.9316,-3.7167,-3.5512,-3.3838,-3.2376,-3.1219,-3.0684,-3.0266,-2.9962,-2.9981,-3.006,-3.0226,-3.0388,-3.0467,-3.0467,-3.0525,-3.0543,-3.054,-3.0579,-3.0598,-3.0579,-3.026,-3.016,-3.021,-3.021,-3.0217,-3.029,-3.0635,-3.0775,-3.0772,-3.0729,-3.072,-3.0703,-3.0703,-3.0703,-3.0702,-3.071,-3.0712,-3.0537,-2.9655,-2.9032,-2.8365,-2.7172,-2.6458,-2.5957,-2.5645,-2.5887,-2.6157,-2.6061,-2.5792,-2.5677,-2.6032,-2.5846,-2.5644,-2.5684,-2.5691,-2.5699,-2.5699,-2.5681,-2.5673,-2.5703,-2.5703,-2.5703,-2.5703,-2.5703,-2.5703,-2.5703,-2.5703,-2.5699,-2.5678,-2.5696,-2.5684,-2.5664,-2.5684,-2.5698,-2.5655,-2.5697,-2.5682,-2.5633,-2.5648,-2.5648,-2.5633,-2.5643,-2.5659,-3.9509,-4.0497,-4.1056,-4.2195,-4.2756,-4.3511,-4.5201,-4.5776,-4.6372,-4.7913,-4.7528,-4.6936,0.0,0.0,-4.6069,-4.3767,-4.4114,-4.4392,-4.3642,-4.3533,-4.4106,0.0,0.0,0.0,0.0,0.0,0.0,-4.3066,-4.0719,-3.8546,-3.6796,-3.5141,-3.3468,-3.1756,-3.1698,-3.1275,-3.0398,-3.0479,-3.0548,-3.0606,-3.0606,-3.0606,-3.0606,-3.0614,-3.0617,-3.0594,-3.0567,-3.0559,-3.0481,-2.9613,-2.935,-2.9517,-2.9517,-2.9543,-2.9712,-3.0569,-3.0871,-3.0849,-3.0875,-3.0898,-3.0898,-3.0898,-3.0898,-3.0898,-3.0898,-3.0898,-3.0723,-2.9844,-2.957,-2.914,-2.7441,-2.6953,-2.6719,-2.5898,-2.6523,-2.7285,-2.7226,-2.6406,-2.5976,-2.6894,-2.6327,-2.5683,-2.5683,-2.5683,-2.5683,-2.5683,-2.5638,-2.5619,-2.5697,-2.5683,-2.5683,-2.5683,-2.5683,-2.5683,-2.5683,-2.5683,-2.5668,-2.5591,-2.564,-2.5663,-2.5605,-2.5664,-2.5662,-2.5592,-2.5652,-2.5629,-2.5489,-2.5564,-2.5564,-2.5503,-2.557,-2.5605,-3.7445,-3.8451,-3.9485,-4.0442,-4.0918,-4.147,-4.2566,-4.3893,-4.4814,-4.4596,-4.4438,-4.4156,0.0,0.0,0.0,-4.3507,-4.4626,0.0,-4.5423,-4.5327,0.0,-4.5091,0.0,-4.4754,-4.4092,-4.3624,0.0,0.0,-4.0469,-3.8546,-3.6796,-3.5738,-3.4103,-3.1775,-3.1698,-3.1314,-3.0487,-3.0528,-3.0571,-3.0591,-3.0591,-3.0591,-3.061,-3.0644,-3.0667,-3.0636,-3.01,-2.9855,-2.9796,-2.8917,-2.8969,-2.9578,-2.9578,-2.9589,-2.9718,-3.0582,-3.0495,-3.0013,-3.0662,-3.0898,-3.0898,-3.0898,-3.0898,-3.0898,-3.0898,-3.0898,-3.0723,-2.9844,-2.9121,-2.8375,-2.7226,-2.649,-2.5977,-2.5742,-2.5918,-2.6836,-2.9355,-2.7695,-2.6143,-2.768,-2.6706,-2.5609,-2.5559,-2.5554,-2.5554,-2.5554,-2.5542,-2.5557,-2.5626,-2.5576,-2.5554,-2.5554,-2.5554,-2.5554,-2.5554,-2.5554,-2.555,-2.5537,-2.555,-2.5544,-2.5531,-2.5535,-2.5546,-2.5531,-2.555,-2.5531,-2.5489,-2.5526,-2.5524,-2.55,-2.5519,-2.5556,-3.605,-3.6591,-3.7185,-3.768,-3.8314,-3.9065,-3.9931,-4.1135,-4.2103,-4.2315,-4.2049,0.0,-4.159,-4.2426,0.0,0.0,0.0,0.0,-4.4904,-4.4857,-4.4915,0.0,-4.4938,0.0,-4.4021,-4.3251,-4.2588,0.0,-4.0777,-3.9208,-3.7497,-3.6281,-3.4762,-3.2885,-3.2519,-3.1973,-3.1172,-3.082,-3.0665,-3.0723,-3.0723,-3.0723,-3.0723,-3.0773,-3.0788,-3.0743,-2.9949,-2.9824,-3.0039,-2.8398,-2.8476,-2.9551,-2.918,-2.9258,-2.9706,-3.0513,-3.0492,-3.0151,-3.0609,-3.0777,-3.0771,-3.0808,-3.0808,-3.0818,-3.0788,-3.0777,-3.066,-3.0172,-2.916,-2.8093,-2.7563,-2.6805,-2.619,-2.6189,-2.673,-2.7829,-2.9791,-2.8374,-2.6933,-2.7526,-2.6947,-2.6284,-2.6091,-2.5757,-2.5505,-2.5505,-2.5466,-2.5461,-2.5505,-2.5506,-2.5505,-2.5505,-2.5505,-2.5505,-2.5505,-2.5505,-2.5485,-2.5466,-2.5483,-2.5493,-2.5459,-2.5485,-2.5485,-2.5466,-2.5502,-2.5474,-2.5401,-2.5436,-2.5447,-2.5409,-2.5447,-2.5472,-3.4939,-3.4917,-3.4746,-3.5009,-3.5802,-3.6738,-3.7507,-3.8309,-3.9261,-4.054,0.0,-3.9872,-4.0476,-4.157,-4.1925,-4.0515,0.0,-4.331,-4.354,-4.3573,-4.4034,-4.5349,-4.4873,-4.4383,-4.4208,-4.2751,-4.1861,-4.1921,-4.112,-3.9951,-3.8383,-3.6928,-3.5586,-3.4351,-3.3602,-3.2875,-3.2189,-3.1339,-3.0957,-3.1074,-3.0957,-3.0898,-3.0898,-3.0898,-3.0898,-3.084,-2.9863,-2.9922,-3.0527,-2.8023,-2.7941,-2.933,-2.8572,-2.8748,-2.9484,-3.0255,-3.0521,-3.0521,-3.0587,-3.0607,-3.0605,-3.0675,-3.0694,-3.0667,-3.0614,-3.0607,-3.0607,-3.0607,-2.9473,-2.826,-2.824,-2.7616,-2.6958,-2.6958,-2.8074,-2.9171,-2.9267,-2.872,-2.7954,-2.7125,-2.7187,-2.7238,-2.6834,-2.6063,-2.5466,-2.5466,-2.5428,-2.539,-2.539,-2.5447,-2.5466,-2.5466,-2.5466,-2.5466,-2.5466,-2.5466,-2.5447,-2.539,-2.5447,-2.5447,-2.539,-2.5447,-2.5447,-2.539,-2.5447,-2.5428,-2.5303,-2.537,-2.537,-2.5303,-2.537,-2.539,-3.3648,-3.3391,-3.3398,-3.5004,-3.5575,-3.5757,-3.5911,-3.7469,0.0,0.0,-3.8967,-3.9513,-3.8943,-3.9602,-4.035,-4.0722,-4.1654,-4.2819,-4.4265,-4.4433,-4.4162,0.0,-4.3208,-4.2637,-4.1586,-4.1195,0.0,0.0,-4.0279,-3.9373,-3.8343,-3.8024,-3.6822,-3.4537,-3.3698,-3.3215,-3.308,-3.2313,-3.1947,-3.1973,-3.123,-3.0898,-3.0898,-3.0898,-3.0898,-3.0801,-2.9219,-2.9023,-2.9667,-2.7724,-2.7517,-2.8423,-2.8223,-2.8232,-2.8462,-2.9305,-2.9601,-2.9636,-3.0351,-3.0604,-3.0597,-3.0614,-3.0616,-3.0614,-3.0601,-3.0604,-3.0604,-3.0604,-2.988,-2.9079,-2.9022,-2.8433,-2.7853,-2.7808,-2.8065,-2.8495,-2.9152,-2.9019,-2.857,-2.7922,-2.7788,-2.7545,-2.6766,-2.59,-2.5322,-2.5322,-2.5322,-2.5322,-2.5322,-2.5322,-2.5322,-2.5322,-2.5322,-2.5322,-2.5322,-2.5322,-2.5322,-2.5322,-2.5322,-2.5322,-2.5322,-2.5322,-2.5322,-2.5322,-2.5322,-2.5322,-2.5303,-2.5303,-2.5303,-2.5303,-2.5303,-2.5341,-3.2809,-3.2594,-3.259,-3.3674,-3.4274,-3.4519,-3.4078,0.0,0.0,0.0,-3.7234,-3.7932,-3.7925,-3.8758,0.0,-3.9389,-4.0372,-4.1638,-4.3142,-4.3453,0.0,-4.3145,-4.2692,-4.1987,-4.094,-4.0444,-4.0099,-3.9873,-3.9509,-3.9004,-3.834,-3.7443,-3.6421,-3.5321,-3.3991,-3.3323,-3.3354,-3.2137,-3.1523,-3.1523,-3.1094,-3.0898,-3.0898,-3.0898,-3.0898,-3.0839,-2.9503,-2.916,-2.943,-2.8082,-2.7778,-2.8192,-2.8565,-2.8745,-2.8864,-2.9687,-2.995,-2.9982,-3.0359,-3.0506,-3.051,-3.0511,-3.0519,-3.0544,-3.0506,-3.0506,-3.0506,-3.0506,-2.986,-2.9187,-2.9159,-2.8901,-2.8602,-2.8571,-2.8945,-2.9279,-2.9214,-2.944,-2.9327,-2.817,-2.8623,-2.8645,-2.6901,-2.588,-2.5303,-2.5303,-2.5303,-2.5303,-2.5303,-2.5303,-2.5303,-2.5303,-2.5303,-2.5303,-2.5303,-2.5303,-2.5303,-2.5303,-2.5303,-2.5303,-2.5303,-2.5303,-2.5303,-2.5303,-2.5303,-2.5303,-2.5303,-2.5303,-2.5303,-2.5303,-2.5774,-2.5986,-3.2228,-3.2226,-3.2341,-3.273,-3.3351,-3.3615,-3.2714,-3.3601,0.0,0.0,-3.5539,-3.6211,-3.6835,0.0,-3.8152,0.0,-3.8515,-3.9779,-4.1453,-4.1853,-4.2117,0.0,-4.1996,0.0,-4.0546,-3.9679,0.0,-3.8887,-3.8585,-3.8311,-3.8041,-3.6384,-3.5523,-3.5679,-3.4119,-3.3304,-3.3379,-3.1894,-3.1152,-3.1172,-3.0996,-3.0898,-3.0898,-3.0898,-3.0898,-3.0839,-2.9732,-2.9352,-2.9439,-2.8489,-2.81,-2.8151,-2.8961,-2.9289,-2.9404,-2.9998,-3.0314,-3.0467,-3.0417,-3.0294,-3.016,-3.034,-3.0448,-3.0467,-3.0417,-3.0398,-3.0398,-3.0398,-2.991,-2.9371,-2.9371,-2.9371,-2.9371,-2.9371,-2.991,-3.0217,-2.9525,-2.9929,-3.0006,-2.8698,-2.9212,-2.928,-2.7388,-2.6011,-2.5203,-2.5201,-2.5233,-2.5233,-2.5201,-2.5233,-2.5214,-2.5201,-2.5253,-2.5303,-2.5303,-2.5303,-2.5303,-2.5303,-2.5264,-2.5243,-2.5243,-2.5222,-2.5212,-2.5243,-2.5222,-2.5233,-2.5303,-2.5264,-2.536,-2.5591,-2.6274,-2.6697,-3.198,-3.2268,-3.292,-3.3682,-3.3938,-3.3687,-3.2487,0.0,0.0,-3.3371,-3.4257,-3.5137,-3.521,-3.5321,0.0,0.0,0.0,-3.7062,-3.9948,-4.0091,-3.996,-4.0185,0.0,0.0,-3.908,-3.8257,-3.7984,-3.8423,-3.7281,-3.6722,-3.7109,-3.5527,-3.4622,-3.4642,-3.3706,-3.3236,-3.3301,-3.2363,-3.1953,-3.207,-3.1289,-3.0898,-3.0898,-3.0898,-3.0898,-3.0801,-2.9138,-2.8816,-2.9419,-2.8492,-2.8056,-2.8084,-2.8824,-2.9113,-2.9151,-2.9198,-2.9737,-3.0398,-3.0398,-2.989,-2.9352,-3.014,-3.0398,-3.0398,-3.0398,-3.0398,-3.0398,-3.0398,-3.034,-3.0294,-3.0294,-3.0294,-3.0294,-3.0294,-3.034,-3.0379,-3.0314,-3.034,-3.034,-3.0186,-2.9063,-2.8211,-2.8464,-2.6479,-2.4867,-2.4931,-2.4994,-2.4974,-2.4855,-2.4956,-2.4974,-2.4874,-2.5115,-2.5303,-2.5303,-2.5303,-2.5303,-2.5303,-2.5141,-2.5022,-2.5022,-2.4904,-2.4891,-2.5022,-2.4923,-2.5006,-2.5303,-2.5111,-2.5543,-2.6486,-2.6563,-2.7024,-3.1255,-3.2212,-3.3407,-3.393,-3.3552,-3.2828,-3.2072,0.0,-3.2988,-3.2543,-3.3623,-3.4695,-3.4962,-3.499,-3.4954,0.0,0.0,0.0,-3.7172,-3.7461,-3.7527,-3.7676,-3.8064,0.0,0.0,0.0,-3.6316,-3.5572,-3.4915,-3.4431,-3.4132,-3.4289,-3.4187,-3.3723,-3.2861,-3.2432,-3.2453,-3.1588,-3.1188,-3.1227,-3.0933,-3.0781,-3.0781,-3.0859,-3.0605,-3.0078,-2.9336,-2.8589,-2.7918,-2.8512,-2.8132,-2.7343,-2.9179,-2.9563,-2.9159,-2.9698,-3.0102,-3.0321,-2.9794,-2.9737,-2.9852,-2.9679,-2.9967,-3.0398,-3.0398,-3.0398,-3.0398,-3.0398,-3.0398,-3.0398,-3.0398,-3.0398,-3.0398,-3.0398,-3.0398,-3.0398,-3.0398,-2.9886,-2.9433,-2.9433,-2.9252,-2.8739,-2.7637,-2.6435,-2.5427,-2.4823,-2.4804,-2.4869,-2.4804,-2.4842,-2.4869,-2.4804,-2.4981,-2.5096,-2.5019,-2.5084,-2.5077,-2.5,-2.4923,-2.4877,-2.4877,-2.4828,-2.485,-2.4998,-2.5463,-2.5507,-2.5111,-2.5569,-2.5927,-2.6249,-2.6744,-2.7496,-2.9628,-3.0704,-3.1994,-3.2673,-3.1952,-3.1075,0.0,0.0,-3.1797,-3.1582,-3.2762,-3.3921,-3.4195,-3.4073,-3.3876,0.0,0.0,-3.3898,-3.5154,-3.5282,-3.529,0.0,0.0,-3.5769,-3.4523,-3.4749,-3.4485,-3.3232,-3.2697,-3.2219,-3.1751,-3.2305,-3.262,-3.2648,-3.1796,-3.1385,-3.1472,-3.0877,-3.0583,-3.0603,-3.0643,-3.0674,-3.0673,-3.0771,-3.0343,-2.9544,-2.9462,-2.8567,-2.7265,-2.8618,-2.8467,-2.7544,-2.9602,-3.0025,-2.9563,-3.0179,-3.0237,-2.9929,-2.9313,-2.9352,-2.9602,-2.9217,-2.9525,-3.0063,-3.0321,-3.0398,-3.0398,-3.0398,-3.0398,-3.0398,-3.0398,-3.0398,-3.0398,-3.0398,-3.0398,-3.0386,-3.0305,-2.9692,-2.9142,-2.907,-2.9441,-2.9303,-2.7778,-2.6718,-2.5712,-2.4645,-2.4613,-2.4685,-2.4623,-2.467,-2.4685,-2.4623,-2.4766,-2.485,-2.4804,-2.4877,-2.4904,-2.4804,-2.4746,-2.4716,-2.4716,-2.4654,-2.481,-2.5205,-2.5735,-2.5916,-2.5652,-2.6205,-2.6548,-2.672,-2.7283,-2.8096,-2.6837,-2.7258,-2.7983,-2.9453,-2.8926,-2.8266,0.0,0.0,-3.052,-3.0278,-3.1455,-3.2535,-3.2535,-3.193,-3.1823,-3.301,0.0,0.0,-3.4394,-3.3869,-3.3261,0.0,0.0,-3.3566,-3.3047,-3.2803,-3.246,-3.2054,-3.0848,-3.0268,-3.0602,-2.9379,-2.9478,-3.1268,-3.0471,-3.0174,-3.0506,-3.0506,-3.0525,-3.0602,-3.0614,-3.0598,-3.0606,-3.0606,-3.015,-2.9392,-2.9327,-2.8795,-2.8046,-2.8868,-2.9156,-2.9159,-3.0044,-3.0379,-3.0379,-3.0398,-2.9852,-2.9102,-2.9102,-2.8582,-2.8063,-2.8832,-2.9102,-2.9275,-3.014,-3.0398,-3.0398,-3.0398,-3.0398,-3.0398,-3.0398,-3.0398,-3.0398,-3.0398,-3.0398,-3.033,-3.0045,-3.0,-2.9929,-2.9731,-2.9583,-2.955,-2.9656,-2.753,-2.5449,-2.4375,-2.4375,-2.4426,-2.4228,-2.4375,-2.4428,-2.4228,-2.4393,-2.4594,-2.479,-2.4804,-2.4804,-2.4804,-2.4607,-2.4512,-2.4512,-2.4321,-2.4653,-2.5669,-2.5502,-2.5987,-2.7175,-2.6989,-2.7399,-2.8395,-2.8395,-2.8866,-2.3833,-2.45,-2.5686,-2.6688,-2.6367,-2.6097,-2.7147,0.0,-2.8699,-2.9214,-3.0352,-3.1531,-3.2345,-3.1912,-3.1693,-3.2588,-3.1991,0.0,0.0,0.0,0.0,-3.073,-2.989,-2.9688,0.0,0.0,-2.9219,-2.9136,-2.8546,-2.8095,-2.788,-2.7468,-2.7886,-2.9355,-2.8717,-2.8414,-2.8517,-2.8653,-2.9006,-2.9563,-2.9052,-2.9424,-3.0501,-3.0008,-2.9622,-2.9323,-2.9303,-2.8811,-2.8071,-2.8875,-2.9156,-2.9179,-3.0063,-3.0398,-3.0398,-3.0398,-3.0237,-2.991,-2.9313,-2.8929,-2.8756,-2.9006,-2.9102,-2.9256,-3.014,-3.0398,-3.0367,-3.0182,-3.0136,-3.0136,-3.0136,-3.0136,-3.0163,-3.0355,-3.0398,-3.033,-3.0066,-2.9477,-2.9082,-2.9418,-2.8878,-2.8544,-2.9132,-2.7618,-2.6116,-2.5387,-2.4726,-2.4266,-2.4209,-2.4266,-2.4266,-2.4209,-2.4744,-2.4912,-2.443,-2.4528,-2.4545,-2.441,-2.4339,-2.4543,-2.5096,-2.5056,-2.5483,-2.6507,-2.7008,-2.7158,-2.7008,-2.7475,-2.7808,-2.8025,-2.8724,-2.9232,0.0,-2.1368,-2.2405,-2.325,-2.3349,0.0,0.0,0.0,-2.6776,-2.7992,-2.9028,-3.0071,-3.0994,-3.0557,-3.0344,-3.1247,-3.0803,-3.0565,0.0,0.0,0.0,-2.8473,0.0,0.0,0.0,-2.7511,-2.7195,-2.7377,-2.6734,-2.6431,-2.6591,-2.6025,-2.6206,-2.7305,-2.7399,-2.7499,-2.7599,-2.7804,-2.814,-2.864,-2.8187,-2.8514,-2.9506,-2.9052,-2.8637,-2.833,-2.894,-2.8747,0.0,-2.9194,-2.9617,-2.964,-3.0198,-3.0398,-3.0398,-3.0398,-3.0198,-2.9833,-2.9294,-2.9102,-2.9102,-2.9102,-2.926,-2.9545,-3.0081,-3.0254,-3.0241,-3.0163,-3.0075,-3.0013,-3.0117,-3.015,-3.0196,-3.0355,-3.0323,-3.0182,-2.9939,-2.9342,-2.8909,-2.9202,-2.8706,-2.8402,-2.8913,-2.7917,-2.6901,-2.6475,-2.5642,-2.4997,-2.4685,-2.4924,-2.4997,-2.4685,-2.5364,-2.564,-2.5144,-2.5207,-2.5245,-2.5107,-2.5107,-2.5328,-2.5823,-2.5841,-2.6291,-2.7226,-2.7727,-2.7875,-2.7688,-2.8209,-2.8384,-2.8264,-2.8938,-2.9246,0.0,-1.8068,0.0,0.0,0.0,0.0,0.0,0.0,0.0,-2.6471,-2.7421,-2.8158,-2.8763,-2.8262,-2.815,-2.9401,-2.8965,-2.9032,0.0,-2.9694,0.0,0.0,-2.6764,0.0,-2.6142,-2.6017,-2.6161,-2.6552,-2.5452,-2.5252,-2.6415,-2.5056,-2.4578,-2.5314,-2.6442,-2.7161,-2.7401,-2.7612,-2.7755,-2.7813,-2.7725,-2.7764,-2.789,-2.7822,-2.7379,-2.6774,-2.839,-2.8679,-2.8102,-2.9679,-3.034,-3.0379,-3.0321,-3.034,-3.0398,-3.0398,-2.989,-2.9179,-2.9179,-2.914,-2.9102,-2.9071,-2.95,-2.9999,-2.9984,-2.9999,-3.0061,-3.0267,-3.0182,-3.0061,-3.0311,-3.0355,-3.0355,-3.0367,-3.0182,-2.9924,-2.9731,-2.9532,-2.933,-2.9044,-2.8994,-2.9003,-2.9001,-2.8333,-2.7712,-2.7485,-2.6967,-2.6337,-2.5586,-2.6135,-2.6319,-2.5586,-2.6209,-2.6686,-2.6686,-2.6631,-2.6612,-2.6612,-2.6612,-2.6631,-2.6686,-2.6686,-2.7071,-2.786,-2.7879,-2.8246,-2.8994,-2.8994,-2.8994,-2.8994,-2.8994,-2.8994,-1.7201,0.0,-1.6056,-1.6729,-1.7684,-1.8731,0.0,0.0,0.0,0.0,0.0,-2.6336,-2.74,-2.742,-2.776,-2.9265,-2.8899,-2.9064,-3.0894,0.0,0.0,-2.7639,-2.6448,-2.5464,-2.4938,-2.4714,-2.489,-2.5656,-2.4893,-2.4649,-2.5201,-2.4861,-2.4748,-2.4936,-2.5324,-2.5487,-2.5461,-2.5761,-2.6255,-2.6909,-2.6071,-2.6466,-2.7871,-2.7048,-2.7002,-2.764,-2.8659,-2.8986,-2.8852,-2.9236,-2.9794,-3.0321,-2.9679,-2.9813,-3.0398,-3.0398,-3.0275,-3.0102,-3.0102,-2.966,-2.9071,-2.8919,-2.9374,-2.9969,-2.9813,-2.9877,-2.9984,-2.9896,-2.9924,-3.0013,-3.0075,-2.9973,-2.9896,-3.0061,-2.9924,-2.9713,-2.9513,-2.9434,-2.933,-2.9044,-2.8994,-2.8998,-2.9003,-2.8343,-2.7785,-2.7714,-2.7071,-2.6539,-2.6337,-2.6484,-2.6539,-2.6337,-2.7034,-2.7512,-2.7512,-2.6961,-2.6612,-2.6612,-2.6612,-2.6888,-2.7493,-2.7512,-2.7897,-2.8705,-2.8723,-2.8815,-2.8994,-2.8994,-2.8994,-2.8994,-2.8994,-2.8994,-1.8127,-1.679,-1.5731,-1.5088,-1.6273,-1.7651,0.0,0.0,0.0,0.0,0.0,-2.4078,-2.5412,-2.5917,-2.6569,-2.7917,-2.8459,0.0,0.0,0.0,-2.8316,-2.7406,-2.5875,-2.4775,0.0,-2.4299,-2.4212,-2.4282,-2.4098,-2.4068,-2.4227,-2.4279,-2.4445,-2.478,-2.4962,-2.4974,-2.4804,-2.5126,-2.5463,-2.5767,-2.5239,-2.5519,-2.6466,-2.5869,-2.5939,-2.6524,-2.7326,-2.7669,-2.7708,-2.8122,-2.8561,-2.8981,-2.8853,-2.9121,-2.9579,-2.9932,-3.0085,-3.0099,-3.0182,-2.9902,-2.9474,-2.9292,-2.9455,-2.9713,-2.9589,-2.9625,-2.9731,-2.9713,-2.9713,-2.9823,-3.0284,-3.033,-3.0373,-3.0854,-3.0526,-3.0075,-2.9973,-2.9569,-2.916,-2.904,-2.8994,-2.8994,-2.8994,-2.8659,-2.8361,-2.8333,-2.7989,-2.7585,-2.72,-2.7475,-2.7567,-2.72,-2.7879,-2.8503,-2.887,-2.8172,-2.7714,-2.7714,-2.7714,-2.7915,-2.8338,-2.8356,-2.8558,-2.8975,-2.8994,-2.8994,-2.8994,-2.8994,-2.8994,-2.8994,-2.8994,-2.8994,-1.9851,-1.8436,-1.6883,-1.4809,-1.5792,-1.7231,-1.7194,0.0,0.0,0.0,0.0,0.0,0.0,-2.4298,0.0,0.0,0.0,0.0,-3.0044,-2.9052,-2.7913,-2.6984,-2.5581,0.0,-2.4359,-2.4361,-2.4072,-2.3359,-2.363,-2.384,-2.3848,-2.3927,-2.4252,-2.4866,-2.5068,-2.5038,-2.485,-2.5149,-2.5149,-2.4888,-2.4943,-2.493,-2.4828,-2.479,-2.4775,-2.4842,-2.5653,0.0,-2.605,-2.6798,-2.7176,-2.7365,-2.8029,-2.8388,-2.8596,-2.9393,-2.9696,-2.9712,-2.9893,-2.9954,-2.9924,-2.9731,-2.9551,-2.9392,-2.9351,-2.933,-2.9411,-2.9683,-2.9701,-2.983,-3.0678,-3.0979,-3.1167,-3.175,-3.1175,-3.0501,-3.0371,-2.9658,-2.8994,-2.8994,-2.8994,-2.8994,-2.8994,-2.8994,-2.8994,-2.8994,-2.8994,-2.8737,-2.8062,-2.8594,-2.8796,-2.8227,-2.8778,-2.9512,-3.032,-2.9769,-2.9329,-2.92,-2.9067,-2.8994,-2.8994,-2.8994,-2.8994,-2.8994,-2.8994,-2.8994,-2.8994,-2.8994,-2.8994,-2.8994,-2.8994,-2.8994,-2.1308,-2.0559,-1.9507,-1.703,-1.7135,-1.7821,-1.7733,0.0,0.0,0.0,0.0,0.0,0.0,-2.3456,-2.4672,0.0,0.0,-3.0215,0.0,0.0,-2.9324,-2.7887,0.0,-2.5497,-2.4193,-2.4466,-2.4703,-2.4684,-2.4744,-2.4863,-2.5029,-2.5099,-2.5192,-2.5299,-2.5335,-2.5262,-2.5069,-2.5225,-2.5264,-2.5222,-2.4949,-2.4877,-2.4962,-2.4682,-2.4639,-2.4842,-2.5653,-2.5993,-2.6012,-2.6125,-2.6631,-2.7308,-2.7371,-2.7843,-2.8596,-2.9393,-2.9696,-2.9713,-2.9748,-2.9748,-2.9713,-2.9513,-2.9433,-2.9351,-2.9134,-2.9044,-2.9214,-2.9922,-3.0381,-3.0716,-3.0866,-3.1277,-3.1523,-3.0963,-3.0543,-3.0079,-2.9398,-2.9113,-2.8994,-2.8994,-2.8994,-2.8994,-2.8994,-2.8994,-2.8994,-2.8994,-2.8994,-2.8957,-2.881,-2.892,-2.9195,-2.9769,-2.9953,-3.0338,-3.1146,-3.1091,-3.0742,-3.0063,-2.936,-2.8994,-2.8994,-2.8994,-2.8994,-2.8994,-2.8994,-2.8994,-2.8994,-2.8994,-2.8994,-2.8994,-2.8994,-2.8994,-2.2487,-2.1855,-2.1111,-1.9743,-1.9213,-1.8945,-1.8668,0.0,0.0,0.0,0.0,0.0,0.0,0.0,-2.5004,-2.717,0.0,-2.9801,-3.1201,-2.9615,-2.8312,0.0,0.0,-2.5336,-2.5263,-2.5043,-2.4791,-2.4523,-2.4516,-2.4574,-2.4701,-2.4767,-2.5,-2.5442,-2.5485,-2.5428,-2.5264,-2.5322,-2.5231,-2.5031,-2.4962,-2.485,-2.4704,-2.4575,-2.4495,-2.4497,0.0,-2.5018,-2.5018,-2.5018,-2.5259,-2.5667,-2.6078,-2.673,-2.7605,-2.8851,-2.9397,-2.9532,-2.9357,-2.9435,-2.9494,-2.9267,-2.9181,-2.9156,-2.904,-2.931,-2.9641,-2.9586,-3.0009,-3.0708,-3.16,-3.2006,-3.2244,-3.2299,-3.1906,-3.1403,-3.1035,-3.0613,-3.0301,-3.0301,-2.994,-2.9655,-2.9655,-2.9297,-2.8994,-2.8994,-2.8994,-2.8994,-2.8994,-2.936,-2.9787,-3.0173,-3.0595,-3.1164,-3.1971,-3.1641,-3.1054,-3.0246,-2.9457,-2.8994,-2.8994,-2.8994,-2.8905,-2.8682,-2.8682,-2.8583,-2.8404,-2.8404,-2.8507,-2.8658,-2.8507,-2.8507,-2.3289,-2.2877,-2.2363,-2.199,0.0,-2.0223,-1.9664,0.0,0.0,0.0,0.0,0.0,0.0,-2.373,0.0,-2.795,-2.8258,-2.8667,-3.0242,-2.8339,-2.7157,-2.8092,-2.6189,-2.5093,-2.5802,-2.5264,-2.4726,-2.4341,-2.4302,-2.435,-2.4447,-2.4543,-2.4864,-2.5481,-2.5561,-2.555,-2.5415,-2.5418,-2.5248,-2.4929,-2.4962,-2.4872,-2.462,-2.4526,-2.4428,-2.4284,-2.4228,-2.419,-2.419,-2.419,-2.419,-2.4281,-2.509,-2.6007,-2.7053,-2.8484,-2.9134,-2.9267,-2.9067,-2.9134,-2.9267,-2.9067,-2.8994,-2.8994,-2.8994,-2.9439,-2.9879,-2.9641,-3.0008,-3.076,-3.2008,-3.2614,-3.2999,-3.3421,-3.3054,-3.2559,-3.2375,-3.1825,-3.1384,-3.1384,-3.0901,-3.0415,-3.0236,-2.9517,-2.9002,-2.9009,-2.8876,-2.8797,-2.8767,-2.9416,-2.9981,-3.0181,-3.0987,-3.1887,-3.279,-3.2059,-3.1276,-3.0655,-2.9887,-2.9357,-2.9156,-2.8883,-2.8583,-2.829,-2.829,-2.8156,-2.7897,-2.7897,-2.802,-2.829,-2.802,-2.802,-2.3536,-2.361,-2.3504,-2.3147,0.0,0.0,-2.0467,-2.0326,0.0,0.0,0.0,0.0,0.0,-2.3169,-2.4784,-2.6568,-2.6493,-2.687,-2.8789,0.0,-2.6993,-2.6782,-2.5968,-2.5213,-2.4683,-2.4564,-2.4644,-2.4922,-2.4946,-2.5023,-2.5207,-2.5351,-2.5448,-2.5498,-2.5561,-2.5566,-2.5498,-2.5421,-2.536,-2.5253,-2.5088,-2.4998,-2.4943,-2.4651,-2.4495,-2.4461,-2.4284,-2.419,-2.419,-2.419,-2.419,-2.4281,-2.509,-2.6358,-2.7824,-2.8686,-2.9017,-2.904,-2.9017,-2.9017,-2.904,-2.9017,-2.8994,-2.8994,-2.8994,-2.903,-2.9402,-3.0815,-3.1256,-3.1329,-3.1458,-3.2577,-3.3532,-3.2852,-3.2651,-3.2412,-3.1641,-3.1439,-3.1384,-3.1384,-3.1354,-3.1084,-3.0346,-2.9525,-2.9004,-2.9006,-2.8582,-2.819,-2.7992,-2.8628,-2.9373,-3.013,-3.126,-3.2418,-3.3615,-3.2619,-3.1931,-3.1877,-3.1183,-3.0387,-2.9592,-2.8532,-2.7982,-2.7954,-2.7954,-2.7926,-2.7897,-2.7897,-2.7926,-2.7926,-2.7926,-2.7926,-2.296,-2.3332,-2.3653,-2.3436,0.0,0.0,0.0,0.0,0.0,0.0,0.0,0.0,0.0,0.0,-2.4804,-2.6074,-2.6175,-2.668,-2.818,-2.7193,-2.6385,-2.6591,-2.5509,-2.4739,-2.4701,-2.4685,-2.4828,-2.5152,-2.5192,-2.5233,-2.536,-2.5447,-2.5514,-2.5561,-2.5632,-2.5615,-2.5493,-2.5468,-2.5409,-2.5303,-2.5224,-2.5084,-2.4864,-2.4741,-2.4561,-2.4321,-2.4228,-2.419,-2.419,-2.419,-2.4483,-2.509,-2.6374,-2.6961,-2.7218,-2.8521,-2.8994,-2.8994,-2.8994,-2.8994,-2.8994,-2.8994,-2.8994,-2.8994,-2.8994,-2.9714,-3.0522,-3.0613,-3.1733,-3.2889,-3.2889,-3.333,-3.3715,-3.3421,-3.3348,-3.3256,-3.2963,-3.2889,-3.2889,-3.2889,-3.2485,-3.2045,-3.1721,-3.0808,-2.9963,-2.9493,-2.9249,-2.9233,-2.9478,-2.9202,-2.9488,-3.0769,-3.1742,-3.2505,-3.2929,-3.2572,-3.2317,-3.2317,-3.1092,-3.0042,-2.9251,-2.9237,-2.8722,-2.7547,-2.7989,-2.7865,-2.7147,-2.7629,-2.7982,-2.8202,-2.8451,-2.8708,-2.265,-2.3192,-2.3684,0.0,0.0,0.0,0.0,0.0,0.0,0.0,-2.0485,0.0,0.0,0.0,0.0,0.0,-2.5363,-2.5834,-2.6722,-2.5952,-2.5494,-2.5967,-2.5098,-2.4552,-2.4787,-2.4804,-2.4955,-2.5264,-2.5322,-2.5341,-2.5409,-2.5486,-2.5541,-2.5576,-2.5624,-2.5593,-2.548,-2.5473,-2.5409,-2.5303,-2.5243,-2.5084,-2.4869,-2.4832,-2.4607,-2.4284,-2.4228,-2.419,-2.419,-2.419,-2.452,-2.5164,-2.6502,-2.6704,-2.641,-2.8044,-2.8631,-2.8668,-2.8902,-2.8994,-2.8994,-2.8994,-2.8994,-2.8994,-2.8994,-2.9953,-3.0962,-3.065,-3.1953,-3.3476,-3.3733,-3.3807,-3.3807,-3.3807,-3.3807,-3.3807,-3.3807,-3.3807,-3.3762,-3.3652,-3.3186,-3.2657,-3.2246,-3.1502,-3.0719,-3.0054,-2.9764,-2.9728,-2.9981,-2.9538,-2.9746,-3.111,-3.1774,-3.2193,-3.2484,-3.2366,-3.2282,-3.2282,-3.113,-3.0171,-2.9576,-2.968,-2.9153,-2.7872,-2.8337,-2.822,-2.7418,-2.7926,-2.832,-2.8579,-2.8864,-2.9121,-2.2764,-2.3437,-2.3755,0.0,0.0,0.0,0.0,0.0,0.0,0.0,0.0,-2.2258,-2.3806,0.0,0.0,-2.3529,-2.3803,-2.4107,-2.419,-2.4197,-2.4344,-2.4753,-2.4815,-2.4801,-2.4787,-2.4804,-2.4936,-2.5283,-2.537,-2.5409,-2.5409,-2.5524,-2.5576,-2.5508,-2.5551,-2.5524,-2.5409,-2.5409,-2.536,-2.5284,-2.5099,-2.501,-2.4998,-2.4869,-2.4685,-2.4495,-2.4284,-2.419,-2.419,-2.4208,-2.4208,-2.4281,-2.509,-2.5421,-2.5623,-2.72,-2.7805,-2.7915,-2.87,-2.8994,-2.8994,-2.8994,-2.8994,-2.8994,-2.8994,-2.9586,-3.0393,-3.1182,-3.199,-3.2771,-3.3587,-3.3807,-3.3807,-3.3788,-3.3788,-3.3788,-3.3807,-3.3807,-3.368,-3.3273,-3.3184,-3.2793,-3.1523,-3.1317,-3.1117,-3.0591,-2.9953,-2.9403,-2.9064,-2.9445,-3.0116,-3.1089,-3.1214,-3.155,-3.2433,-3.2074,-3.1771,-3.1771,-3.1411,-3.1049,-3.0699,-2.9621,-2.8991,-2.9011,-2.9028,-2.9028,-2.9011,-2.9028,-2.8991,-2.8991,-2.9045,-2.9045,-2.0889,-2.2336,0.0,0.0,0.0,0.0,0.0,0.0,0.0,0.0,0.0,-2.1173,-2.2799,0.0,0.0,-2.3702,-2.3988,-2.4293,-2.4726,-2.4469,-2.4409,-2.4764,-2.4472,-2.4395,-2.476,-2.4877,-2.5061,-2.5351,-2.539,-2.5447,-2.5543,-2.5521,-2.5547,-2.5576,-2.5541,-2.5486,-2.5409,-2.5409,-2.5301,-2.5088,-2.5034,-2.4949,-2.4855,-2.4666,-2.4478,-2.4284,-2.4228,-2.419,-2.4245,-2.4795,-2.4704,-2.4337,-2.5713,-2.6245,-2.6353,-2.71,-2.7755,-2.8214,-2.8236,-2.8386,-2.8565,-2.8565,-2.9156,-2.9843,-2.9843,-3.0604,-3.1519,-3.1737,-3.2151,-3.2568,-3.28,-3.2903,-3.2965,-3.3302,-3.3361,-3.3302,-3.2965,-3.2903,-3.284,-3.2745,-3.2713,-3.2577,-3.2216,-3.1863,-3.1603,-3.1427,-3.0999,-3.0649,-3.0569,-3.1123,-3.1636,-3.1964,-3.1981,-3.2144,-3.2599,-3.1863,-3.1389,-3.1389,-3.1269,-3.093,-3.0299,-3.0438,-3.0057,-2.9045,-2.9499,-2.9516,-2.9011,-2.9516,-2.977,-2.9786,-3.0294,-3.0531,-2.024,-2.185,0.0,-2.271,-2.219,-2.1313,-1.9353,0.0,0.0,0.0,0.0,-2.0895,-2.204,-2.2726,0.0,-2.3394,-2.3902,-2.4303,-2.4453,-2.4325,-2.432,-2.4634,-2.4469,-2.4465,-2.485,-2.4981,-2.5141,-2.538,-2.5447,-2.5492,-2.555,-2.5546,-2.5529,-2.5515,-2.5486,-2.5428,-2.537,-2.5282,-2.5149,-2.501,-2.4872,-2.4752,-2.467,-2.4561,-2.4393,-2.419,-2.419,-2.419,-2.4245,-2.4704,-2.4553,-2.4124,-2.5379,-2.5804,-2.5778,-2.6684,-2.7307,-2.7745,-2.7875,-2.802,-2.821,-2.821,-2.8882,-2.9735,-2.9735,-3.0674,-3.1709,-3.1709,-3.2094,-3.2484,-3.2484,-3.2484,-3.2583,-3.284,-3.2921,-3.284,-3.255,-3.2484,-3.2451,-3.2264,-3.2459,-3.2652,-3.2438,-3.2441,-3.2316,-3.2046,-3.1884,-3.1788,-3.1788,-3.2364,-3.2686,-3.2466,-3.2649,-3.2581,-3.215,-3.189,-3.1755,-3.163,-3.1901,-3.1867,-3.1444,-3.1275,-3.0768,-2.9871,-3.0311,-3.0311,-2.9854,-3.0311,-3.0548,-3.0548,-3.0987,-3.119,-2.0113,0.0,0.0,-2.3121,-2.2383,0.0,-1.941,-1.8219,-1.7741,-1.865,0.0,-2.1228,-2.1655,-2.2892,-2.3614,-2.2902,-2.3626,-2.4147,-2.3807,-2.3947,-2.4192,-2.4493,-2.47,-2.4869,-2.5005,-2.5088,-2.5206,-2.5399,-2.5524,-2.557,-2.5507,-2.5564,-2.5524,-2.5409,-2.539,-2.5341,-2.5274,-2.5088,-2.4967,-2.4962,-2.4651,-2.4495,-2.4478,-2.4478,-2.4375,-2.419,-2.419,-2.419,-2.4208,-2.417,-2.3958,-2.3765,-2.4469,-2.4623,-2.4607,-2.6073,-2.669,-2.6848,-2.7536,-2.7794,-2.784,-2.784,-2.8382,-2.9001,-2.9001,-3.0048,-3.1253,-3.1253,-3.18,-3.2384,-3.2384,-3.2384,-3.2384,-3.2384,-3.2417,-3.2417,-3.2384,-3.2437,-3.2353,-3.1929,-3.2496,-3.2878,-3.2411,-3.2848,-3.3068,-3.2374,-3.2523,-3.27,-3.2768,-3.3194,-3.3363,-3.2937,-3.3257,-3.2951,-3.1529,-3.2252,-3.271,-3.2625,-3.3126,-3.3406,-3.3406,-3.2104,-3.136,-3.1292,-3.1292,-3.1258,-3.119,-3.119,-3.119,-3.119,-3.1151,-3.1112,0.0,-1.8825,0.0,0.0,-2.1986,-2.2482,-2.1137,-2.0978,-2.0999,-2.0778,-2.1338,-2.2068,-2.2737,-2.3137,-2.3342,-2.333,-2.3756,-2.4094,-2.4154,-2.4431,-2.4648,-2.4731,-2.4864,-2.4987,-2.5082,-2.5233,-2.5407,-2.5543,-2.5522,-2.5545,-2.558,-2.5484,-2.5428,-2.5409,-2.5341,-2.5243,-2.5077,-2.5022,-2.4872,-2.4604,-2.4526,-2.4428,-2.4247,-2.4247,-2.4247,-2.419,-2.419,-2.419,-2.417,-2.3917,-2.3774,-2.3743,-2.4219,-2.4754,-2.5332,-2.5987,-2.6618,-2.7139,-2.7,-2.7178,-2.7409,-2.7409,-2.8175,-2.9089,-2.9089,-2.9892,-3.0836,-3.0836,-3.1146,-3.1504,-3.1504,-3.1504,-3.1504,-3.1504,-3.1714,-3.1861,-3.1562,-3.1948,-3.232,-3.2202,-3.2791,-3.309,-3.2415,-3.2408,-3.2459,-3.2307,-3.2364,-3.2601,-3.3194,-3.3829,-3.4201,-3.4126,-3.4193,-3.3914,-3.2992,-3.3119,-3.3701,-3.4846,-3.3964,-3.3406,-3.3406,-3.3102,-3.2645,-3.2053,-3.2036,-3.1765,-3.119,-3.119,-3.119,-3.119,-3.0699,-3.0477,0.0,0.0,0.0,-1.8957,0.0,0.0,-2.1805,-2.2173,-2.2594,-2.2616,-2.2546,-2.2698,-2.3365,-2.3635,-2.3759,-2.3877,-2.4153,-2.4416,-2.4526,-2.4771,-2.4945,-2.4945,-2.5125,-2.5256,-2.5291,-2.5391,-2.5479,-2.5556,-2.5526,-2.5503,-2.5505,-2.5447,-2.534,-2.522,-2.5171,-2.5084,-2.4904,-2.4823,-2.4663,-2.4495,-2.441,-2.4303,-2.419,-2.419,-2.419,-2.419,-2.419,-2.4113,-2.3974,-2.4151,-2.384,-2.3348,-2.4655,-2.5105,-2.5138,-2.6055,-2.6661,-2.6987,-2.6774,-2.6858,-2.7019,-2.7019,-2.7696,-2.8563,-2.8945,-2.9679,-3.0413,-3.0413,-3.0772,-3.1123,-3.0768,-3.0937,-3.119,-3.119,-3.1351,-3.1449,-3.1269,-3.1495,-3.1749,-3.1749,-3.2357,-3.2848,-3.2831,-3.3102,-3.3339,-3.3339,-3.3339,-3.3474,-3.388,-3.4573,-3.4895,-3.4523,-3.4813,-3.4498,-3.3177,-3.3931,-3.4593,-3.4934,-3.4626,-3.4455,-3.4455,-3.4455,-3.3778,-3.2307,-3.232,-3.1992,-3.1233,-3.0948,-3.082,-3.0803,-3.0141,-2.9848,0.0,0.0,-1.4095,-1.637,-1.876,0.0,-2.1484,-2.2307,-2.313,-2.3816,-2.3555,-2.3332,-2.3897,-2.4221,-2.4409,-2.4447,-2.4682,-2.4889,-2.4926,-2.5057,-2.5156,-2.5143,-2.536,-2.5468,-2.5468,-2.5486,-2.5487,-2.5497,-2.5496,-2.5473,-2.5399,-2.537,-2.5231,-2.501,-2.4986,-2.4904,-2.4746,-2.4575,-2.4478,-2.4462,-2.421,-2.4113,-2.4113,-2.4036,-2.4094,-2.419,-2.4074,-2.3896,-2.3765,-2.4382,-2.3954,-2.3128,-2.5183,-2.5483,-2.4831,-2.6201,-2.6776,-2.6894,-2.6894,-2.6894,-2.6911,-2.7046,-2.7418,-2.7941,-2.8755,-2.9516,-3.0108,-3.0108,-3.0632,-3.1055,-3.0446,-3.0734,-3.1224,-3.136,-3.1376,-3.1376,-3.1376,-3.1376,-3.1427,-3.1562,-3.1952,-3.256,-3.344,-3.388,-3.4201,-3.4455,-3.4489,-3.4539,-3.4675,-3.5233,-3.5385,-3.4759,-3.523,-3.4931,-3.3362,-3.458,-3.5053,-3.4153,-3.4942,-3.5362,-3.527,-3.5362,-3.4438,-3.2387,-3.2486,-3.2258,-3.1473,-3.0741,-3.04,-3.0384,-2.9605,-2.9225,0.0,0.0,-0.9933,0.0,-1.5697,-1.8586,0.0,0.0,-2.2795,0.0,-2.3874,-2.4395,-2.4692,-2.4783,-2.4888,-2.5054,-2.5125,-2.5213,-2.5384,-2.5426,-2.5429,-2.5366,-2.5382,-2.5403,-2.5403,-2.5409,-2.5444,-2.5495,-2.5455,-2.5399,-2.5409,-2.5179,-2.5053,-2.501,-2.4877,-2.4727,-2.4545,-2.4512,-2.441,-2.4247,-2.3917,-2.3774,-2.3774,-2.3477,-2.3649,-2.417,-2.3588,-2.3459,-2.3721,-2.3942,-2.391,-2.387,-2.5152,-2.5573,-2.5558,-2.6387,-2.7114,-2.7637,-2.7637,-2.7637,-2.7774,-2.845,-2.8281,-2.7941,-2.8755,-2.9516,-3.0108,-3.0108,-3.0632,-3.1173,-3.1072,-3.1123,-3.136,-3.1985,-3.2138,-3.2138,-3.2138,-3.2138,-3.2324,-3.2983,-3.2662,-3.273,-3.4117,-3.3355,-3.3017,-3.4303,-3.4489,-3.4726,-3.5385,-3.5554,-3.5588,-3.547,-3.5537,-3.5487,-3.5221,-3.4913,-3.4445,-3.3725,-3.4317,-3.4479,-3.3887,-3.4431,-3.4004,-3.2498,-3.3043,-3.2998,-3.2229,-3.0983,-3.04,-3.0384,-2.9187,-2.8606,-1.1528,-0.9446,-0.8665,0.0,-1.1921,-1.4944,-1.761,0.0,-2.0732,-2.1605,-2.246,-2.3407,-2.4625,-2.4845,-2.4896,-2.506,-2.509,-2.5158,-2.5351,-2.541,-2.5425,-2.541,-2.5425,-2.5463,-2.5463,-2.5424,-2.5402,-2.5438,-2.528,-2.5179,-2.5179,-2.5,-2.4836,-2.4723,-2.4651,-2.4545,-2.4321,-2.4154,-2.3903,-2.3649,-2.35,-2.3414,-2.3414,-2.3069,-2.3189,-2.361,-2.3346,-2.3165,-2.3206,-2.4137,-2.4167,-2.3796,-2.5537,-2.5964,-2.5693,-2.642,-2.6911,-2.7182,-2.7182,-2.7469,-2.784,-2.8213,-2.8399,-2.8619,-2.9381,-2.9837,-3.0108,-3.0108,-3.0632,-3.1106,-3.0683,-3.0886,-3.1275,-3.1596,-3.1985,-3.2313,-3.2313,-3.2313,-3.2374,-3.2713,-3.2848,-3.3254,-3.432,-3.4303,-3.437,-3.503,-3.5131,-3.525,-3.5571,-3.5253,-3.5052,-3.5052,-3.4704,-3.4791,-3.5514,-3.4872,-3.3855,-3.2491,-3.3168,-3.3643,-3.3582,-3.3887,-3.3742,-3.315,-3.3048,-3.2456,-3.1308,-3.0382,-2.9755,-2.9369,-2.8446,-2.7993,0.0,0.0,-0.7048,-0.5365,-0.7421,-1.0659,0.0,0.0,-1.7817,0.0,-2.0069,-2.1327,-2.3112,-2.3981,-2.4504,-2.4714,-2.4827,-2.4934,-2.5075,-2.52,-2.5274,-2.5243,-2.5288,-2.531,-2.5324,-2.5286,-2.5248,-2.5248,-2.5068,-2.4949,-2.4949,-2.4814,-2.4654,-2.4512,-2.4373,-2.4211,-2.4074,-2.3735,-2.3455,-2.3189,-2.3117,-2.3069,-2.3069,-2.2738,-2.2712,-2.2965,-2.2965,-2.2987,-2.3111,-2.4367,-2.4526,-2.4137,-2.5981,-2.6353,-2.5947,-2.6488,-2.6945,-2.7266,-2.7266,-2.7774,-2.8397,-2.8619,-2.8941,-2.9414,-3.0159,-3.0378,-3.0378,-3.0378,-3.0784,-3.1072,-3.0531,-3.0784,-3.1292,-3.1664,-3.2036,-3.2313,-3.2313,-3.2313,-3.2313,-3.2313,-3.273,-3.3406,-3.4336,-3.4813,-3.5143,-3.5328,-3.5207,-3.5115,-3.5115,-3.4657,-3.4333,-3.4333,-3.3887,-3.3973,-3.4852,-3.4306,-3.3219,-3.1595,-3.216,-3.2714,-3.3061,-3.3235,-3.3235,-3.3077,-3.2586,-3.1797,-3.0753,-3.0,-2.925,-2.8577,-2.7889,-2.7625,0.0,-0.6697,0.0,0.0654,0.0,0.0,0.0,0.0,-1.4122,-1.5334,-1.6702,-1.8134,-1.9437,-2.1754,-2.3603,-2.3993,-2.4318,-2.4539,-2.4539,-2.4774,-2.4903,-2.4847,-2.4823,-2.4835,-2.4837,-2.4832,-2.4832,-2.4832,-2.4818,-2.4818,-2.4818,-2.4623,-2.4512,-2.4495,-2.402,-2.3735,-2.3714,-2.3392,-2.323,-2.3189,-2.2873,-2.2721,-2.2721,-2.2436,-2.2321,-2.2349,-2.2349,-2.289,-2.387,-2.4334,-2.4913,-2.5575,-2.6387,-2.6674,-2.664,-2.6674,-2.7621,-2.8892,-2.8892,-2.9364,-3.0108,-3.0801,-3.0581,-3.0192,-3.092,-3.114,-3.114,-3.114,-3.1157,-3.119,-3.114,-3.1157,-3.1546,-3.2949,-3.278,-3.2313,-3.2313,-3.2313,-3.2313,-3.2313,-3.2307,-3.2797,-3.4235,-3.3984,-3.3865,-3.4541,-3.4087,-3.3684,-3.3684,-3.3684,-3.3633,-3.3633,-3.3633,-3.3471,-3.3091,-3.3022,-3.2561,-3.158,-3.1551,-3.1576,-3.161,-3.2272,-3.2327,-3.164,-3.1582,-3.1561,-3.1517,-3.0243,-2.925,-2.8577,-2.7889,-2.7625,0.0,0.0,0.0,0.2559,0.0873,-0.2487,-0.4994,-0.7131,-0.9096,-1.071,-1.2725,-1.4672,-1.6166,-1.9142,-2.1558,-2.2229,-2.2972,-2.352,-2.3639,-2.397,-2.4189,-2.4154,-2.4155,-2.4172,-2.415,-2.415,-2.415,-2.415,-2.4045,-2.3971,-2.3971,-2.3771,-2.3681,-2.3681,-2.3464,-2.3277,-2.3069,-2.2947,-2.2789,-2.2624,-2.249,-2.2436,-2.2436,-2.2349,-2.231,-2.2344,-2.2801,-2.3226,-2.3647,-2.4248,-2.4932,-2.5676,-2.6404,-2.6691,-2.6691,-2.6691,-2.7351,-2.823,-2.823,-2.9059,-3.0142,-3.0412,-3.0632,-3.0852,-3.1123,-3.119,-3.119,-3.119,-3.119,-3.119,-3.119,-3.119,-3.1348,-3.1976,-3.1605,-3.1214,-3.1655,-3.2057,-3.2326,-3.2357,-3.2353,-3.2713,-3.376,-3.3713,-3.3646,-3.3905,-3.3735,-3.3582,-3.3582,-3.3235,-3.2933,-3.2933,-3.2516,-3.243,-3.2783,-3.2844,-3.2846,-3.2764,-3.2506,-3.2101,-3.1539,-3.1739,-3.1796,-3.1539,-3.1106,-3.0664,-3.0342,-2.9847,-2.9011,-2.7934,-2.7679,-2.7357,-1.608,0.0,0.0,0.0,0.0,-0.2289,-0.4084,0.0,-0.5161,-0.6928,-0.887,-1.0859,-1.2857,-1.5638,-1.8253,-2.0113,-2.1407,-2.2212,-2.2335,-2.2828,-2.3221,-2.3382,-2.3404,-2.3443,-2.3601,-2.3601,-2.3601,-2.3601,-2.3469,-2.34,-2.34,-2.327,-2.3141,-2.3045,-2.3021,-2.2873,-2.2563,-2.2563,-2.249,-2.231,-2.2135,-2.2152,-2.2282,-2.1991,-2.1945,-2.2094,-2.2445,-2.3036,-2.3816,-2.456,-2.5304,-2.5982,-2.6337,-2.6556,-2.6691,-2.6505,-2.7195,-2.8213,-2.8213,-2.9084,-3.0174,-3.0174,-3.0356,-3.0617,-3.0617,-3.0617,-3.0617,-3.0617,-3.0742,-3.0875,-3.0667,-3.0784,-3.1049,-3.1324,-3.1078,-3.0879,-3.139,-3.174,-3.2006,-3.205,-3.228,-3.2594,-3.3136,-3.3232,-3.3235,-3.3235,-3.3024,-3.2933,-3.2933,-3.2532,-3.2216,-3.2216,-3.1992,-3.2063,-3.2646,-3.3036,-3.3216,-3.3156,-3.3095,-3.2556,-3.1569,-3.1482,-3.1482,-3.1482,-3.1091,-3.0537,-2.9894,-2.946,-2.8667,-2.7625,-2.7625,-2.7188,0.0,0.0,0.0,0.0,0.0,0.0,-0.4553,0.0,-0.2644,-0.4053,-0.5123,-0.6702,-0.9503,-1.135,-1.3725,-1.7647,-1.9607,-2.0591,-2.0591,-2.1299,-2.1993,-2.2479,-2.2531,-2.2693,-2.31,-2.3141,-2.3141,-2.3141,-2.3141,-2.3141,-2.3141,-2.3141,-2.2996,-2.2669,-2.2669,-2.252,-2.2282,-2.2282,-2.2254,-2.2254,-2.1794,-2.1823,-2.2237,-2.1401,-2.1213,-2.1552,-2.1197,-2.2326,-2.4461,-2.5205,-2.5948,-2.659,-2.6106,-2.6245,-2.6624,-2.6139,-2.7247,-2.8938,-2.8921,-2.9504,-3.0251,-3.0234,-2.9876,-2.9406,-2.9406,-2.9406,-2.9406,-2.9406,-2.9872,-3.0256,-2.9614,-2.9934,-3.059,-3.1182,-3.1358,-3.1438,-3.1357,-3.1389,-3.1405,-3.1389,-3.1996,-3.2474,-3.249,-3.251,-3.2586,-3.2586,-3.1951,-3.1482,-3.1482,-3.1482,-3.1482,-3.1497,-3.2138,-3.2527,-3.2572,-3.3577,-3.3728,-3.2647,-3.3156,-3.2884,-3.1629,-3.1497,-3.1467,-3.1467,-3.1452,-3.1108,-3.0436,-2.9235,-2.8263,-2.7655,-2.7575,-2.7137,-2.2058,0.0,0.0,0.0,0.0,0.0,0.0,0.0,-0.2269,-0.1391,-0.2633,-0.4317,-0.5806,-0.8428,-1.1106,-1.3242,-1.6408,-1.8592,-1.8592,-1.9461,-2.0283,-2.0814,-2.0846,-2.1066,-2.1559,-2.1606,-2.1606,0.0,-2.1886,-2.2029,-2.2029,-2.2029,-2.1989,-2.1919,-2.1639,-2.1565,-2.1794,-2.1507,-2.1354,-2.1354,-2.1229,-2.1213,-2.1354,-2.1103,-2.1055,-2.1182,-2.1617,-2.215,-2.2769,-2.2965,-2.378,-2.487,-2.4762,-2.507,-2.5598,-2.5486,-2.6393,-2.768,-2.7215,-2.8183,-2.9592,-2.9087,-2.915,-2.9406,-2.9406,-2.9406,-2.9406,-2.9406,-2.9872,-3.0368,-3.0176,-2.9943,-2.967,-2.9373,-2.9728,-3.0105,-3.0105,-3.0815,-3.1442,-3.1436,-3.1571,-3.1725,-3.1793,-3.1773,-3.1796,-3.1796,-3.164,-3.1482,-3.1482,-3.1482,-3.1719,-3.2198,-3.2407,-3.2901,-3.3844,-3.4235,-3.4525,-3.468,-3.3923,-3.3352,-3.2989,-3.2002,-3.1087,-3.0276,-3.0001,-2.9505,-2.8697,-2.9119,-2.8966,-2.8308,-2.6712,-2.5618,0.0,0.0,0.0,0.0,0.0,0.0,-0.3992,-0.1476,-0.0109,0.1667,-0.0,-0.2196,-0.3569,-0.5841,-0.8107,-1.0128,-1.2929,-1.5386,-1.698,-1.7938,-1.8766,-1.9516,-1.9602,-1.9813,-2.0289,-2.052,-2.0684,-2.0684,-2.1086,-2.1337,-2.1337,-2.1337,-2.1337,-2.1337,-2.1118,-2.1118,-2.1337,-2.1118,-2.0991,-2.0991,-2.0797,-2.0829,-2.1007,-2.0632,-2.0565,-2.0714,-2.0973,-2.1092,-2.1092,-2.1092,-2.2311,-2.4163,-2.3941,-2.4408,-2.5182,-2.495,-2.5727,-2.6839,-2.6439,-2.7312,-2.8521,-2.8155,-2.8322,-2.8622,-2.8622,-2.8622,-2.8622,-2.8622,-2.8918,-2.9354,-2.9946,-2.9385,-2.8767,-2.89,-2.91,-2.9325,-2.9849,-3.0567,-3.1159,-3.1414,-3.1439,-3.1465,-3.1507,-3.1482,-3.1482,-3.1482,-3.1482,-3.1482,-3.1482,-3.1482,-3.1735,-3.2437,-3.2766,-3.335,-3.4382,-3.4741,-3.4835,-3.4693,-3.3657,-3.2818,-3.2198,-3.1085,-3.0151,-2.9487,-2.9045,-2.8535,-2.7982,-2.8382,-2.8219,-2.7556,-2.5786,-2.4738,0.0,0.0,0.0,0.0,-2.1118,0.0,-0.9593,-0.3171,0.1544,0.3878,0.1833,-0.089,-0.2758,-0.3944,-0.5453,-0.8022,-0.9607,-1.1789,-1.5481,-1.6456,-1.7262,-1.8398,-1.8513,-1.8711,-1.922,-1.9677,-1.9951,-1.9951,-2.0532,-2.0843,-2.0843,-2.0843,-2.0859,-2.0924,-2.0828,-2.0829,-2.0926,-2.0829,-2.0748,-2.0748,-2.0299,-2.0299,-2.0748,-1.9965,-1.9823,-2.0212,-1.9839,-1.969,-1.969,-1.969,-2.1362,-2.3867,-2.339,-2.3959,-2.4973,-2.4511,-2.507,-2.6118,-2.6038,-2.6623,-2.7396,-2.7319,-2.7418,-2.7625,-2.7625,-2.7625,-2.764,-2.7715,-2.7679,-2.8015,-2.916,-2.8577,-2.7964,-2.9086,-2.9026,-2.9026,-3.0163,-3.0507,-3.0806,-3.1362,-3.1482,-3.1482,-3.1482,-3.1482,-3.1497,-3.1571,-3.1526,-3.1497,-3.1571,-3.1586,-3.1898,-3.2557,-3.3215,-3.3873,-3.4532,-3.5006,-3.4733,-3.354,-3.2674,-3.1622,-3.0276,-2.9407,-2.8911,-2.8743,-2.822,-2.7913,-2.783,-2.7256,-2.6685,-2.6051,-2.4847,-2.4234,0.0,0.0,0.0,-2.4559,-2.3168,0.0,-1.8966,-1.2533,-0.559,-0.0153,-0.0874,-0.2845,-0.3971,-0.4824,-0.5679,-0.6806,-0.818,-1.0124,-1.3107,-1.4,-1.498,-1.668,-1.686,-1.7274,-1.8246,-1.844,-1.8517,-1.8517,-1.9344,-1.9874,-1.9874,-1.9874,-2.0078,-2.0496,-1.9708,-1.9671,-2.0449,-1.9707,-1.931,-1.931,-1.8774,-1.8812,-1.931,-1.9118,-1.9354,-1.9803,-1.9711,-1.969,-1.969,-1.969,-2.0692,-2.2176,-2.2058,-2.2808,-2.3921,-2.3794,-2.4232,-2.4863,-2.4301,-2.5274,-2.6675,-2.6148,-2.6684,-2.7625,-2.7625,-2.7625,-2.7679,-2.8248,-2.8397,-2.8472,-2.8727,-2.8592,-2.8323,-2.809,-2.8697,-2.946,-2.9699,-3.0597,-3.1317,-3.1452,-3.1482,-3.1482,-3.1482,-3.1482,-3.1661,-3.2243,-3.1884,-3.1661,-3.2258,-3.2317,-3.2572,-3.323,-3.3888,-3.4562,-3.525,-3.428,-3.3522,-3.326,-3.1503,-3.0252,-2.967,-2.9245,-2.8343,-2.7027,-2.6889,-2.6803,-2.6806,-2.7058,-2.6521,-2.5316,-2.4614,-2.3943,-2.642,-2.69,-2.7285,-2.6176,-2.5097,0.0,0.0,-1.7241,-1.1604,-0.7011,-0.4828,-0.4216,-0.5958,-0.6749,-0.723,-0.7611,-0.7947,-0.8995,-1.1242,-1.2539,-1.3768,-1.5165,-1.5648,-1.6312,-1.7479,-1.7609,-1.7862,-1.8467,-1.9252,-1.9684,-1.9684,-1.9684,-1.9795,-2.0098,-1.9313,-1.913,-1.9602,-1.8855,-1.8496,-1.8496,-1.8224,-1.8263,-1.8496,-1.8496,-1.865,-1.8893,-1.8893,-1.8893,-1.8893,-1.8893,-1.9493,-2.0483,-2.1346,-2.2473,-2.3595,-2.3595,-2.3819,-2.4059,-2.3714,-2.4477,-2.5615,-2.5615,-2.6273,-2.7141,-2.752,-2.7625,-2.7685,-2.7993,-2.8083,-2.8083,-2.8083,-2.8083,-2.8083,-2.8083,-2.8607,-2.9265,-2.9909,-3.0552,-3.112,-3.1407,-3.1482,-3.1482,-3.1482,-3.1809,-3.2018,-3.2018,-3.2302,-3.2392,-3.2063,-3.2302,-3.2437,-3.2353,-3.2662,-3.2928,-3.326,-3.2539,-3.1948,-3.1636,-3.0165,-2.9145,-2.8635,-2.804,-2.7392,-2.6502,-2.6488,-2.6533,-2.6533,-2.6414,-2.6033,-2.5319,-2.4828,-2.4325,-2.6677,-2.727,-2.7763,-2.7064,-2.664,-2.5848,0.0,0.0,0.0,-1.4209,-0.9915,-0.7166,-0.8887,0.0,0.0,-0.9467,0.0,0.0,0.0,-1.1541,0.0,-1.3852,-1.439,-1.523,-1.6535,-1.6872,-1.7376,-1.8288,-1.9083,-1.9546,-1.9426,-1.9588,-1.9678,-1.9812,-1.9214,-1.8918,-1.892,-1.8358,-1.8057,-1.7947,-1.7827,-1.7867,-1.7947,-1.7947,-1.7987,-1.8106,-1.8106,-1.8106,-1.8106,-1.8106,-1.8505,-1.9238,-2.0767,-2.212,-2.3301,-2.3376,-2.3508,-2.3595,-2.3595,-2.4133,-2.4836,-2.5285,-2.5959,-2.6722,-2.743,-2.7625,-2.7625,-2.7625,-2.7625,-2.7625,-2.7625,-2.7625,-2.779,-2.8442,-2.8697,-2.9047,-3.0086,-3.0372,-3.0552,-3.0925,-3.1029,-3.1087,-3.1409,-3.1973,-3.2228,-3.1958,-3.2706,-3.3021,-3.2198,-3.2377,-3.2311,-3.1488,-3.1323,-3.1233,-3.1037,-3.0768,-3.0358,-2.9797,-2.8812,-2.8022,-2.7497,-2.685,-2.6533,-2.6533,-2.6533,-2.6533,-2.6533,-2.5988,-2.5699,-2.5586,-2.5059,-2.482,-2.5866,-2.6291,-2.6929,-2.6833,-2.7349,-2.7569,-2.6394,0.0,-2.2257,-1.9409,0.0,-1.47,-1.3397,0.0,0.0,0.0,-1.1318,-1.0606,-1.08,-1.0908,-1.1384,-1.2635,-1.2659,-1.3227,-1.4914,-1.6044,-1.6575,-1.6337,-1.7812,-1.853,-1.8162,-1.8734,-1.9297,-1.9798,-1.9278,-1.8976,-1.8879,-1.843,-1.7925,-1.7394,-1.6909,-1.6909,-1.7394,-1.7394,-1.7666,-1.8106,-1.8106,-1.8106,-1.8106,-1.8106,-1.8505,-1.9183,-1.9837,-2.0912,-2.2164,-2.2627,-2.3143,-2.3595,-2.3595,-2.4433,-2.542,-2.4866,-2.5585,-2.6722,-2.743,-2.7625,-2.7625,-2.7625,-2.7625,-2.7625,-2.7625,-2.7625,-2.779,-2.8442,-2.9041,-2.9491,-2.9421,-2.9883,-3.0107,-2.9428,-2.9254,-2.9766,-3.1219,-3.1541,-3.2018,-3.311,-3.2901,-3.2991,-3.4008,-3.3475,-3.2768,-3.2162,-3.1857,-3.1499,-3.104,-2.9781,-2.8932,-2.8865,-2.7537,-2.6721,-2.6658,-2.6521,-2.6533,-2.6533,-2.6533,-2.6533,-2.6533,-2.6458,-2.6101,-2.5586,-2.5059,-2.482,-2.6013,-2.6255,-2.6629,-2.6627,-2.6997,-2.7462,-2.7843,-2.6483,-2.4794,-2.3647,0.0,0.0,0.0,0.0,0.0,0.0,-1.5061,-1.3959,0.0,0.0,-1.1535,-1.1808,-1.2241,0.0,-1.4044,-1.5818,-1.6599,-1.5807,-1.7433,-1.8233,-1.7771,-1.8025,-1.8289,-1.8526,-1.801,-1.7618,-1.7343,-1.7177,-1.6846,-1.6318,-1.6454,-1.6637,-1.6837,-1.6837,-1.6951,-1.7146,-1.7146,-1.7146,-1.7146,-1.7146,-1.7332,-1.765,-1.8241,-1.9646,-2.1332,-2.1555,-2.2033,-2.2546,-2.295,-2.3209,-2.3388,-2.3855,-2.4647,-2.5581,-2.6622,-2.6654,-2.6428,-2.6826,-2.6654,-2.6408,-2.6711,-2.6797,-2.7069,-2.7997,-2.8226,-2.8368,-2.8975,-2.9102,-2.9083,-2.8996,-2.9002,-2.9192,-2.995,-3.0611,-3.114,-3.1311,-3.204,-3.2497,-3.2282,-3.2249,-3.169,-3.0223,-2.9944,-2.9455,-2.8433,-2.7777,-2.7456,-2.7456,-2.6853,-2.6314,-2.5975,-2.5925,-2.5837,-2.5848,-2.5892,-2.6068,-2.6515,-2.6501,-2.6339,-2.6088,-2.5875,-2.5586,-2.5844,-2.597,-2.6224,-2.6773,-2.7024,-2.7486,-2.8734,-2.7927,-2.6795,-2.6303,-2.4316,0.0,0.0,0.0,0.0,0.0,0.0,-1.699,0.0,-1.38,-1.2232,-1.1548,-1.2135,-1.2733,0.0,-1.5019,-1.6037,-1.5177,-1.6642,-1.7375,-1.6911,-1.724,-1.7411,-1.7411,-1.7179,-1.6819,-1.6389,-1.6302,-1.6021,-1.5519,-1.5848,-1.602,-1.602,-1.6194,-1.6238,-1.6238,-1.6423,-1.6522,-1.6522,-1.6522,-1.6522,-1.6559,-1.6986,-1.8293,-1.9994,-2.0457,-2.112,-2.1758,-2.2253,-2.21,-2.1931,-2.3368,-2.4003,-2.4521,-2.5813,-2.5837,-2.5508,-2.6068,-2.5783,-2.5494,-2.588,-2.6114,-2.6455,-2.7547,-2.7589,-2.7671,-2.8466,-2.8343,-2.8102,-2.8282,-2.8298,-2.8298,-2.8298,-2.9395,-3.0273,-3.0097,-3.1199,-3.1847,-3.1007,-3.1158,-3.0551,-2.8754,-2.8294,-2.7687,-2.6571,-2.6533,-2.6533,-2.6533,-2.6533,-2.6264,-2.585,-2.5578,-2.5324,-2.5259,-2.5532,-2.5942,-2.6518,-2.6476,-2.6383,-2.6094,-2.6094,-2.5934,-2.4911,-2.5049,-2.5516,-2.7475,-2.7997,-2.827,-2.911,-2.9289,-2.875,-2.6801,-2.5996,-2.5374,-2.4402,0.0,0.0,0.0,0.0,0.0,0.0,-1.5563,-1.3279,-1.1912,-1.2041,-1.1956,0.0,-1.3248,-1.4428,-1.3991,-1.5037,-1.5525,-1.5067,-1.6235,-1.6919,-1.6919,-1.732,-1.731,-1.6777,-1.6401,-1.5897,-1.5296,-1.4922,-1.4755,-1.4789,-1.5365,-1.5632,-1.5676,-1.6238,-1.6522,-1.6522,-1.6522,-1.6522,-1.6522,-1.6534,-1.6955,-1.7733,-1.9389,-2.0745,-2.1697,-2.1697,-2.1697,-2.2,-2.3875,-2.4111,-2.3851,-2.5093,-2.5398,-2.5398,-2.5453,-2.5398,-2.5398,-2.5425,-2.5797,-2.6403,-2.7083,-2.7602,-2.7933,-2.7801,-2.7723,-2.7524,-2.6714,-2.6589,-2.6589,-2.6589,-2.796,-2.9444,-3.0604,-3.0825,-3.106,-3.1668,-3.0953,-2.9971,-2.8849,-2.7875,-2.7125,-2.6571,-2.6533,-2.6533,-2.6533,-2.6533,-2.6521,-2.6496,-2.5809,-2.5232,-2.48,-2.5915,-2.6508,-2.6508,-2.6521,-2.6025,-2.5075,-2.5075,-2.522,-2.4371,-2.4663,-2.5162,-2.6369,-2.7358,-2.8227,-2.8994,-2.882,-2.8258,-2.7544,-2.6254,-2.5308,-2.5412,0.0,0.0,0.0,0.0,0.0,0.0,-1.5857,-1.227,-0.9868,-1.0712,-1.1149,-1.0473,-1.2045,-1.3111,-1.3101,-1.3819,-1.4306,-1.4237,-1.4458,-1.4551,-1.4551,-1.5084,-1.501,-1.4243,-1.507,-1.5078,-1.4322,-1.4545,-1.4698,-1.4698,-1.4926,-1.5005,-1.5017,-1.5197,-1.5287,-1.5344,-1.5732,-1.5908,-1.5952,-1.6324,-1.7099,-1.8012,-1.8614,-1.9278,-1.9941,-2.0291,-2.072,-2.1242,-2.2219,-2.2382,-2.2489,-2.415,-2.4279,-2.3989,-2.4509,-2.4279,-2.3962,-2.4352,-2.4883,-2.5441,-2.5999,-2.6272,-2.6505,-2.6845,-2.6598,-2.6378,-2.6445,-2.6533,-2.6533,-2.6533,-2.6973,-2.7611,-2.8378,-2.9061,-2.9606,-2.9874,-2.9632,-2.9142,-2.8375,-2.7708,-2.7055,-2.6584,-2.6533,-2.6533,-2.6533,-2.6533,-2.6289,-2.59,-2.5652,-2.5398,-2.5178,-2.5549,-2.5566,-2.5213,-2.5146,-2.4765,-2.3963,-2.3294,-2.3245,-2.3981,-2.4318,-2.4751,-2.5792,-2.6692,-2.747,-2.8055,-2.78,-2.7324,-2.6976,-2.5891,-2.512,-2.5502,0.0,0.0,0.0,0.0,0.0,0.0,-1.5742,-1.2126,-0.9472,-0.9939,-1.025,-0.9531,-1.1127,-1.2251,-1.2398,-1.2562,-1.2645,-1.2789,-1.2654,-1.2603,-1.2603,-1.3364,-1.349,-1.2946,-1.3642,-1.3809,-1.3452,-1.3618,-1.3794,-1.4071,-1.4294,-1.4376,-1.4376,-1.4606,-1.4698,-1.4744,-1.5096,-1.5276,-1.532,-1.5964,-1.6749,-1.7622,-1.8022,-1.8668,-1.9346,-1.9685,-2.0105,-2.054,-2.1281,-2.1493,-2.1807,-2.3373,-2.3543,-2.3185,-2.3708,-2.3484,-2.3263,-2.3853,-2.4406,-2.4958,-2.5473,-2.5749,-2.6,-2.6445,-2.6163,-2.6013,-2.6389,-2.6533,-2.6533,-2.6533,-2.6533,-2.6653,-2.7205,-2.7896,-2.8411,-2.8612,-2.8637,-2.8423,-2.7871,-2.7494,-2.7055,-2.6584,-2.6533,-2.6533,-2.6533,-2.6533,-2.6302,-2.5912,-2.59,-2.574,-2.5395,-2.5298,-2.5037,-2.4625,-2.4307,-2.3818,-2.3128,-2.2349,-2.186]}]]